GFSCGP_sfc_rhum_000.txt.gz
RH
24 26 28 26 24 20 20 24 26 25 18 18 28 35 35 46 49 49 51 56 55 53 49 54 56 55 56 58 61 73 71 67 49 65 67 79 62 58 54 55 58 58 58 59
27 32 23 21 25 27 27 27 30 24 19 19 31 35 40 43 46 45 49 54 55 54 49 50 55 64 70 63 66 67 63 59 61 72 77 69 64 63 59 61 54 60 67 57
32 24 22 26 30 30 38 33 34 30 27 24 29 35 40 36 37 37 43 50 53 53 55 52 57 62 56 52 54 50 50 52 61 65 59 63 62 62 65 60 62 60 60 59
26 26 27 32 31 35 44 35 31 30 32 27 29 50 40 45 44 44 50 56 55 56 54 53 57 59 57 56 52 47 45 45 48 52 57 62 69 68 72 72 69 60 61 61
35 35 35 34 34 32 38 36 36 37 39 41 37 48 44 42 47 49 53 55 61 59 58 59 59 56 56 55 54 51 47 47 48 49 55 66 61 64 70 72 63 60 63 62
30 31 31 34 32 32 31 40 42 44 50 66 46 53 54 53 46 46 49 52 54 58 60 58 57 54 54 55 52 48 43 44 50 52 54 60 58 62 69 63 62 63 67 66
35 35 30 30 36 33 34 51 73 65 76 72 48 61 64 45 41 47 53 53 53 56 61 60 58 57 57 61 51 51 50 47 46 54 59 61 64 65 60 58 56 55 63 64
46 57 34 28 36 40 41 46 69 70 82 57 43 61 52 43 43 44 44 49 49 50 56 60 59 57 55 59 59 58 53 50 57 59 59 61 62 61 55 52 58 61 72 73
52 47 35 31 31 38 43 45 38 61 76 70 60 49 41 36 37 34 35 41 52 54 56 56 58 58 59 58 63 54 47 45 51 55 59 56 57 58 61 60 65 72 74 68
44 47 35 28 35 35 28 33 55 70 66 70 58 61 59 49 45 39 50 55 57 58 56 57 58 61 63 61 55 56 53 51 53 56 59 54 56 59 69 71 75 71 71 71
52 48 43 42 42 45 43 47 50 54 72 77 84 60 47 51 47 53 56 56 59 61 62 61 60 61 57 52 54 59 62 61 61 61 61 63 64 66 70 73 68 68 69 66
51 58 74 47 36 35 39 47 52 75 69 89 89 61 43 48 46 50 52 53 53 59 59 60 60 56 54 54 54 52 59 60 60 64 67 70 71 66 66 66 64 67 66 67
50 61 76 60 50 42 40 41 57 64 74 64 82 64 45 52 50 53 58 59 64 64 63 63 60 56 53 50 46 42 46 46 47 50 63 72 68 77 66 60 61 60 64 54
64 66 60 74 58 49 45 40 54 58 82 74 73 49 60 64 65 65 67 69 69 64 61 59 58 55 48 42 40 42 46 48 46 43 51 52 54 60 67 65 67 72 72 72
62 70 68 53 53 49 46 47 48 46 55 66 56 59 68 67 69 69 68 65 60 61 58 55 57 52 40 40 42 42 46 47 48 48 49 66 81 76 70 68 74 80 85 72
80 81 84 72 67 69 59 51 52 49 43 46 67 76 65 64 71 73 68 65 62 59 60 57 54 38 37 40 41 40 43 46 50 51 64 75 79 78 80 76 82 86 86 54
91 93 83 79 92 83 70 57 54 49 61 49 63 73 69 77 77 76 71 64 63 61 58 56 45 34 39 39 39 38 41 45 50 54 67 71 80 82 85 86 88 87 59 37
98 95 95 82 77 65 57 48 48 74 71 71 73 72 69 75 78 70 63 63 62 57 52 49 31 32 36 37 36 39 41 45 52 69 69 74 76 81 82 90 83 76 52 47
77 92 98 79 92 55 50 50 53 55 88 75 78 76 71 74 72 74 61 58 57 52 42 36 32 33 36 36 37 41 44 48 52 69 73 75 80 82 83 82 86 89 67 58
90 88 84 98 69 61 56 57 52 50 76 79 79 82 78 73 94 83 71 68 57 38 36 32 33 33 36 34 38 43 48 53 57 72 74 77 82 84 86 87 90 85 56 70
99 96 94 99 91 81 55 54 53 75 66 84 84 87 86 87 83 72 80 70 40 36 34 34 36 36 37 39 45 50 53 56 57 70 74 80 81 84 85 88 73 56 74 79
85 94 98 99 98 85 57 56 66 68 92 90 88 85 86 83 78 76 67 45 41 35 36 36 41 43 46 46 50 52 56 56 62 69 73 75 74 67 54 60 62 68 75 82
68 74 86 80 81 62 58 61 73 86 90 92 87 84 80 78 75 53 47 44 41 39 39 39 43 47 48 50 52 54 56 62 67 72 75 74 71 68 69 67 67 77 83 92
65 70 89 81 63 67 63 88 88 86 88 87 81 78 72 72 55 49 45 45 43 41 42 43 48 53 58 57 56 61 62 64 71 74 76 78 80 82 79 70 71 77 96 96
71 68 71 79 69 82 84 86 88 86 84 84 77 75 71 48 45 45 45 47 47 47 48 52 58 63 63 62 69 71 73 75 74 77 77 81 92 86 83 74 76 86 70 78
76 67 84 73 64 67 75 88 82 83 80 77 73 45 40 44 44 45 51 52 53 58 58 58 62 67 68 73 71 75 85 86 84 83 87 93 97 96 86 80 78 75 72 70

GFSCGP_sfc_rhum_003.txt.gz
RH
28 26 28 26 27 22 23 26 24 28 22 39 49 56 63 61 64 68 64 62 61 62 62 64 66 69 57 74 76 84 80 77 75 85 81 84 84 77 75 63 67 66 62 58
27 32 27 27 32 30 27 30 34 28 33 42 50 52 52 51 60 67 62 61 59 58 56 60 62 64 68 68 67 72 72 66 69 79 82 88 84 78 70 60 58 60 63 61
30 29 24 28 33 34 41 39 34 31 38 40 42 49 45 42 48 53 60 64 60 61 65 65 59 55 52 52 54 51 55 59 62 75 79 70 67 68 64 65 67 61 64 61
30 33 30 33 32 37 43 38 33 33 43 52 42 70 53 54 59 60 64 63 66 60 59 56 55 54 52 54 51 48 47 48 50 54 58 58 61 62 72 76 65 62 67 66
39 39 36 34 36 36 41 38 36 35 40 42 47 59 59 51 63 63 64 61 59 64 58 58 56 54 58 56 52 51 48 46 49 52 59 67 65 67 78 70 62 62 70 72
36 34 33 37 35 35 32 42 47 54 54 68 50 58 61 60 56 57 56 58 58 64 67 61 57 54 53 57 56 52 49 50 52 54 58 66 62 72 64 60 61 62 68 72
36 36 33 35 40 38 39 51 71 64 75 75 52 61 64 46 47 52 55 58 62 63 62 60 55 60 61 64 62 56 56 62 62 63 65 67 66 59 56 58 63 59 64 70
48 55 35 29 38 42 44 48 72 66 82 58 49 68 56 48 48 48 52 54 60 62 62 64 67 67 66 60 56 51 51 53 54 55 57 62 58 61 62 57 59 69 73 78
51 47 35 33 33 40 46 49 45 70 76 72 68 55 44 48 54 50 51 54 63 65 65 62 64 64 63 63 64 57 48 47 50 54 58 58 58 61 68 69 75 78 81 73
43 43 38 30 37 37 34 38 55 71 64 71 66 68 66 52 53 45 54 67 67 63 63 65 62 57 55 56 60 63 60 57 58 61 66 63 68 68 72 77 78 79 74 68
53 44 43 42 44 47 44 47 55 62 75 76 85 71 50 50 46 56 68 65 66 68 65 62 58 53 51 52 50 61 60 53 53 58 66 72 70 68 74 77 78 75 71 73
55 58 74 48 39 41 43 50 50 68 68 89 87 60 47 52 55 60 63 65 68 66 65 58 55 52 50 47 46 48 50 46 50 54 62 63 68 68 74 71 74 72 66 69
50 63 75 62 49 42 45 48 58 63 76 78 79 60 54 55 61 61 68 69 70 68 65 61 58 53 46 43 45 47 48 46 45 47 55 61 67 72 78 72 66 66 69 69
62 66 58 69 59 52 45 46 57 55 77 70 73 52 67 72 70 74 75 74 72 68 61 60 57 46 40 42 45 46 48 50 49 49 59 74 79 75 69 66 69 73 77 80
59 62 70 63 62 53 49 44 55 58 59 66 58 60 61 72 76 77 75 72 67 64 58 56 55 40 37 44 44 43 47 48 51 52 62 74 79 81 79 78 77 80 80 78
73 83 80 80 72 71 58 47 50 51 51 59 71 85 73 73 78 76 72 69 66 57 52 49 44 33 36 40 40 40 44 49 53 54 66 72 75 78 84 86 86 82 84 85
85 92 70 59 88 76 54 56 52 51 64 61 83 71 76 83 77 77 76 70 63 55 52 52 41 32 37 41 42 43 43 48 53 58 68 75 82 84 88 88 94 91 88 56
98 96 89 82 76 53 42 52 52 57 76 77 79 76 73 76 79 74 69 66 63 56 54 50 34 29 38 41 41 43 43 48 55 60 75 77 82 84 88 92 92 90 82 81
78 92 97 76 82 51 39 61 74 64 68 77 78 76 74 81 77 76 66 61 60 59 52 43 31 29 34 38 38 43 48 52 57 61 74 77 82 86 91 92 92 90 90 69
84 86 77 97 62 50 44 61 54 53 72 79 78 81 81 80 96 83 69 64 60 55 33 33 33 35 36 38 43 49 52 55 59 63 74 79 84 90 93 93 94 91 62 74
99 98 86 100 83 72 53 55 54 71 62 81 78 79 83 85 82 68 74 74 56 34 35 40 41 43 46 48 50 54 57 61 59 65 73 77 82 84 84 86 76 61 78 78
90 94 99 97 97 70 56 59 67 66 84 80 84 84 81 78 77 76 75 44 38 39 40 41 46 49 51 53 57 61 63 57 61 70 75 77 78 70 64 70 66 77 81 78
76 70 82 76 76 60 58 64 66 76 83 89 86 84 79 82 80 74 48 44 41 40 42 44 48 52 54 57 61 67 64 66 69 75 77 76 73 74 75 69 75 78 83 92
74 72 87 77 61 65 63 68 83 87 84 89 84 81 82 77 66 47 48 44 45 46 49 50 53 58 64 65 65 74 75 76 82 79 77 73 76 81 82 68 70 76 95 93
76 74 75 83 70 77 73 80 84 88 88 86 80 77 73 68 48 47 47 48 49 51 53 56 61 67 69 70 78 76 78 90 86 82 76 78 85 87 72 70 74 83 71 77
78 71 84 80 61 71 65 74 86 90 90 84 80 65 47 43 44 47 53 53 54 59 60 62 66 73 74 81 81 82 86 92 96 96 96 96 99 91 78 77 80 71 72 72

GFSCGP_sfc_rhum_006.txt.gz
RH
27 27 28 27 24 18 21 22 25 29 34 56 69 71 68 75 78 77 77 75 72 70 77 77 78 84 81 88 84 86 89 89 85 86 85 83 81 88 85 71 66 64 58 62
28 31 28 31 33 30 29 32 40 42 43 55 60 59 56 57 67 77 73 72 70 69 66 66 64 73 81 88 89 86 81 76 74 79 84 86 90 80 72 64 63 68 66 64
31 30 30 35 35 35 43 34 37 45 49 52 54 59 57 52 61 64 66 69 67 68 69 60 56 59 62 71 71 62 64 64 70 80 81 74 72 72 65 72 65 68 68 68
39 37 33 34 34 38 42 40 39 50 53 60 50 79 61 64 70 68 71 71 75 66 58 54 52 50 52 56 54 53 53 54 55 58 59 58 65 68 80 72 65 69 70 67
42 40 37 34 38 39 42 36 38 40 43 47 53 68 64 64 70 69 70 69 74 77 61 54 55 56 61 55 56 59 54 53 55 59 67 73 72 79 76 67 62 60 68 67
40 37 36 39 38 37 37 45 50 58 56 65 52 59 68 71 63 66 64 64 67 70 72 64 60 54 55 61 60 58 60 65 65 65 69 68 70 69 61 63 65 66 67 74
37 38 36 38 41 40 45 51 70 64 75 76 58 60 57 52 56 57 60 63 68 72 74 71 59 59 64 61 60 59 60 60 62 63 64 65 63 56 59 63 71 72 75 77
49 52 38 32 40 42 47 51 71 65 84 68 55 68 57 49 48 52 56 62 68 71 68 68 72 69 67 63 57 54 54 55 58 62 63 64 65 72 74 76 77 75 81 82
51 48 36 35 38 41 48 54 50 73 76 74 72 58 54 61 60 58 58 63 75 74 75 71 68 64 65 68 67 58 57 58 62 66 72 74 73 70 74 75 80 86 85 79
47 44 43 35 40 39 42 42 52 71 64 72 71 69 71 64 63 61 68 69 74 72 71 66 60 60 62 63 69 62 52 49 51 55 64 59 61 64 71 80 80 83 87 80
48 47 45 44 46 49 46 50 62 63 75 74 86 72 58 57 59 60 69 73 72 74 69 63 60 57 52 48 47 44 45 43 48 53 57 60 65 68 72 77 82 87 80 77
57 60 73 47 44 48 46 51 48 63 56 89 88 61 55 58 54 65 73 71 74 69 64 60 57 49 41 42 41 44 42 41 47 52 58 62 66 68 72 76 78 79 75 73
49 64 77 56 44 43 49 58 59 63 79 78 83 61 61 68 71 71 77 76 74 72 67 65 59 45 42 44 47 43 42 42 45 48 56 65 71 75 75 72 69 72 73 74
60 64 56 62 54 55 52 56 56 53 76 70 75 52 71 75 77 82 81 78 75 70 65 64 58 44 44 44 44 45 47 50 50 50 58 68 74 79 81 81 78 77 79 87
55 61 68 73 68 59 50 46 60 54 55 59 57 56 48 69 77 81 78 77 74 70 64 63 57 47 40 43 47 45 48 51 52 54 56 67 76 78 80 85 87 88 87 80
70 75 76 80 77 72 60 50 52 60 57 63 68 62 72 80 83 83 78 76 74 68 60 55 51 38 39 42 45 43 46 50 54 57 60 69 76 80 84 88 90 93 87 85
77 90 63 52 81 67 56 52 53 55 56 57 73 57 83 86 81 80 82 76 73 63 53 52 45 38 35 42 44 45 46 50 54 60 61 71 79 83 85 88 92 94 91 78
96 90 83 80 74 53 42 51 55 56 64 69 73 76 76 80 83 77 76 74 74 60 51 54 54 42 35 42 44 47 46 49 55 59 63 75 80 82 86 91 92 92 92 92
75 89 96 74 79 50 36 69 70 64 55 75 72 81 80 83 78 78 73 71 69 64 58 56 51 34 34 39 42 45 49 52 55 59 65 72 80 84 89 93 93 93 94 84
83 85 76 92 62 50 44 54 59 55 74 76 75 80 84 80 94 71 73 71 65 59 47 36 34 36 38 41 48 51 55 59 62 64 66 73 80 85 91 91 92 92 73 71
99 98 82 99 81 67 49 59 56 69 62 85 75 77 87 85 80 72 77 71 63 45 36 42 42 44 46 50 55 59 64 66 63 66 70 75 78 82 84 83 82 70 79 77
93 95 99 96 92 60 54 59 65 66 75 81 82 82 78 80 75 79 78 58 40 40 40 42 46 48 54 57 63 68 72 66 71 74 76 78 80 76 68 79 70 76 83 80
77 70 80 70 72 56 57 66 63 68 66 82 83 84 76 84 80 80 57 42 42 38 40 45 47 52 54 60 67 75 75 78 81 86 84 81 80 74 76 79 74 80 83 92
78 70 85 75 58 65 64 60 68 74 74 81 84 85 82 83 82 63 50 45 44 42 44 48 52 54 62 67 70 80 80 83 91 91 85 85 82 78 80 69 67 75 96 96
80 75 76 82 71 73 68 76 71 80 85 87 87 84 81 79 61 46 45 48 45 46 51 53 56 64 69 73 79 84 83 90 94 94 94 94 90 89 79 68 71 79 73 80
80 74 85 81 58 60 60 59 82 85 87 89 85 85 66 61 46 47 50 52 52 55 56 56 62 72 76 83 90 89 90 93 96 94 78 89 90 97 93 72 77 73 74 73

GFSCGP_sfc_rhum_009.txt.gz
RH
24 22 22 20 18 15 17 17 19 25 39 48 58 55 56 57 54 58 58 56 58 62 64 66 75 80 81 80 78 78 78 79 76 66 64 64 61 65 64 42 49 49 48 47
24 28 22 26 27 23 24 28 36 41 42 45 48 56 54 53 59 58 57 58 57 60 59 62 69 73 72 73 75 76 69 61 53 52 55 60 66 54 44 44 50 49 51 46
30 24 28 28 30 33 32 31 37 39 44 42 43 49 57 54 56 57 57 56 56 54 56 57 64 70 73 65 64 59 55 54 52 57 55 53 54 53 46 42 41 44 46 40
32 30 29 29 31 30 35 31 41 47 40 40 37 35 54 57 59 57 56 56 56 49 45 44 46 48 50 52 52 48 48 45 47 51 47 52 45 46 52 44 42 42 49 47
34 33 30 33 32 34 36 40 37 34 34 36 41 37 46 54 61 56 54 54 51 46 42 42 42 41 42 48 50 51 50 48 50 52 54 49 53 52 45 46 50 52 52 53
33 28 29 29 35 34 40 39 41 44 40 47 40 37 42 55 52 53 51 53 51 47 46 46 47 44 46 49 55 52 46 46 49 51 54 56 54 49 46 50 52 51 51 51
33 32 28 32 33 33 36 40 50 50 58 50 47 46 37 39 44 45 49 48 51 51 52 51 46 46 48 51 51 46 43 46 48 51 50 52 52 54 55 55 52 55 49 47
35 40 28 29 31 34 38 39 57 62 64 46 47 52 35 40 37 40 41 45 52 53 56 50 49 48 46 47 46 46 45 46 48 50 49 47 42 36 34 39 40 40 43 46
45 38 28 32 30 31 36 40 41 60 61 56 46 43 37 46 43 47 50 51 53 54 55 52 52 51 49 45 51 48 36 33 35 39 39 42 40 41 40 44 43 41 51 55
42 40 35 31 32 35 33 37 43 51 60 54 44 52 42 53 47 48 53 52 56 56 56 54 48 52 51 50 43 41 32 31 35 35 38 38 40 41 44 45 46 49 53 62
36 44 42 36 37 37 38 42 53 48 56 47 52 37 44 46 44 48 47 53 57 58 55 48 46 46 51 40 34 34 33 30 32 33 40 42 41 45 46 46 48 50 57 59
44 55 58 36 35 38 35 39 42 52 49 66 66 40 43 48 43 49 51 57 57 56 48 44 42 40 37 34 32 36 32 30 32 36 40 41 45 47 48 49 50 56 56 58
46 56 62 43 33 35 37 44 46 54 66 68 84 38 45 55 52 48 52 59 60 54 49 45 39 33 32 34 36 32 34 31 32 32 34 40 46 50 50 51 55 57 59 57
58 53 52 51 40 43 45 50 44 42 59 56 60 38 36 49 56 61 61 60 56 52 51 46 42 33 32 34 34 38 40 38 35 33 34 43 50 51 54 56 58 61 64 66
50 56 54 59 58 49 38 46 47 40 44 52 43 44 34 40 50 59 62 60 57 54 52 50 46 35 33 39 39 38 37 38 39 38 38 43 50 54 55 59 60 63 70 69
61 67 64 68 64 59 51 42 44 51 50 44 48 47 38 54 57 66 64 61 59 56 52 48 45 36 35 34 39 37 37 38 40 41 44 45 52 55 57 59 65 66 68 70
66 81 60 57 65 54 60 51 45 48 45 45 56 39 59 65 64 62 64 60 59 57 52 48 48 40 34 34 40 36 35 37 39 43 44 47 52 57 59 59 57 62 66 68
82 72 69 74 74 61 35 44 41 42 43 43 49 51 55 57 64 60 57 60 61 57 50 49 45 40 36 32 33 37 34 36 40 41 43 47 51 56 58 59 57 65 65 66
63 76 81 80 61 45 31 42 57 58 40 48 48 53 65 69 64 62 59 58 58 56 49 43 41 42 32 29 33 33 36 40 42 42 45 46 52 57 59 57 61 60 62 63
69 77 72 77 68 61 42 34 53 44 55 46 56 65 74 64 79 51 60 60 61 54 47 43 35 28 29 33 38 42 42 44 43 51 52 52 53 58 58 59 59 60 58 46
98 94 81 81 80 61 41 46 47 57 51 62 63 65 72 69 63 55 62 65 55 47 33 37 32 33 36 42 44 44 47 47 51 55 54 53 55 58 58 58 54 52 50 56
76 86 88 86 78 66 45 50 65 60 60 60 67 65 72 62 64 62 65 54 42 34 34 34 38 41 45 44 46 46 48 52 55 57 60 62 59 58 57 58 55 51 54 62
72 70 74 65 67 53 48 62 56 57 56 57 67 63 64 71 64 67 57 41 36 34 33 34 36 42 43 44 49 49 53 60 63 65 65 64 65 60 56 58 56 52 56 63
70 63 74 74 52 56 54 51 53 52 56 56 62 61 70 68 68 62 44 39 36 35 35 37 39 39 44 49 54 59 65 65 69 69 71 72 70 70 58 55 50 52 63 64
72 68 71 72 63 60 54 58 57 57 67 70 69 71 71 69 68 50 42 44 42 53 61 40 43 46 48 55 60 65 66 70 73 75 67 71 75 74 74 66 53 57 52 58
72 70 80 80 52 54 52 47 58 66 67 69 75 77 70 62 55 44 46 49 72 69 46 45 48 52 57 63 67 68 69 76 80 78 70 76 78 76 78 81 65 73 74 75

GFSCGP_sfc_rhum_012.txt.gz
RH
19 16 15 13 11 10 10 11 11 15 26 22 23 22 26 33 36 38 35 35 36 38 44 49 56 57 58 60 61 68 73 70 61 53 49 44 43 43 40 34 39 38 36 35
20 17 17 17 14 13 12 12 17 24 28 25 24 28 30 30 36 36 36 37 38 43 44 52 55 57 58 60 61 61 60 58 49 43 38 38 43 39 34 35 38 35 35 31
15 19 21 18 17 16 18 16 23 18 27 25 23 28 31 37 36 38 38 36 39 41 48 54 56 58 57 56 55 47 43 41 40 43 41 42 42 39 35 32 30 35 37 33
21 21 20 18 20 21 22 21 21 27 22 20 24 19 31 35 40 40 42 42 43 45 45 43 44 45 42 44 43 40 40 39 39 36 36 41 34 34 37 34 34 32 42 42
26 22 21 20 23 24 25 25 25 24 21 24 25 22 31 36 39 42 43 43 42 40 37 35 33 34 34 40 40 39 36 36 38 39 40 37 40 36 34 36 42 41 40 40
24 21 21 23 26 24 26 26 26 25 24 33 22 23 19 33 31 37 40 39 39 36 32 29 30 32 34 38 42 42 38 37 38 39 42 45 44 41 38 39 36 30 27 25
23 23 21 23 26 27 25 25 30 30 38 36 32 29 20 22 28 31 39 35 36 35 33 34 34 32 36 42 42 38 36 37 39 40 39 40 39 34 28 27 24 26 22 23
20 31 22 23 24 23 26 24 29 37 42 23 33 27 17 26 24 28 32 30 32 34 35 33 33 35 38 40 38 38 36 35 34 32 28 27 26 22 21 25 27 26 27 28
25 26 22 26 24 22 28 30 28 41 47 42 23 25 24 29 28 29 31 30 32 33 36 36 37 37 38 39 42 36 29 25 26 27 30 31 28 31 31 33 33 29 32 28
28 31 26 26 24 26 24 24 34 36 50 40 22 28 20 33 33 31 31 33 32 32 36 39 38 40 37 37 34 33 25 25 26 28 28 27 29 31 33 34 35 35 36 36
23 27 33 30 27 25 29 27 29 27 40 29 27 16 26 29 30 34 32 32 32 36 39 40 38 38 37 33 30 28 26 28 30 24 28 31 32 32 33 34 35 36 40 37
29 32 45 29 28 28 25 24 22 30 34 46 53 22 25 31 30 29 30 31 32 37 39 37 36 38 37 32 27 28 28 27 24 25 29 30 31 32 34 36 35 40 41 42
32 37 44 35 31 28 28 27 24 33 45 44 68 22 25 30 32 30 30 30 36 40 39 36 35 35 32 29 28 28 31 31 24 21 22 26 29 33 36 37 39 39 41 44
46 37 37 40 27 27 36 31 26 22 39 30 35 16 19 22 27 29 33 33 37 42 39 36 33 31 28 26 28 30 40 30 24 21 22 26 33 34 37 39 40 41 42 46
37 41 37 34 36 32 28 28 28 26 26 34 18 20 13 17 20 23 32 37 39 42 39 37 35 31 27 26 30 40 30 29 28 26 24 28 34 35 37 41 40 43 47 45
44 50 48 50 42 37 37 26 26 26 24 27 20 23 16 20 25 31 38 40 41 42 39 37 36 31 28 26 36 29 30 29 28 28 29 30 34 36 41 40 44 44 42 43
51 63 49 42 48 46 74 41 26 26 25 28 31 22 26 32 33 32 36 40 41 40 38 38 36 33 28 27 29 31 27 28 29 29 29 31 36 39 39 37 38 39 42 45
64 54 59 68 70 83 21 27 26 25 23 21 22 26 26 26 31 34 32 37 40 38 38 38 35 33 29 26 27 28 25 26 28 29 32 32 33 35 35 37 40 42 43 44
42 53 75 92 46 31 15 22 28 35 21 20 22 21 29 41 43 38 38 37 38 39 38 37 34 32 30 28 26 25 25 26 30 31 27 29 37 36 35 38 44 44 44 43
47 55 55 72 89 89 29 26 38 34 32 29 31 33 41 45 58 22 37 39 41 38 38 36 31 31 27 25 26 26 28 32 28 31 34 34 33 34 38 42 46 46 45 43
80 84 87 70 92 46 27 30 36 41 35 34 38 38 44 46 35 38 39 40 41 40 39 33 29 26 25 27 29 32 31 26 30 36 35 34 36 40 42 43 44 45 44 43
58 74 91 77 96 79 29 40 52 42 42 39 41 40 47 41 46 44 46 46 44 40 33 27 28 31 39 37 32 24 24 30 37 39 40 40 44 45 41 48 48 46 45 47
55 51 54 47 44 35 33 37 36 41 44 40 42 35 44 44 45 45 45 43 40 32 26 29 37 45 41 30 28 26 28 40 43 45 46 46 50 48 47 49 49 48 43 51
50 46 58 56 33 33 32 31 32 33 38 35 33 38 40 46 42 46 44 38 35 27 29 30 46 43 32 34 34 35 40 45 48 51 51 52 54 61 56 50 46 47 51 55
50 50 50 50 38 35 33 35 36 35 39 43 42 48 50 51 49 48 42 36 30 46 58 59 51 34 32 37 39 42 46 47 51 56 55 52 56 60 60 62 63 59 48 50
48 45 60 58 29 39 35 36 43 46 46 50 53 53 53 55 54 46 38 40 71 74 66 54 46 44 43 45 51 52 50 55 63 65 58 56 60 59 59 61 65 78 72 74

GFSCGP_sfc_rhum_015.txt.gz
RH
18 17 18 14 13 10 10 9 8 8 10 9 9 13 13 18 18 20 21 24 27 29 32 36 39 41 38 41 44 69 71 77 65 55 51 46 42 40 39 33 36 36 34 32
18 24 13 10 10 9 9 10 12 12 12 16 11 13 14 18 19 20 21 22 24 28 35 40 43 46 47 49 50 71 63 62 50 40 37 36 37 38 32 33 37 34 36 32
23 15 13 13 10 11 11 10 16 14 15 14 13 17 21 19 19 24 22 22 23 30 36 43 46 48 51 54 56 55 49 45 38 36 38 39 40 37 33 33 31 36 38 35
29 15 14 12 12 12 18 14 13 14 19 19 13 18 19 23 25 26 27 27 29 30 35 41 45 48 47 48 44 40 37 36 38 35 32 34 32 34 37 34 34 35 36 38
21 17 15 14 17 17 26 17 17 16 16 19 16 16 42 23 23 26 27 28 30 34 38 38 37 36 36 39 39 38 34 31 33 35 37 36 38 35 34 35 37 35 30 26
29 15 15 16 19 17 19 20 20 18 17 30 16 17 20 23 20 24 28 31 34 35 33 29 30 31 34 36 39 38 34 34 36 38 41 43 41 36 32 30 25 22 21 21
17 16 18 17 20 19 17 21 27 25 30 32 18 19 17 14 18 19 28 31 33 33 29 27 28 28 33 39 41 38 35 36 38 38 36 35 31 28 26 25 23 26 24 24
19 29 18 17 18 18 20 18 28 31 31 18 20 21 14 17 15 17 23 28 32 31 28 26 28 30 34 39 38 35 34 35 33 30 27 26 25 30 23 26 27 26 26 27
19 22 18 19 18 16 18 26 18 28 31 34 18 12 14 20 20 20 25 28 31 29 27 28 28 31 35 37 38 38 33 28 26 28 29 32 36 32 29 30 31 28 30 26
17 23 18 22 20 21 22 17 27 24 37 36 16 17 13 23 23 23 26 29 29 27 27 28 30 34 35 35 36 35 28 25 29 29 32 34 31 29 30 31 32 32 33 33
15 20 27 24 24 18 24 22 21 23 32 35 26 17 15 15 20 23 24 26 28 28 28 30 32 34 34 36 34 31 26 29 28 27 29 32 30 30 30 31 32 33 35 34
16 23 39 25 21 20 21 21 21 36 29 33 44 23 15 18 19 21 22 23 25 26 26 30 33 35 35 35 31 29 30 29 27 26 29 29 29 28 29 31 31 34 35 35
25 27 40 31 26 22 21 18 19 19 36 31 56 24 15 18 19 19 21 23 25 26 27 30 33 35 35 33 31 29 30 27 26 28 23 25 26 29 30 32 33 34 34 35
42 25 30 38 26 21 30 20 18 22 36 32 28 16 13 15 17 16 20 20 23 26 29 31 33 34 35 32 29 29 31 32 31 19 20 22 27 30 31 32 34 35 35 38
32 37 27 24 24 22 20 19 19 20 20 30 20 11 9 10 12 13 15 20 21 27 31 33 33 33 32 31 29 28 34 37 25 22 21 25 28 30 30 31 34 35 40 36
35 42 40 46 27 26 26 20 16 17 18 15 14 15 10 13 12 16 17 22 24 27 31 32 32 30 31 29 27 29 36 31 27 27 28 26 28 30 31 34 38 37 37 35
42 56 50 38 39 38 64 40 23 18 16 18 25 17 14 19 19 19 19 23 26 27 30 32 32 31 30 28 28 33 29 27 27 27 26 27 30 30 33 31 29 32 36 37
60 51 52 53 69 82 19 17 16 20 16 14 14 15 14 18 21 21 20 22 27 28 29 30 30 32 30 28 26 30 25 25 27 26 26 28 27 26 27 29 29 33 37 39
33 48 60 90 41 25 18 13 20 23 19 13 18 14 14 22 29 26 24 25 25 27 28 28 29 30 31 28 25 27 26 24 25 30 28 22 26 28 28 29 32 36 40 40
38 51 51 56 86 89 32 23 26 25 25 19 19 20 21 28 46 22 26 25 26 25 27 29 30 31 30 27 25 27 25 33 28 26 24 26 25 26 28 31 36 38 40 40
69 76 80 64 82 48 21 21 26 35 38 27 28 23 26 31 27 33 33 28 26 27 28 30 32 31 29 25 27 35 32 32 23 27 29 27 27 30 34 37 38 40 43 44
55 68 86 69 96 78 21 28 41 42 30 31 28 28 37 35 33 32 34 33 31 31 32 34 33 30 27 31 37 40 39 27 31 32 33 32 33 37 37 44 44 44 44 49
50 41 51 40 43 31 24 25 24 29 34 32 33 31 31 33 33 31 33 35 34 34 31 29 28 36 44 49 45 37 36 34 34 37 40 40 42 44 44 48 50 48 43 49
36 34 47 45 23 23 23 22 24 26 30 28 28 31 33 38 38 38 36 37 34 28 25 27 44 57 58 57 48 34 42 45 45 46 52 52 51 50 52 51 48 47 50 55
39 38 36 38 27 23 24 25 29 30 34 36 35 38 44 46 42 40 41 36 30 29 51 60 71 74 59 42 39 41 45 48 54 60 57 55 63 60 51 47 52 60 56 61
36 30 54 52 35 38 32 34 40 42 46 49 48 46 42 43 44 41 36 37 56 69 76 82 74 52 44 45 46 49 50 55 63 68 65 64 61 60 52 54 58 70 80 80

GFSCGP_sfc_rhum_018.txt.gz
RH
19 22 22 22 18 14 14 14 14 10 10 11 10 14 16 16 18 24 27 29 32 33 31 35 41 43 45 51 60 77 83 87 73 72 68 68 67 61 60 50 52 53 48 48
17 21 17 16 15 15 12 13 12 10 8 10 9 12 12 16 17 21 22 28 30 31 36 39 44 48 50 55 68 77 80 84 68 62 58 57 57 60 52 54 53 53 54 49
31 32 27 13 16 13 12 15 17 13 11 8 22 13 13 13 16 16 18 19 22 29 38 42 46 53 58 80 75 70 71 75 66 55 50 54 54 57 54 54 54 54 53 48
22 24 18 14 11 10 19 19 16 15 20 21 20 26 20 28 17 17 20 22 24 27 34 41 47 61 68 70 68 61 60 53 49 51 53 58 52 54 56 56 57 52 49 48
24 32 17 15 22 18 23 23 19 15 15 34 38 31 37 38 38 22 25 26 27 31 35 42 45 54 54 57 60 55 49 46 47 48 55 56 57 57 56 56 53 47 44 41
26 20 18 22 18 16 20 22 19 15 18 58 38 42 33 42 38 30 22 26 29 32 39 42 45 45 46 50 56 55 44 43 48 53 57 62 59 52 47 46 45 41 42 43
20 16 12 15 14 16 15 18 30 59 57 46 18 28 44 29 33 62 54 27 33 40 42 41 41 41 45 51 53 50 43 45 51 54 52 51 48 49 50 42 43 42 42 46
33 35 16 13 14 30 26 16 38 83 83 35 28 30 16 23 22 42 29 29 35 38 39 36 36 39 43 48 48 46 43 45 45 45 41 44 43 45 46 45 40 45 45 48
54 38 26 17 14 14 15 23 17 28 69 43 21 13 16 17 18 16 27 30 36 36 34 32 32 38 43 47 50 50 42 41 38 40 45 50 47 46 48 45 45 48 48 36
63 69 28 19 17 17 20 16 32 31 51 46 21 18 24 23 21 21 25 32 34 34 32 31 32 39 42 45 43 53 43 36 36 42 48 45 47 49 45 46 46 44 48 48
16 30 25 22 22 15 22 22 21 19 40 63 56 24 17 18 19 22 23 31 33 35 32 32 32 36 41 43 44 48 39 34 39 39 45 50 46 47 47 45 45 45 49 49
17 22 50 24 16 16 18 24 20 64 43 55 69 34 16 18 16 21 22 24 30 31 31 30 33 38 41 43 43 42 39 36 38 40 43 44 46 44 43 44 43 46 49 49
22 29 48 31 24 21 23 16 17 22 50 56 77 41 15 15 16 17 22 23 27 30 30 30 35 38 39 42 44 40 40 38 35 33 35 37 43 43 44 43 45 46 49 49
44 26 30 49 28 25 30 22 16 20 67 58 45 20 14 16 18 17 20 22 23 29 29 29 35 38 39 41 42 39 41 42 36 34 33 36 44 41 43 44 46 48 48 50
31 37 28 22 19 23 25 21 19 19 23 37 30 18 14 12 14 16 17 20 20 20 26 29 35 38 39 42 41 36 40 41 44 42 28 38 39 39 42 47 46 49 52 49
34 49 49 52 28 25 28 22 20 19 17 18 16 17 12 15 16 18 17 17 23 20 22 27 34 38 38 39 40 36 37 44 47 37 37 34 37 38 48 48 52 53 55 51
47 72 70 64 39 45 61 46 28 24 17 18 28 21 14 15 17 21 21 19 25 24 26 30 34 37 37 37 39 38 37 45 41 38 36 36 39 44 49 44 41 43 48 52
70 69 74 79 77 77 24 15 16 19 17 15 14 14 14 20 23 20 20 23 25 29 29 31 34 37 37 36 36 37 35 38 38 35 34 37 41 37 36 39 38 47 49 53
39 67 80 98 62 34 23 17 18 21 22 20 20 18 18 22 23 25 23 27 29 29 31 31 32 35 38 37 36 34 36 35 34 35 36 33 36 37 38 40 46 50 53 56
36 64 80 73 90 85 39 23 22 21 35 22 21 24 24 24 70 41 35 31 30 26 26 28 31 34 37 38 35 36 34 36 40 39 39 40 37 38 38 44 52 56 55 53
82 86 90 78 95 70 23 22 22 49 54 32 30 30 32 39 42 37 40 38 31 29 29 33 35 36 36 33 35 35 44 48 43 54 52 41 40 38 46 51 53 55 60 62
70 84 95 86 100 90 22 25 47 50 42 34 33 36 44 40 40 37 31 32 34 33 32 33 42 45 45 41 46 53 52 48 59 59 44 42 52 46 43 60 60 61 64 73
59 53 70 59 67 40 25 29 28 31 37 36 37 31 34 36 35 36 37 37 36 33 29 33 43 55 52 49 54 67 68 60 50 56 59 56 54 54 53 62 66 70 67 78
36 33 60 56 24 23 24 22 24 24 32 30 33 36 38 48 47 43 40 40 34 28 32 47 56 70 79 65 59 56 54 52 59 65 65 65 68 62 62 60 60 69 85 87
45 36 38 39 31 26 23 31 36 37 37 40 43 44 47 46 45 44 38 38 45 55 64 67 74 74 70 57 48 49 55 58 64 69 68 69 83 75 69 62 65 82 73 80
36 37 69 76 43 46 42 44 45 47 48 45 44 44 41 41 42 55 60 62 70 81 79 74 65 58 55 51 50 51 52 57 69 76 80 86 88 87 73 70 72 71 78 81

GFSCGP_sfc_rhum_021.txt.gz
RH
30 34 39 33 24 23 18 19 20 17 15 20 24 27 30 49 50 53 55 68 52 46 44 41 46 48 64 70 66 81 86 91 90 94 96 92 82 79 71 62 57 58 58 58
32 37 28 21 20 24 23 23 23 16 13 15 22 26 24 50 61 52 60 54 50 46 49 49 54 60 68 78 88 89 85 87 82 79 80 78 75 72 65 64 62 58 60 56
38 35 26 27 29 24 25 30 23 19 14 15 23 25 25 22 23 35 48 47 43 48 53 55 59 70 84 94 94 90 85 80 81 81 69 67 64 66 66 67 64 60 57 53
32 27 28 29 28 19 23 25 28 23 28 29 27 41 39 32 28 25 35 50 43 47 50 56 65 88 94 95 94 88 83 86 84 71 59 52 60 66 73 72 69 56 44 41
35 29 33 33 26 21 26 24 29 28 31 38 34 34 42 41 27 28 33 34 41 47 52 60 71 83 84 82 79 89 83 71 63 62 68 63 63 67 64 58 47 41 46 43
32 22 29 33 24 20 23 29 35 36 37 61 40 45 52 44 26 33 33 31 37 50 60 64 69 68 70 71 66 55 55 62 61 61 66 63 61 49 47 46 48 45 49 54
28 24 29 30 30 26 31 32 55 54 76 72 43 44 44 37 31 35 35 32 44 56 62 66 71 72 70 63 54 56 60 64 59 54 48 48 50 46 43 44 51 48 48 53
38 52 42 32 26 31 37 35 63 70 93 61 49 49 36 26 28 32 35 42 52 62 60 60 59 64 67 61 59 59 60 61 59 52 48 46 43 51 49 49 48 52 52 54
55 49 36 32 30 28 30 40 35 72 75 87 57 32 26 33 43 46 46 47 59 60 60 54 56 58 62 63 62 62 60 57 48 47 49 48 48 51 51 49 49 54 54 40
60 57 47 42 37 24 28 28 45 60 66 62 38 36 47 36 35 38 55 50 54 51 49 48 50 56 57 59 61 63 58 47 49 52 54 50 50 52 50 52 52 49 53 49
52 58 60 46 38 30 34 34 32 35 63 70 79 46 27 29 32 33 46 46 49 47 43 43 47 51 55 56 61 63 55 47 50 49 52 54 52 53 50 51 52 49 52 50
50 59 73 42 26 22 25 41 48 69 45 76 79 54 24 22 25 28 31 41 46 43 41 41 45 52 56 56 57 63 49 46 47 51 53 52 54 48 49 49 48 55 52 52
42 43 67 42 36 35 32 28 25 46 69 60 73 56 22 20 21 24 28 30 45 44 42 40 48 51 54 55 57 57 47 47 45 45 50 53 49 48 47 46 49 54 53 54
48 42 48 61 44 38 46 34 30 36 74 67 67 42 26 25 25 24 24 28 42 43 40 40 47 49 50 52 55 51 54 47 43 43 44 46 49 48 47 48 48 51 55 53
45 49 46 43 40 33 36 33 32 31 40 52 43 37 30 27 27 26 29 27 26 30 41 44 47 50 49 53 55 54 56 50 46 46 44 45 52 48 48 50 50 52 54 51
47 69 64 66 42 43 46 38 35 35 32 32 31 31 24 26 25 24 23 25 28 28 31 39 49 50 49 55 56 52 52 54 50 56 51 44 49 49 54 53 52 54 56 55
60 76 76 74 56 50 57 42 39 37 34 36 39 29 27 31 31 32 32 31 30 32 35 38 49 52 51 56 50 54 51 54 58 58 44 49 56 53 52 45 47 45 47 53
73 74 83 84 76 59 40 27 24 34 29 29 29 36 34 32 35 38 32 39 39 37 36 37 42 48 53 57 55 54 51 56 53 44 48 52 52 47 46 45 46 53 56 56
71 82 89 78 84 53 35 34 38 35 38 33 35 34 33 33 45 53 46 44 40 37 37 37 39 45 50 51 53 50 52 46 42 45 51 55 54 52 54 56 61 61 61 61
52 75 78 87 84 73 57 35 31 30 58 43 40 42 42 40 78 68 48 45 45 43 44 43 44 43 47 51 41 41 46 58 68 66 59 56 55 57 59 63 67 64 61 60
90 87 85 96 93 80 49 31 33 48 57 48 43 48 51 61 65 50 51 46 44 46 47 52 53 54 57 51 52 54 62 75 69 68 64 61 58 64 66 64 62 64 66 68
81 94 96 97 99 89 39 35 44 64 52 47 47 50 49 50 50 51 51 47 42 47 54 55 60 64 64 62 69 77 78 66 64 68 66 68 70 65 54 65 69 70 75 83
78 78 86 78 83 63 38 39 48 41 43 45 48 54 54 66 63 58 49 41 44 58 60 69 76 74 72 68 71 76 72 67 72 75 70 73 70 66 63 69 71 77 83 94
56 48 78 60 43 42 35 34 44 51 55 59 61 61 61 63 52 46 49 62 61 64 71 72 73 71 72 66 62 60 60 63 69 75 78 77 78 78 76 71 74 81 94 96
69 50 54 58 47 56 62 61 60 60 59 52 52 56 52 51 52 58 67 73 74 72 74 74 77 77 70 61 61 60 67 69 73 77 80 83 90 86 85 82 84 89 83 86
56 58 76 85 60 70 72 62 58 60 61 58 66 74 72 69 75 77 81 81 87 89 80 73 72 68 63 61 63 63 62 66 75 82 92 93 94 94 91 90 89 81 82 80

GFSCGP_sfc_rhum_024.txt.gz
RH
38 36 41 34 32 27 24 28 24 22 19 24 28 57 55 56 52 49 56 59 58 47 44 51 64 66 67 81 76 86 90 94 87 93 96 97 91 89 82 70 64 65 66 64
38 42 32 28 28 31 35 28 28 23 18 19 32 51 58 54 44 42 55 62 60 57 48 49 57 66 72 79 80 88 86 91 79 76 96 90 84 76 70 69 67 64 64 61
37 30 29 29 27 35 34 30 32 28 16 21 24 32 64 53 54 49 52 50 47 47 49 59 61 70 76 80 92 91 91 88 85 78 89 80 74 74 71 72 69 66 64 56
34 32 32 35 35 33 36 24 28 26 28 26 32 40 38 41 51 51 49 57 46 54 49 60 77 84 82 88 96 91 88 83 87 88 78 70 63 62 73 74 74 57 47 51
33 37 35 34 32 29 28 30 29 31 34 41 35 36 34 39 35 49 51 51 48 47 52 66 92 89 90 96 94 93 92 94 92 76 69 66 71 77 79 71 50 49 52 54
32 30 29 30 30 26 25 31 38 47 47 64 52 43 42 44 28 28 39 47 48 51 62 74 89 90 95 94 95 97 92 79 77 74 73 71 66 61 55 54 53 55 60 60
33 33 31 33 33 30 30 37 50 50 73 66 49 50 42 35 35 31 33 40 43 56 73 81 90 94 94 95 91 70 62 66 66 66 67 56 48 45 44 48 54 55 53 54
42 49 41 38 35 40 38 37 59 52 80 57 56 60 40 30 30 35 36 48 68 72 72 80 84 85 85 78 66 63 54 57 52 51 51 49 49 52 51 50 52 56 56 56
55 50 45 42 38 37 41 42 40 72 83 82 65 46 32 39 45 41 52 56 76 82 81 78 77 73 73 66 73 65 54 49 45 49 49 49 52 53 54 51 53 57 54 48
48 53 49 42 35 39 40 30 47 64 73 77 46 43 48 43 42 47 57 54 72 74 71 70 67 67 59 59 63 67 56 47 48 52 52 49 50 50 53 54 54 54 52 51
53 47 55 48 44 41 41 38 39 46 63 64 74 48 30 38 38 35 48 54 65 65 63 64 63 61 58 59 63 63 54 47 46 46 54 54 52 53 53 54 54 56 53 52
49 59 82 55 34 36 39 37 43 67 45 81 82 52 31 29 32 39 49 50 59 57 56 55 58 61 63 62 65 62 54 46 43 48 54 52 52 54 52 54 52 59 54 56
46 53 67 49 34 42 34 32 41 52 70 63 73 54 28 27 23 29 39 54 54 54 52 51 56 60 62 60 62 62 54 47 45 47 50 52 55 55 53 55 58 61 57 60
52 47 46 56 39 41 48 41 38 46 75 65 67 42 32 29 27 25 29 45 56 53 50 48 52 56 58 58 59 64 55 51 47 46 48 52 55 54 58 58 60 62 62 63
47 48 47 42 46 44 42 41 40 39 43 53 43 44 30 27 26 29 29 31 48 55 52 51 54 57 60 64 66 62 58 56 51 48 48 54 56 61 61 61 60 62 64 57
54 57 70 65 51 48 48 40 42 40 39 42 37 38 31 31 30 32 32 31 33 36 42 46 54 60 61 62 66 67 63 56 53 51 49 50 65 60 60 57 58 59 59 55
62 76 75 68 61 54 68 48 39 38 38 38 46 39 40 41 38 38 40 36 39 44 49 59 60 58 57 64 66 67 65 58 52 52 53 62 58 56 59 56 54 53 55 58
72 75 83 83 70 70 48 35 34 39 39 40 39 39 46 51 56 51 47 46 44 43 42 46 59 62 62 66 63 64 60 60 61 54 56 56 55 58 57 62 65 68 68 64
67 84 91 74 78 58 39 35 34 38 49 43 42 40 45 52 55 56 51 54 56 57 56 56 56 61 65 67 64 62 59 51 54 61 57 57 64 64 69 73 75 77 69 67
73 82 83 95 78 67 53 41 35 36 64 46 46 48 44 47 86 70 54 57 52 54 54 56 58 54 51 54 58 67 71 70 72 67 63 63 66 73 80 84 81 72 68 65
88 90 82 97 84 72 50 41 35 43 48 48 52 56 58 64 69 60 59 56 57 58 59 62 64 67 67 68 69 72 73 74 65 67 76 84 83 84 85 78 69 67 74 79
73 90 94 96 94 68 51 38 42 51 60 52 51 53 70 70 70 59 53 57 59 62 68 68 72 75 72 67 65 70 76 77 82 82 82 86 84 72 62 71 75 74 77 84
64 72 82 75 77 58 46 47 55 52 50 52 62 68 70 71 59 51 59 65 67 75 76 72 72 74 71 71 68 73 73 74 84 83 77 78 75 77 76 80 81 82 83 94
64 65 80 69 55 60 58 65 62 63 71 69 68 69 64 58 58 66 68 70 74 78 78 74 69 70 72 66 64 70 70 72 76 78 80 83 87 85 86 86 83 88 94 95
69 56 62 64 77 68 73 73 67 62 65 67 64 60 59 65 72 74 76 78 81 84 85 84 82 76 70 67 67 67 71 72 75 78 83 86 94 90 92 90 91 92 90 90
61 60 74 75 58 71 77 72 68 67 72 71 74 78 75 73 79 81 89 87 87 87 81 78 75 73 70 68 67 66 66 70 76 81 89 93 95 95 94 94 91 86 87 86

GFSCGP_sfc_rhum_027.txt.gz
RH
38 38 42 38 36 35 33 36 35 28 22 42 45 38 57 62 67 71 71 68 66 78 69 70 72 80 88 91 91 92 94 94 89 94 96 98 96 95 88 78 68 72 72 70
42 46 34 33 34 36 33 37 35 28 23 26 36 47 68 64 61 62 61 68 55 67 64 71 78 84 85 84 89 93 90 93 84 82 96 94 91 88 76 74 72 71 70 68
40 31 32 32 29 34 38 39 35 33 22 29 35 42 66 58 56 54 50 57 53 55 58 62 75 82 82 84 89 91 90 90 84 88 94 90 80 75 74 75 75 72 70 64
36 32 35 37 37 36 41 32 30 32 28 30 28 36 41 62 58 54 51 58 60 51 50 54 68 79 80 84 90 90 90 91 88 88 88 82 85 69 76 76 78 56 58 58
34 35 36 36 33 32 33 31 33 38 37 42 44 41 39 57 60 53 45 49 60 57 48 54 60 72 77 89 94 95 94 94 90 92 94 92 88 81 81 77 58 57 62 57
34 33 33 31 33 31 29 37 41 51 49 60 54 46 44 51 42 42 41 41 51 57 64 78 86 83 85 93 97 98 95 95 96 88 93 89 78 79 69 60 59 65 64 64
37 36 35 37 36 35 34 40 48 48 68 62 52 55 44 31 34 36 38 38 48 57 70 94 98 96 96 97 98 97 97 93 91 82 88 80 72 67 58 52 58 62 62 61
42 48 40 41 36 41 47 40 58 48 72 53 60 64 46 36 33 35 34 40 50 65 65 89 92 95 95 95 97 95 90 84 80 78 74 62 58 60 50 49 58 59 56 58
56 46 48 42 39 36 43 46 43 75 86 82 60 51 30 37 43 56 57 69 73 83 82 86 93 94 97 97 94 85 72 64 65 65 55 54 53 49 52 54 52 55 58 53
44 45 50 44 44 42 40 38 52 68 68 70 58 49 44 40 39 56 61 66 80 89 91 92 91 91 90 85 80 71 59 54 55 52 51 47 47 49 52 54 52 52 55 55
51 40 45 51 47 40 43 42 45 49 66 64 74 54 35 35 38 36 44 57 77 88 88 85 82 81 78 75 74 66 57 50 50 49 53 58 57 58 53 49 52 53 54 56
47 52 70 42 42 39 45 45 44 68 48 84 83 57 32 30 34 39 36 50 63 79 79 78 78 75 68 69 69 65 56 50 46 56 63 55 53 56 56 55 54 58 54 60
49 59 72 50 42 43 45 40 48 56 71 66 75 53 30 33 29 27 39 38 60 74 76 77 79 73 67 64 65 64 62 57 52 54 50 55 54 57 56 57 60 66 64 64
49 52 52 61 46 44 53 44 45 50 78 66 69 43 32 30 32 29 28 38 63 70 67 69 73 74 70 64 69 76 78 68 59 56 52 57 61 52 52 55 64 68 66 67
48 50 47 43 38 45 41 41 44 44 48 56 46 51 38 36 30 30 32 38 55 67 65 62 66 71 71 83 82 82 75 69 64 59 55 60 61 54 56 62 66 70 69 66
57 56 62 66 54 52 49 42 43 45 43 46 44 42 37 37 42 42 35 39 45 56 60 57 57 67 69 76 81 72 70 67 60 58 57 53 64 64 67 65 68 70 65 58
60 73 73 62 67 62 68 53 45 41 38 40 47 39 42 48 44 50 47 46 50 54 59 59 64 64 68 74 74 73 68 66 63 67 67 68 67 64 64 59 58 62 64 67
73 72 81 80 73 76 49 44 39 43 45 44 44 47 53 57 62 58 53 52 51 53 57 59 63 71 71 76 79 78 71 71 70 70 64 61 60 62 64 66 71 73 78 84
68 83 87 77 81 59 46 40 43 43 48 48 52 57 59 60 61 60 59 59 60 60 61 64 62 62 68 72 71 62 63 63 63 66 66 64 66 67 73 78 86 90 92 75
69 84 82 90 74 72 57 44 36 41 64 46 48 55 60 56 80 73 63 60 64 65 67 66 66 72 74 73 67 68 70 69 71 70 69 72 77 81 86 91 93 91 75 71
89 93 87 97 83 68 47 42 32 48 51 53 52 54 57 60 66 69 67 67 65 69 70 72 75 79 75 71 70 73 72 76 77 83 87 90 91 93 92 91 86 78 74 81
77 90 93 94 84 65 48 48 42 51 65 58 61 60 70 78 69 67 66 66 72 74 73 73 79 83 79 72 70 78 83 85 86 86 86 91 93 88 82 82 81 81 85 87
64 72 81 72 73 56 54 47 48 59 56 57 58 72 71 66 64 67 70 76 77 79 80 75 76 76 74 76 75 80 84 84 86 81 79 80 80 81 82 88 89 92 89 94
70 70 74 68 64 64 62 72 62 60 62 69 76 76 64 63 68 72 73 77 82 84 83 77 73 74 76 69 71 73 72 77 77 79 81 83 86 87 89 91 92 93 95 95
73 68 74 75 85 76 79 80 73 74 72 69 65 63 65 70 74 75 83 85 86 87 84 81 82 79 76 72 74 74 76 74 76 78 81 84 93 90 90 90 92 93 91 90
69 67 79 81 69 65 78 77 73 73 75 72 72 77 74 72 78 80 88 87 86 84 80 81 79 79 78 78 85 86 85 85 87 88 93 94 95 94 92 91 87 86 89 88

GFSCGP_sfc_rhum_030.txt.gz
RH
42 41 43 35 35 35 37 40 42 33 26 49 53 52 61 69 74 85 83 86 91 88 76 77 76 88 95 96 96 95 96 97 93 96 96 97 96 96 87 78 73 79 75 72
42 48 35 34 38 37 39 41 37 31 24 43 55 58 65 71 72 72 74 75 76 78 84 78 85 92 94 94 94 96 95 96 87 81 95 93 95 93 84 77 77 75 74 74
45 34 35 34 33 35 38 41 40 34 27 36 44 47 75 64 62 60 64 64 64 65 82 80 84 92 92 93 95 94 94 94 86 84 94 91 90 81 79 79 79 76 75 73
44 35 34 38 37 35 42 35 39 34 30 35 38 39 40 68 66 61 58 61 62 59 66 71 81 92 92 92 93 92 92 92 89 92 87 86 85 83 86 80 81 66 63 62
38 41 40 41 36 35 36 36 41 39 40 46 47 43 38 66 68 59 56 57 55 62 57 65 69 80 87 92 94 94 94 94 90 92 90 92 94 94 92 82 63 63 65 62
38 35 37 33 34 32 35 40 37 49 50 58 52 50 49 53 52 48 48 51 49 60 62 61 66 80 91 95 96 98 97 95 94 92 95 95 92 92 82 80 67 75 68 68
42 37 37 40 40 39 38 41 48 45 66 62 54 59 47 33 37 46 49 49 48 50 67 79 82 83 90 96 96 97 94 96 97 96 96 92 84 78 72 59 65 62 65 71
44 44 42 39 36 36 47 41 58 45 69 48 60 56 35 39 36 39 37 39 47 65 57 79 85 84 90 94 96 94 95 95 98 96 95 86 77 77 63 57 56 53 56 57
52 45 50 48 45 40 46 49 42 74 88 80 60 48 31 38 46 51 52 58 56 76 67 72 89 90 94 94 95 94 97 95 96 95 88 79 79 69 65 74 60 59 58 55
43 44 50 46 48 47 43 44 55 69 64 68 59 55 43 33 40 53 58 61 66 80 86 88 93 94 94 93 93 97 95 92 86 88 79 73 76 75 72 61 65 68 65 53
47 39 41 53 46 39 48 49 52 53 66 64 73 53 40 32 38 43 46 56 62 82 91 94 95 95 96 96 96 94 85 77 76 75 73 75 76 73 70 66 65 56 56 61
46 48 60 40 42 42 43 46 52 71 54 83 83 61 35 31 33 37 35 40 57 77 89 93 94 94 96 94 92 89 79 68 69 71 77 79 72 72 66 58 52 56 56 61
50 53 64 46 42 49 48 47 48 58 72 69 77 56 31 35 32 30 32 38 53 73 87 90 92 92 90 90 90 89 79 73 79 74 75 73 67 58 54 52 54 60 61 62
48 58 48 47 42 45 56 46 55 53 77 67 69 46 34 31 34 32 32 33 41 66 81 88 91 90 84 80 88 87 85 75 76 69 67 65 60 57 57 56 60 63 63 64
44 48 54 47 41 44 44 43 52 49 52 57 50 51 39 38 37 34 34 35 45 68 78 81 84 88 86 88 89 89 84 83 78 72 67 62 66 65 64 70 68 70 67 63
57 56 59 63 58 55 58 47 49 51 51 51 48 47 39 40 47 46 42 50 58 67 75 72 73 76 81 88 90 91 83 77 74 75 70 74 76 78 77 68 70 71 69 64
58 72 70 61 74 59 66 56 49 51 47 45 54 44 42 52 52 56 53 58 65 64 65 70 77 72 72 82 87 88 85 80 78 74 74 83 84 80 78 67 63 64 67 70
71 69 79 79 75 72 47 49 45 46 44 44 46 49 48 54 65 65 62 60 62 61 62 64 69 74 84 89 88 83 78 78 78 82 83 82 73 66 68 67 70 79 83 90
68 80 83 76 79 58 50 44 46 46 42 46 50 63 64 65 64 68 62 66 68 70 70 72 78 77 75 71 70 69 70 71 72 75 74 72 72 73 78 85 91 93 94 96
70 78 77 86 76 73 58 44 40 39 54 48 58 65 66 62 68 72 67 69 74 75 76 79 81 79 78 78 70 72 75 76 80 82 87 83 82 86 90 95 96 97 94 84
90 95 86 97 83 74 54 41 38 50 51 53 56 63 65 53 58 74 72 76 77 78 80 78 79 82 83 76 73 82 87 95 95 95 95 92 91 93 93 92 91 92 94 86
83 92 92 92 83 76 47 50 47 52 68 60 59 61 63 80 76 74 73 77 78 81 82 81 84 87 87 86 85 95 98 96 93 91 91 93 93 89 85 92 91 87 88 91
69 73 80 72 74 59 55 52 48 56 60 61 61 69 76 74 74 73 80 81 82 82 81 80 81 85 85 85 88 94 93 76 78 81 83 83 81 83 87 90 91 94 92 96
74 68 71 67 60 62 61 66 65 61 62 63 67 76 67 72 74 81 82 82 82 83 82 77 74 77 80 77 77 80 79 78 79 82 85 88 89 91 89 90 91 95 96 96
75 68 78 72 81 81 72 76 70 78 76 74 71 69 71 72 77 81 85 86 86 85 83 78 75 76 82 84 90 89 88 86 88 90 91 93 95 94 94 91 95 95 93 93
76 71 79 73 64 62 57 77 77 77 78 76 74 78 75 73 80 82 89 87 85 85 77 75 78 84 96 94 95 93 89 90 90 89 93 97 98 98 94 93 86 82 84 84

GFSCGP_sfc_rhum_033.txt.gz
RH
33 30 31 26 31 26 28 30 30 25 21 38 42 40 62 76 82 81 78 75 71 65 56 63 68 66 67 72 71 75 81 85 81 80 76 78 84 83 74 63 65 63 55 56
35 40 31 28 31 30 32 31 30 27 24 35 36 44 47 64 72 65 66 70 69 66 65 68 68 66 70 69 74 77 78 82 77 68 69 69 75 77 61 58 64 57 59 54
38 27 31 32 33 34 31 30 32 30 23 28 30 34 52 54 55 55 58 58 58 61 62 66 69 68 66 68 76 77 77 78 76 72 70 71 77 78 65 58 59 57 59 52
35 31 31 32 30 29 31 29 30 33 26 25 27 25 26 53 57 55 52 57 56 56 57 57 63 66 69 73 78 76 77 77 77 75 73 74 72 69 68 67 62 57 60 57
34 33 34 34 32 30 30 30 31 29 30 36 36 27 25 48 54 54 52 50 51 51 53 56 59 59 62 70 81 80 79 79 78 82 82 83 80 78 76 68 68 60 56 50
32 27 29 28 29 30 29 32 31 39 39 43 40 35 28 29 34 38 41 45 46 46 48 48 52 58 64 77 81 84 87 81 83 86 82 82 80 79 76 72 67 57 51 50
32 30 27 32 30 30 30 34 39 32 47 44 45 44 31 26 26 31 35 39 44 45 45 46 50 58 66 80 83 84 88 89 92 88 88 80 78 72 70 70 77 70 55 49
34 38 34 33 29 30 35 34 46 42 47 32 48 45 21 27 28 29 30 31 33 44 44 43 43 49 60 78 79 79 82 83 87 91 86 83 74 71 69 72 78 67 53 45
48 37 36 38 35 28 36 39 36 60 73 60 43 35 26 23 26 35 40 41 37 34 43 44 43 50 56 73 79 80 74 76 83 88 87 84 78 75 74 72 66 61 51 45
40 38 40 40 36 39 34 35 46 53 54 57 44 43 30 26 24 31 34 36 41 45 49 51 52 60 61 68 71 79 72 71 71 82 84 81 79 75 72 70 70 60 55 47
41 37 37 41 39 34 40 42 44 42 51 49 51 38 33 29 25 32 32 37 41 48 54 54 59 68 69 70 71 76 75 75 79 78 80 80 80 77 77 73 71 62 57 50
39 49 54 36 34 32 35 39 43 57 49 59 63 43 28 30 28 30 30 29 35 41 51 60 65 73 78 78 78 78 80 78 76 79 79 79 76 77 77 74 68 64 53 52
45 46 49 37 35 38 40 39 42 49 56 59 76 42 26 28 27 27 28 26 31 43 54 63 70 72 74 78 79 77 74 72 69 72 72 74 73 74 73 71 67 60 54 57
42 50 45 41 35 39 48 43 43 44 60 54 53 36 28 26 27 25 28 28 26 30 50 60 68 71 71 73 74 73 74 69 68 65 65 69 70 69 68 62 58 56 51 64
46 47 49 39 33 38 39 40 46 41 44 52 42 41 31 29 28 28 30 30 32 41 55 63 66 67 67 67 70 69 71 66 65 60 58 64 61 56 56 58 65 66 64 59
52 50 51 47 45 41 45 39 43 43 42 41 39 40 31 31 30 33 37 46 54 58 58 56 57 62 68 68 67 70 68 65 61 60 59 55 58 53 66 73 74 73 70 68
58 68 61 52 58 54 66 55 44 43 40 41 46 34 33 34 38 39 51 53 54 56 58 62 66 67 66 65 71 70 68 67 64 62 59 63 62 69 76 73 69 69 71 72
66 66 68 73 70 75 40 39 36 39 39 37 36 35 33 37 51 50 47 48 52 53 57 62 61 64 66 64 64 65 61 63 64 64 65 64 61 62 64 67 76 87 88 92
60 72 75 80 65 51 38 40 42 43 31 35 35 38 45 53 49 53 55 55 57 60 64 65 62 62 61 60 59 59 60 59 61 63 62 60 61 66 78 86 91 93 94 90
66 69 71 74 72 68 51 36 37 32 44 37 40 50 54 53 59 49 57 60 63 64 63 64 63 60 60 60 58 61 64 66 71 71 69 65 66 74 78 81 82 87 83 81
82 82 76 78 82 65 45 36 35 50 42 45 45 51 54 49 46 56 62 66 64 64 65 64 62 63 64 64 65 70 71 76 72 69 69 71 73 79 82 85 88 91 91 82
75 80 88 80 90 69 44 38 48 47 46 49 52 54 59 66 66 64 65 67 67 66 65 63 68 72 71 67 69 76 84 76 77 80 81 80 78 70 64 66 64 63 64 70
75 69 73 66 66 57 46 45 42 44 45 53 53 53 63 66 63 65 67 67 67 63 65 64 69 74 72 68 62 63 65 61 60 61 64 66 65 64 63 64 65 64 64 71
66 60 66 64 53 51 52 47 49 47 49 49 48 52 57 62 64 68 68 67 65 62 64 62 63 64 68 65 65 63 62 62 67 72 72 68 66 63 59 55 57 59 65 68
71 62 65 62 54 66 58 56 51 57 62 62 60 59 60 63 67 66 67 66 64 64 62 60 66 72 78 73 74 69 69 66 66 65 62 60 60 55 51 49 55 59 56 69
66 65 72 68 46 52 49 52 64 64 62 61 62 65 61 62 67 65 68 66 66 66 65 68 76 80 79 74 70 66 62 58 56 55 55 65 64 63 56 55 52 68 70 73

GFSCGP_sfc_rhum_036.txt.gz
RH
23 21 19 14 15 17 17 18 18 16 19 24 20 19 31 46 48 47 46 42 36 36 35 38 41 46 47 49 53 53 57 62 69 57 49 48 57 59 59 57 57 57 49 49
26 23 16 16 18 21 22 19 19 18 19 21 19 18 22 38 49 47 43 43 42 39 34 41 45 43 46 47 52 55 54 60 61 50 46 47 55 58 53 51 56 55 52 46
23 20 21 21 22 23 22 20 20 22 19 19 20 20 27 29 35 41 41 36 35 36 39 41 45 48 47 46 50 50 50 53 58 53 46 49 57 66 60 53 52 50 51 44
23 20 23 23 21 21 23 18 22 22 22 20 20 18 20 23 32 35 36 37 37 33 32 33 42 45 48 48 49 48 48 50 54 57 50 56 54 63 68 62 49 51 55 49
23 24 24 24 21 20 21 23 23 22 22 25 22 18 19 24 26 26 32 33 32 32 30 32 33 39 41 44 48 52 50 51 53 59 61 63 62 60 62 57 55 59 60 54
19 20 20 18 21 20 23 23 23 26 24 32 22 22 16 17 16 15 18 27 30 30 30 30 31 34 38 44 50 56 56 53 57 69 82 83 73 68 71 60 58 59 56 58
23 21 19 21 23 24 23 24 29 29 33 34 29 28 18 14 14 16 17 16 23 28 30 31 33 33 37 43 53 56 57 70 70 80 90 85 77 76 78 68 65 68 73 72
24 29 20 20 21 22 23 22 30 38 35 21 32 26 16 15 16 18 20 19 19 23 27 29 29 31 34 42 50 56 60 74 88 92 84 81 77 74 70 63 71 73 73 67
27 22 22 24 21 19 27 28 22 36 48 35 22 20 16 14 17 18 20 25 22 20 20 24 26 28 34 39 51 57 59 62 72 83 80 80 80 74 65 62 71 69 67 55
23 26 26 30 27 29 26 22 33 33 43 40 25 25 18 16 15 15 16 16 21 25 24 25 26 29 31 34 43 55 54 53 61 64 75 71 74 71 68 65 67 67 66 53
18 23 35 33 31 24 31 29 30 28 33 38 36 24 17 16 15 16 16 19 20 21 28 30 32 33 36 38 43 50 52 50 52 51 64 75 72 70 72 72 72 72 67 55
20 25 34 26 24 25 19 21 26 38 34 38 47 30 15 16 18 19 19 19 20 23 24 31 36 42 45 46 45 48 50 49 48 52 59 66 71 77 76 78 74 73 67 60
26 29 36 29 27 27 24 23 22 28 37 37 58 30 16 18 19 17 18 17 19 24 24 33 41 45 48 51 52 52 56 54 53 55 60 69 79 79 79 79 76 72 68 62
37 24 29 34 24 18 31 24 23 26 40 35 35 23 17 17 16 16 18 19 18 19 23 30 40 46 48 52 56 57 60 60 60 59 60 66 71 73 75 74 74 73 71 59
31 29 25 19 17 16 18 18 21 26 26 32 27 23 19 16 17 15 21 20 22 24 30 37 40 44 47 53 55 55 61 60 60 58 57 61 64 62 62 62 60 58 58 55
31 32 27 31 20 23 23 19 18 24 22 23 23 23 16 16 19 20 22 27 32 37 40 42 45 47 51 52 51 56 57 58 54 53 52 51 54 52 55 56 60 67 67 63
41 41 42 37 37 36 50 34 22 23 23 27 29 22 16 18 21 22 26 33 38 43 45 45 46 46 47 50 50 52 53 52 52 52 50 51 50 51 55 57 60 64 68 70
49 46 44 48 71 82 25 24 21 24 22 22 22 19 19 18 22 29 31 35 40 42 44 44 45 47 46 46 48 49 47 50 51 51 52 51 51 52 51 54 62 74 80 85
43 47 58 79 52 31 29 30 30 30 25 19 22 18 18 27 33 40 38 35 39 44 44 44 44 45 45 44 44 44 45 46 47 49 49 49 53 55 60 66 72 74 68 68
51 54 60 63 57 74 29 20 22 24 33 17 20 23 25 34 44 27 41 43 46 43 43 44 44 43 44 44 43 46 48 51 54 52 50 51 52 54 59 64 66 67 64 72
68 66 76 62 69 40 26 25 24 40 36 24 21 23 32 38 28 37 43 46 43 44 44 44 43 46 47 45 46 49 51 54 52 52 52 55 58 65 68 73 75 73 67 59
61 68 82 62 84 74 29 29 34 30 33 27 31 28 38 39 45 46 46 47 46 46 45 45 50 51 48 45 46 49 53 54 58 60 63 64 59 50 41 43 43 42 45 52
64 52 55 48 42 31 32 27 26 29 26 32 30 30 36 46 46 46 47 47 46 44 44 46 50 54 51 48 49 56 58 53 53 48 45 46 46 44 44 47 48 44 47 53
58 53 60 52 29 34 34 27 30 28 29 26 28 32 41 43 45 46 47 48 46 43 44 46 49 51 52 46 44 45 43 41 44 49 48 47 48 44 41 34 33 35 44 49
45 54 44 45 34 40 37 32 28 30 34 34 30 35 38 41 44 45 48 47 44 44 47 46 50 52 52 47 47 44 43 41 46 47 45 43 44 36 33 32 41 46 48 62
45 45 62 56 30 35 26 27 31 34 38 36 36 41 38 39 44 44 47 45 46 49 48 50 52 52 51 50 49 48 44 42 42 40 39 50 46 44 34 34 37 71 68 67

GFSCGP_sfc_rhum_039.txt.gz
RH
18 20 20 14 12 11 14 13 15 21 17 19 21 18 30 31 29 36 38 32 32 32 33 39 37 41 43 46 46 51 52 55 58 53 43 41 44 44 61 64 55 55 47 49
19 24 16 12 11 12 15 15 14 13 13 16 15 14 14 27 30 29 31 32 27 27 30 37 40 40 43 44 46 46 46 50 54 47 40 37 40 40 44 50 56 53 52 48
22 17 14 15 13 15 15 16 15 16 15 14 15 14 13 18 26 30 28 27 28 26 27 31 35 41 45 45 48 46 44 50 57 50 38 37 41 46 48 48 48 51 53 46
19 15 17 15 14 14 18 13 16 17 18 20 15 23 24 15 21 26 29 28 26 26 25 25 31 36 40 43 46 44 44 45 55 55 49 43 42 57 56 54 49 49 55 53
20 18 20 18 16 14 18 17 17 17 18 19 16 16 20 12 16 18 23 27 25 24 24 24 27 30 34 37 43 45 42 40 42 59 56 46 48 48 55 57 56 57 57 55
17 12 14 15 14 15 14 20 19 19 20 30 18 17 20 16 12 12 14 19 23 22 22 22 22 26 28 33 41 47 44 40 40 52 58 62 55 60 72 62 63 62 60 58
18 18 14 15 19 17 18 22 31 30 34 34 17 19 16 28 11 12 12 14 20 21 21 21 21 23 28 34 40 43 42 44 43 50 62 82 86 80 78 75 75 70 65 62
24 27 16 16 17 19 20 21 33 82 42 26 21 21 14 11 11 11 11 12 12 18 21 20 18 23 26 32 38 42 43 48 47 62 76 84 81 78 76 74 76 70 62 62
23 21 13 14 14 15 21 24 18 32 29 31 19 16 12 10 11 12 12 17 17 15 17 20 18 19 24 28 35 46 44 48 55 67 84 83 76 74 72 77 73 72 68 71
18 23 15 16 16 16 19 19 28 27 42 46 22 20 17 15 13 12 11 13 17 17 16 17 18 20 21 24 28 42 44 46 57 79 70 80 70 73 70 69 77 69 69 70
17 22 21 22 25 20 23 27 24 23 28 44 42 22 15 15 13 12 12 13 13 14 20 22 21 20 21 22 27 34 43 44 59 64 64 65 63 67 74 76 76 72 70 68
20 22 30 26 16 14 18 21 23 40 33 32 38 28 14 13 13 14 13 13 13 15 16 22 25 27 27 28 28 34 42 44 44 59 56 55 62 67 78 79 79 76 73 69
23 25 36 26 22 20 23 22 20 22 26 36 65 31 13 14 14 12 13 13 14 15 15 22 28 33 34 35 37 37 43 42 40 49 55 62 75 79 82 84 83 76 76 72
35 23 27 34 24 20 25 20 17 20 40 36 31 22 17 14 14 13 13 14 14 14 15 18 26 33 37 40 42 43 47 46 44 44 48 63 76 81 81 79 80 81 80 80
27 35 24 20 16 15 16 18 18 19 21 31 24 20 18 15 14 13 16 15 14 15 16 19 27 34 41 46 48 47 54 54 54 55 54 64 73 69 75 78 80 78 80 76
28 35 29 26 17 16 17 14 13 14 15 17 16 17 13 12 11 12 13 16 18 20 23 27 29 36 42 46 48 53 56 58 56 53 52 55 56 55 59 58 58 60 63 61
33 41 37 41 22 23 35 22 17 16 14 16 23 18 14 14 13 15 15 15 21 27 30 34 36 41 44 46 49 51 50 48 47 47 47 48 48 51 53 50 50 56 58 57
43 42 40 51 63 63 26 16 16 17 16 14 14 15 14 14 12 16 17 19 28 32 36 39 40 41 40 40 41 43 41 43 45 46 47 48 49 49 48 48 51 55 62 69
39 52 56 64 51 31 21 17 20 21 19 14 16 15 14 13 20 26 24 25 31 35 36 35 35 37 38 38 38 39 40 41 42 44 45 46 48 51 54 59 62 63 62 64
52 52 62 56 55 61 30 18 16 16 30 15 14 15 17 18 39 22 29 30 34 34 34 36 36 36 37 37 36 38 40 42 44 47 46 46 47 50 56 63 66 67 67 68
80 78 79 65 59 38 19 15 15 38 30 17 15 16 17 21 25 27 33 37 33 33 34 36 35 37 37 37 39 42 44 46 44 44 45 47 51 56 60 62 62 62 62 56
85 70 82 64 66 73 21 21 29 27 24 21 21 20 22 20 33 35 36 36 34 35 36 35 40 41 39 37 39 42 45 45 48 51 54 57 57 50 42 41 38 36 40 48
57 59 60 43 43 33 29 27 22 18 19 22 24 19 21 30 35 36 36 36 36 35 35 36 40 43 41 38 39 45 50 49 53 49 42 38 36 34 34 38 39 37 39 46
40 42 54 43 33 26 28 26 22 21 23 21 21 20 23 34 35 36 36 36 37 34 36 37 43 45 47 43 43 48 46 41 40 41 40 38 37 36 32 27 26 32 44 47
43 46 43 38 29 26 26 26 26 22 24 23 22 22 25 32 34 34 36 37 34 34 37 41 44 44 44 41 41 37 36 35 38 39 38 39 37 32 30 33 37 43 57 58
36 40 60 58 34 46 32 28 30 25 24 27 26 26 29 30 32 33 36 36 36 38 42 41 43 44 43 41 39 36 35 35 37 38 39 47 45 38 29 32 53 71 66 66

GFSCGP_sfc_rhum_042.txt.gz
RH
17 20 20 18 16 13 12 16 20 22 23 23 29 46 62 49 34 35 32 35 40 47 44 54 52 55 56 57 54 56 65 72 70 68 68 69 69 65 68 77 71 76 70 68
19 24 18 15 14 13 13 14 16 12 15 16 15 15 31 29 32 34 38 37 38 44 48 46 54 56 59 58 59 62 56 60 65 66 61 62 61 60 60 74 77 74 74 64
22 18 16 16 15 14 14 16 16 20 18 15 15 16 15 29 25 28 32 33 30 34 49 44 48 54 56 58 59 57 59 62 66 60 54 52 57 57 57 62 81 74 74 66
19 15 16 18 18 14 16 12 15 19 20 21 16 26 18 25 25 28 28 31 29 27 33 42 44 50 52 56 56 53 52 51 56 60 61 54 50 54 64 70 66 70 72 72
22 19 18 21 14 11 15 19 21 18 18 22 18 20 13 16 20 28 31 30 29 28 28 35 41 44 46 50 56 55 51 50 56 63 67 68 58 65 74 73 73 72 76 76
18 14 14 17 13 13 13 21 22 20 21 36 22 18 25 25 26 18 21 27 28 27 27 26 33 38 43 47 52 59 56 51 55 64 67 71 74 69 81 82 84 80 83 77
19 18 14 13 16 14 16 22 32 36 40 44 20 19 19 26 21 20 16 17 26 27 28 28 28 33 37 45 52 54 54 54 52 65 70 71 73 78 77 82 86 93 87 87
26 30 17 15 17 19 21 21 37 78 88 46 30 26 16 15 12 11 11 14 18 25 27 26 25 30 33 42 48 50 51 51 52 62 68 70 74 77 82 82 88 87 85 85
29 25 14 15 14 17 21 26 20 63 70 70 59 22 11 12 11 11 12 15 18 18 24 25 24 26 32 38 46 52 48 48 51 55 70 78 78 76 79 82 84 86 83 85
23 31 18 15 15 16 18 18 34 34 59 64 26 21 21 19 13 13 13 15 20 21 19 23 23 26 27 35 39 50 47 51 47 57 71 80 80 83 82 82 89 86 85 78
19 28 30 18 19 20 21 24 29 30 32 54 53 31 33 35 37 16 15 15 18 21 24 24 25 26 27 27 32 46 47 47 53 59 80 81 80 80 83 85 88 86 83 81
19 29 38 28 17 16 18 22 25 44 38 45 69 40 17 21 22 17 18 16 17 19 20 24 28 29 30 31 33 48 49 55 60 71 75 77 82 77 81 84 88 84 80 77
22 29 48 33 24 19 22 19 20 24 32 44 76 44 15 14 14 15 16 15 17 18 17 23 29 34 35 36 38 42 49 50 67 71 75 78 73 81 86 91 91 84 82 82
42 28 34 46 31 25 27 20 24 30 51 51 53 33 25 18 23 26 18 15 15 19 17 19 29 35 39 42 44 45 55 56 64 69 75 76 89 92 94 93 93 92 91 88
34 38 30 26 20 19 22 21 19 24 29 35 31 24 18 17 27 33 23 18 17 16 17 19 26 37 42 50 51 50 62 72 65 70 76 88 90 89 87 90 91 90 91 89
35 40 36 38 24 20 23 18 19 18 18 18 18 20 15 14 26 25 22 14 17 17 16 18 23 37 45 52 52 60 67 68 64 69 77 80 80 81 88 89 93 87 83 74
38 44 44 51 33 31 42 27 19 20 16 17 22 19 15 15 16 21 18 15 16 19 24 29 30 42 48 52 59 62 63 63 62 60 60 64 66 68 70 66 67 71 73 75
43 42 43 61 70 58 28 18 17 18 16 15 15 14 13 14 14 15 17 21 23 26 30 36 43 50 52 54 56 58 53 54 56 55 54 56 59 58 57 58 62 70 73 79
50 66 84 73 58 37 23 21 24 25 23 17 17 15 13 12 15 25 22 27 30 34 38 41 44 47 48 49 48 48 48 49 51 53 54 53 56 56 59 64 71 73 75 78
48 53 83 80 65 68 44 23 18 18 32 19 17 19 17 18 46 28 28 31 35 36 38 40 42 42 44 45 44 46 47 48 50 51 51 52 55 59 66 72 77 77 73 73
79 84 92 82 77 56 29 22 19 38 42 24 22 22 23 31 29 30 32 35 34 35 36 39 40 42 42 41 43 45 48 51 50 50 50 52 58 67 71 74 74 75 74 75
85 96 92 80 83 79 30 29 32 34 29 28 26 27 37 32 37 36 36 37 36 35 36 37 41 43 42 41 44 47 50 47 49 54 58 63 67 62 60 67 63 58 62 73
72 60 77 71 70 64 58 35 31 31 33 30 30 26 28 34 37 36 38 38 35 34 37 36 41 46 45 42 43 48 51 53 59 62 63 60 50 44 43 53 54 56 63 74
34 46 61 67 47 46 56 40 32 28 32 27 22 24 30 35 37 39 38 38 38 35 36 38 44 47 48 44 44 53 53 54 55 51 47 46 46 44 44 36 42 59 75 81
42 52 53 52 43 33 31 34 40 33 31 29 26 29 31 31 36 37 38 38 37 37 38 41 47 49 50 48 52 49 49 43 46 48 46 50 54 46 48 53 61 73 68 77
31 36 56 62 38 56 47 41 37 41 37 31 33 33 29 28 35 36 39 38 38 40 42 46 48 51 49 48 46 44 42 43 47 48 54 70 68 58 47 55 64 74 69 69

GFSCGP_sfc_rhum_045.txt.gz
RH
29 36 36 30 26 23 22 21 22 31 28 33 47 54 51 49 76 55 65 59 74 77 71 67 72 72 77 80 81 81 80 78 67 71 71 62 69 65 65 75 79 71 76 80
31 34 25 20 20 22 24 23 22 22 23 33 35 51 50 60 68 47 46 59 58 66 74 64 67 70 71 72 73 77 72 72 70 67 64 66 65 66 61 78 83 82 81 85
34 29 20 21 23 23 22 22 21 23 25 22 26 35 56 52 55 41 39 41 46 56 80 66 62 65 67 66 64 70 68 66 69 63 66 70 74 74 76 78 87 79 82 82
30 22 22 21 23 22 25 18 21 25 30 36 27 38 50 52 54 44 40 41 42 50 55 62 63 70 66 65 59 58 61 61 62 66 68 65 65 62 66 78 79 84 82 83
29 27 26 26 23 21 25 23 25 32 35 35 29 35 31 38 49 47 46 44 43 45 54 56 61 64 62 60 62 61 61 56 60 66 69 76 62 65 74 78 87 88 90 86
25 19 20 22 19 20 17 30 33 36 39 53 33 36 36 36 29 36 37 39 39 42 53 49 54 56 61 58 58 60 62 61 61 68 73 80 81 68 87 90 87 94 92 95
29 25 19 18 24 23 22 32 51 54 63 62 46 50 36 28 26 31 30 36 36 36 48 49 50 55 54 60 60 59 59 61 58 60 68 74 81 79 77 79 88 94 93 95
40 43 23 19 22 24 27 31 61 69 88 69 53 53 33 21 22 22 22 31 33 34 34 44 47 49 52 52 57 58 59 59 58 63 67 69 70 70 78 79 86 88 91 89
41 34 21 18 19 20 30 36 34 77 79 85 66 51 38 21 22 15 16 18 33 34 32 34 41 44 48 51 52 57 58 58 59 68 69 72 73 79 78 91 92 94 93 93
37 43 24 20 18 21 23 25 45 65 86 98 59 61 42 29 26 22 17 17 23 27 32 32 34 41 42 45 48 55 54 59 56 59 72 72 74 89 93 94 95 95 95 94
25 35 39 31 32 28 30 30 35 46 56 72 69 50 40 34 36 28 23 23 25 26 32 36 45 46 51 64 66 58 58 63 67 66 68 75 85 92 93 92 95 95 94 92
25 40 43 32 26 24 24 28 34 67 57 67 78 60 32 31 30 21 20 20 23 26 29 36 50 56 65 65 60 52 57 72 70 68 68 83 91 94 95 94 95 94 88 84
28 33 47 39 28 30 28 26 28 35 54 60 79 63 28 24 26 24 22 22 24 21 22 37 40 42 44 47 55 51 62 64 68 76 89 95 96 97 96 94 95 94 90 85
38 32 35 45 40 37 41 32 27 29 64 55 68 48 39 30 32 23 34 38 33 25 21 36 44 47 48 51 60 64 68 72 81 85 90 95 93 93 95 97 96 93 87 86
51 42 37 28 30 31 32 31 27 29 31 51 51 44 34 29 27 30 34 37 34 23 23 29 45 52 58 61 69 80 85 84 88 89 94 97 98 97 97 95 95 94 92 91
63 56 47 47 34 27 31 28 27 28 35 39 35 35 27 25 33 34 28 29 32 21 19 22 46 56 65 69 81 81 83 88 89 94 97 95 92 92 93 94 96 95 93 89
90 79 63 52 46 43 56 39 29 31 26 28 40 30 22 23 25 31 28 23 22 22 24 26 45 58 66 73 77 85 84 81 86 90 89 86 87 90 90 82 78 80 80 80
92 95 76 79 66 76 39 27 27 30 25 23 21 22 21 20 19 24 25 25 26 32 39 44 64 73 76 76 77 80 76 70 75 78 79 80 77 75 71 71 73 78 80 88
85 94 92 78 65 54 44 29 30 32 32 25 24 22 21 19 23 38 28 33 38 43 53 66 73 74 76 74 73 71 69 67 68 69 69 68 67 68 71 77 85 88 89 92
86 96 99 96 77 73 54 36 28 27 42 27 27 30 30 28 48 40 37 43 52 56 59 63 64 64 65 68 64 64 68 66 68 69 66 64 65 69 77 82 86 88 87 85
98 100 100 99 99 77 46 31 26 47 46 29 30 32 36 35 45 40 48 51 53 54 56 59 58 61 64 60 59 64 67 69 65 64 65 69 74 80 83 85 85 87 83 77
91 96 99 98 97 90 58 54 48 59 44 36 34 33 43 44 46 46 50 51 51 53 54 55 59 60 60 56 56 64 67 63 65 70 74 78 80 74 74 82 85 83 90 92
84 80 92 87 89 73 63 65 64 61 58 45 45 35 38 51 48 50 52 52 50 51 54 53 56 61 61 57 56 62 68 69 73 75 76 76 74 74 79 82 79 80 83 89
54 58 74 76 61 54 49 60 61 63 53 45 43 46 51 50 53 54 54 53 51 53 55 57 59 63 67 60 57 67 69 68 72 77 77 73 67 62 55 60 66 73 82 85
60 60 64 65 50 46 49 60 70 57 58 44 52 52 39 52 52 51 55 54 53 52 56 58 66 68 70 66 67 65 66 66 64 62 60 62 65 62 70 74 72 76 81 84
52 61 79 82 52 61 56 55 53 52 52 47 51 50 37 44 51 51 56 55 54 58 61 62 67 67 68 65 67 65 61 58 60 60 65 78 73 67 62 71 72 71 68 68

GFSCGP_sfc_rhum_048.txt.gz
RH
33 37 41 37 34 30 30 32 32 26 28 45 50 50 47 69 71 70 76 87 95 88 79 83 87 87 93 89 81 83 85 81 75 70 71 69 70 67 62 61 77 78 83 83
35 39 31 30 30 30 30 31 31 23 27 34 44 50 58 58 67 60 67 83 91 86 82 82 86 90 90 91 90 85 82 79 68 62 58 60 63 63 58 57 73 79 82 82
34 33 26 28 29 29 29 31 29 24 27 33 44 46 53 51 57 57 57 62 76 84 84 78 81 84 87 88 90 84 80 73 71 66 63 66 70 64 61 56 71 84 83 75
37 25 27 31 30 26 32 26 24 28 36 40 30 43 57 52 57 60 53 58 66 79 77 71 77 82 82 81 79 77 75 72 71 70 66 66 68 68 62 59 65 79 84 87
43 34 33 32 29 25 30 29 26 28 34 42 38 42 42 46 66 61 50 49 55 76 78 72 70 73 73 71 73 75 71 68 66 69 68 70 77 75 76 81 84 86 93 92
35 27 28 28 24 25 24 32 35 39 45 59 47 45 49 71 52 50 49 42 43 55 76 71 63 64 68 65 64 69 72 67 65 68 73 81 82 74 85 84 84 85 87 92
30 30 25 25 29 27 26 40 53 57 66 66 52 57 50 35 42 40 45 44 41 42 57 71 67 68 68 70 62 62 64 66 63 63 67 76 83 78 82 76 79 86 91 97
43 54 31 27 28 30 32 35 58 67 80 60 58 55 42 33 35 26 37 39 42 43 46 56 63 65 69 67 66 60 64 68 64 65 70 73 73 77 79 73 80 86 86 89
52 44 27 24 23 25 32 40 34 75 85 87 66 56 37 30 27 26 32 38 43 42 46 54 54 60 62 65 64 61 59 64 63 64 67 71 72 75 74 78 87 86 89 95
40 49 31 25 26 26 26 31 50 70 79 74 68 69 58 39 28 26 24 37 42 40 42 52 50 55 58 61 59 62 59 57 58 62 64 64 68 70 77 87 89 88 93 94
29 41 38 34 37 29 34 36 45 53 68 77 79 59 41 36 31 31 26 22 27 38 39 39 49 51 54 57 58 63 65 67 68 68 64 65 70 74 86 87 89 90 94 95
31 40 44 34 29 28 28 33 38 64 65 71 82 58 33 36 34 31 26 23 30 34 36 36 39 44 52 55 54 56 61 64 66 66 66 70 80 94 96 97 98 99 96 96
58 47 61 47 33 29 35 33 33 44 63 72 81 62 36 35 33 27 31 28 25 31 37 48 52 48 48 51 53 54 56 59 65 68 68 76 92 95 93 93 96 94 96 95
67 53 45 48 42 36 41 35 32 36 70 59 66 41 40 32 32 29 31 36 31 26 28 46 51 50 50 52 58 58 61 65 65 70 76 80 91 93 91 91 92 93 95 95
77 86 56 40 30 31 31 27 34 39 42 51 43 51 37 38 34 32 31 35 35 30 27 36 51 49 56 63 70 58 62 62 71 77 78 87 91 91 94 97 97 96 95 94
85 94 82 55 38 31 32 37 31 32 36 37 33 43 35 30 32 36 33 33 32 31 27 28 44 56 62 75 86 87 87 74 80 81 83 90 96 96 98 98 97 96 96 94
84 96 98 78 49 46 54 38 34 37 34 38 52 43 34 32 30 34 33 33 31 30 25 27 43 56 68 82 86 92 95 95 91 90 93 97 97 97 97 96 95 96 96 91
94 92 97 95 73 65 41 30 29 32 31 30 29 27 28 28 24 26 31 29 32 31 30 31 56 69 86 91 91 93 94 96 97 96 94 93 94 94 91 91 90 90 92 94
79 92 99 99 94 60 47 40 39 39 33 30 28 24 23 22 28 29 28 32 32 30 36 43 69 86 91 90 88 84 91 94 94 95 89 84 85 84 85 88 90 87 86 86
87 87 90 99 96 98 56 40 34 34 50 31 32 30 31 33 45 38 32 39 43 50 62 80 88 89 87 90 79 80 82 82 85 83 86 79 76 78 85 88 91 90 85 87
99 99 96 99 97 87 62 57 43 52 53 64 52 40 40 39 40 32 42 52 58 65 68 76 78 82 80 75 74 77 80 81 77 72 72 72 76 81 85 89 88 89 91 90
92 96 99 98 99 82 69 55 61 68 76 63 58 56 56 48 42 51 53 59 63 67 70 72 75 75 74 68 69 74 77 72 72 77 80 85 86 81 81 86 90 86 90 95
80 79 91 87 76 64 69 57 65 66 69 66 63 51 56 52 52 54 56 60 60 63 67 68 69 72 72 69 66 73 80 78 82 84 86 86 84 85 88 92 95 94 92 91
52 68 76 85 56 58 52 64 66 68 68 62 57 53 55 55 57 60 64 65 63 63 65 65 67 71 76 70 71 77 78 78 81 87 89 90 89 77 77 75 84 94 95 94
64 65 59 73 56 55 53 54 56 56 53 51 54 59 57 59 58 58 62 63 60 60 65 64 68 72 79 76 77 75 77 78 82 78 72 72 79 78 73 73 77 84 85 86
91 97 98 87 81 78 58 53 61 52 51 54 56 60 56 52 50 55 59 58 58 65 68 71 74 77 78 76 78 74 70 67 68 70 73 78 80 74 61 65 76 76 78 81

GFSCGP_sfc_rhum_051.txt.gz
RH
33 37 44 36 35 33 36 38 38 34 26 39 37 51 51 68 80 88 90 96 96 95 90 93 91 84 84 85 87 93 96 93 89 87 88 93 91 79 60 59 70 72 76 85
39 40 31 32 34 36 37 39 36 30 26 42 43 47 54 72 65 72 76 91 94 94 92 93 98 88 89 90 86 86 87 82 80 84 75 79 83 81 58 60 67 74 80 82
46 35 29 32 36 37 38 38 35 33 27 42 48 40 46 57 61 67 68 75 85 92 94 91 95 91 96 93 97 82 84 76 71 65 62 66 77 74 71 62 68 71 83 82
40 30 31 37 34 34 40 31 31 33 37 41 36 50 36 54 64 68 64 73 85 89 85 86 91 96 97 96 96 89 85 81 75 70 65 69 64 67 65 68 65 70 81 88
50 40 36 35 32 32 36 34 35 36 39 44 42 45 37 57 64 62 64 62 69 83 84 84 84 86 89 90 94 88 83 80 75 79 76 79 79 79 79 76 77 82 82 91
38 34 33 34 30 31 28 35 39 48 49 61 43 46 52 51 47 52 49 57 61 76 82 78 73 78 85 88 90 89 84 80 74 77 80 82 78 78 84 90 85 82 82 87
34 36 34 31 38 36 36 44 56 57 67 67 47 64 55 37 40 41 50 51 55 61 80 79 77 77 79 85 83 85 84 80 75 76 76 79 78 81 85 86 85 84 84 87
41 50 32 31 33 37 39 41 62 68 76 53 62 63 43 36 32 37 42 47 46 52 70 77 73 71 72 75 75 75 78 78 74 74 74 73 75 78 82 79 83 84 82 80
51 44 31 29 29 30 39 44 36 69 88 89 65 53 40 36 35 35 34 51 52 44 51 70 71 67 68 69 72 69 68 70 69 70 69 69 68 75 76 80 83 80 83 86
42 52 36 31 30 31 30 36 53 70 75 81 63 70 52 39 35 28 27 46 52 47 44 48 65 68 65 69 70 68 63 63 63 65 66 65 68 70 77 77 85 89 84 93
32 45 42 35 41 37 38 43 50 53 67 66 71 58 53 46 40 33 31 29 42 53 49 46 50 62 64 70 73 71 64 67 70 67 65 64 68 72 78 81 81 88 94 96
41 49 50 36 30 33 33 37 44 58 62 74 80 51 37 38 38 36 31 30 28 43 47 47 50 54 62 66 71 70 69 65 63 68 72 72 71 73 80 86 88 89 91 95
62 66 63 44 39 37 36 35 39 52 66 64 72 58 37 40 38 33 34 30 27 33 41 49 49 55 57 62 66 66 68 66 66 64 68 74 77 79 80 87 87 90 91 95
66 74 72 71 54 42 51 36 37 40 64 60 56 46 39 36 37 34 35 31 30 30 31 48 50 47 52 57 61 62 66 69 69 67 70 73 76 80 82 84 93 93 93 94
77 93 85 83 68 53 37 36 39 40 44 50 44 49 37 37 36 35 31 34 34 34 30 43 58 55 50 56 59 58 60 63 68 71 72 74 76 81 90 94 93 90 94 95
84 88 95 83 66 51 46 35 31 31 44 43 38 43 36 34 35 39 34 34 35 34 34 28 42 52 57 58 59 60 61 65 67 70 72 74 80 93 95 94 93 98 98 97
90 92 96 94 83 87 68 48 37 36 37 39 49 41 35 38 38 38 34 35 33 33 32 33 34 48 53 54 56 59 61 72 80 76 76 82 90 92 94 97 99 98 99 98
92 89 95 99 87 98 62 42 34 37 34 35 33 33 33 35 32 33 34 36 37 34 32 33 34 50 52 71 90 95 96 92 88 90 94 94 95 96 98 98 98 99 97 97
82 91 98 96 88 67 47 47 52 74 60 36 32 30 27 26 32 28 25 35 37 36 33 34 34 68 87 93 97 98 99 98 97 98 98 98 98 98 98 98 98 97 96 96
90 88 90 98 92 88 45 32 40 52 67 57 63 53 38 37 53 38 29 33 36 39 41 57 81 93 94 96 94 97 99 98 99 97 94 92 91 94 95 96 96 94 90 92
99 99 97 99 96 87 64 50 62 72 77 64 64 64 60 50 47 36 41 40 48 57 70 87 91 90 94 92 91 96 97 98 92 91 85 85 86 90 92 91 91 90 88 89
90 95 98 96 98 92 67 71 78 73 73 69 66 63 67 67 65 57 54 56 64 70 85 89 92 94 93 88 86 92 93 86 83 83 84 84 85 83 83 88 89 87 91 97
90 82 93 88 84 63 79 65 68 66 73 68 72 67 69 68 62 61 59 69 75 79 86 86 83 84 83 82 79 84 90 85 87 88 91 86 85 91 93 94 96 97 97 97
64 71 82 81 42 49 51 65 59 60 67 63 64 59 61 74 73 63 64 65 72 76 76 80 81 81 83 80 80 84 85 84 87 92 95 91 89 87 86 89 95 96 97 96
74 75 85 74 75 79 52 66 62 59 66 64 55 58 58 58 60 64 69 72 77 76 78 77 79 82 85 84 86 84 85 85 89 83 84 86 83 82 82 81 81 84 84 88
86 88 94 93 93 94 94 74 69 63 64 64 66 62 59 59 59 56 70 74 73 82 80 81 84 83 84 82 81 81 80 77 79 81 84 84 80 76 72 74 78 84 87 88

GFSCGP_sfc_rhum_054.txt.gz
RH
44 48 47 39 36 34 33 39 41 37 31 33 33 36 31 70 94 96 97 96 95 96 94 96 95 94 92 90 90 92 98 98 95 97 97 97 93 85 73 76 84 84 82 87
42 44 36 31 35 36 38 41 41 33 28 32 41 44 49 63 79 81 89 91 92 94 99 98 97 87 90 88 88 92 94 96 92 93 83 84 90 90 89 72 79 80 82 87
43 40 30 32 40 39 42 42 42 34 35 36 50 46 42 52 71 72 76 76 79 89 96 98 93 83 88 90 90 88 88 88 85 80 89 94 90 88 90 76 71 76 78 78
46 37 36 40 38 37 44 37 35 37 43 48 47 62 38 39 57 70 73 76 75 89 91 95 98 86 82 82 86 84 81 78 80 75 80 83 90 75 76 73 65 69 78 83
49 44 42 42 39 35 38 36 38 40 46 51 44 49 39 59 53 55 62 69 72 78 91 94 95 96 87 96 97 97 84 78 70 67 70 78 79 78 77 72 74 78 74 83
41 39 37 35 33 33 34 40 44 50 53 65 46 46 50 39 43 38 48 60 62 76 89 88 88 93 98 97 98 97 93 88 80 82 78 79 77 76 80 87 84 86 86 87
38 40 37 32 37 41 39 47 60 60 75 72 48 58 47 38 34 37 36 52 60 65 80 90 91 93 96 98 97 96 93 91 84 85 85 81 80 78 78 76 82 91 88 87
45 47 36 33 37 42 46 46 67 70 75 55 66 69 46 37 35 37 38 48 59 65 75 80 83 85 89 90 94 93 92 89 86 83 82 82 78 76 73 77 76 83 83 79
49 44 32 30 31 31 44 51 40 71 87 87 66 53 36 34 36 33 40 53 62 64 69 77 77 76 80 83 85 88 87 86 83 82 80 81 80 76 73 75 88 84 86 88
42 50 38 35 32 37 36 39 58 69 74 78 66 73 45 34 29 36 32 47 61 55 59 70 74 76 72 74 78 83 79 81 80 80 79 77 78 77 79 82 84 86 85 92
41 48 45 37 42 41 42 46 54 53 68 65 67 60 52 40 40 40 34 29 49 62 55 54 69 72 70 73 77 79 79 79 80 76 74 75 75 76 79 82 84 92 92 93
55 49 53 34 32 35 36 42 52 67 59 80 78 54 37 42 39 40 36 33 30 54 59 51 51 71 75 72 73 73 73 69 70 72 73 76 75 74 79 80 82 85 91 91
60 76 69 55 43 39 42 38 40 57 65 69 76 57 37 40 38 37 37 34 34 32 49 62 59 60 72 71 72 71 73 68 68 69 71 77 77 77 78 79 79 80 83 82
70 76 80 86 81 77 78 53 41 44 65 62 66 50 36 35 36 31 35 36 34 32 33 53 59 59 60 68 70 74 74 73 70 67 70 76 79 78 77 75 78 80 82 83
76 78 86 80 80 72 70 62 49 47 49 53 45 52 40 34 36 35 34 36 35 33 32 36 52 56 61 64 69 69 73 74 74 73 70 72 73 75 78 79 82 83 87 87
81 87 92 82 67 63 65 64 51 46 44 49 46 46 37 33 35 37 34 36 36 36 34 33 37 54 59 61 65 68 70 74 75 76 75 71 73 75 78 80 83 85 91 92
85 89 88 81 82 68 74 67 52 57 46 44 52 42 34 35 37 39 35 37 36 36 36 36 34 34 49 55 60 66 67 69 73 77 77 76 78 80 81 84 87 93 93 94
90 88 92 94 89 85 50 47 57 58 51 37 39 50 37 36 30 34 38 38 39 39 37 37 37 35 44 56 63 63 74 76 77 76 77 80 85 87 90 92 93 95 98 98
88 90 97 96 93 71 53 48 67 57 49 32 54 65 61 45 34 32 29 33 35 37 39 40 40 41 46 65 74 82 92 87 89 88 90 92 93 95 99 99 99 99 99 99
89 84 89 97 97 86 54 35 52 51 64 66 71 73 72 64 66 41 33 36 35 38 38 39 48 66 75 89 93 93 97 97 96 98 99 99 99 98 99 99 98 99 98 99
98 97 90 92 96 86 62 59 61 81 47 63 70 72 78 80 64 55 60 58 50 49 56 57 77 78 86 97 95 98 97 99 96 93 92 96 96 98 97 96 95 96 96 95
94 95 98 89 97 93 69 67 66 61 64 71 67 60 78 74 68 71 67 63 69 75 86 91 93 97 98 96 95 99 97 92 89 90 92 92 91 89 90 93 93 93 92 95
87 83 91 86 82 66 83 64 58 66 63 58 63 54 64 77 71 72 66 65 72 83 89 92 94 94 94 93 91 96 96 91 90 88 89 90 89 90 91 94 96 96 94 95
73 79 88 88 65 72 73 76 76 76 66 55 56 54 62 69 64 69 69 73 75 80 84 88 89 91 94 92 90 93 94 91 91 92 89 87 88 90 90 92 94 97 96 95
69 80 80 81 83 84 84 89 83 82 73 68 66 68 70 70 70 73 71 79 83 85 90 86 88 92 95 91 93 93 89 86 90 89 88 87 87 87 89 92 92 94 93 92
93 91 92 92 82 93 83 88 79 82 81 73 73 72 68 67 81 78 86 83 82 83 82 81 81 79 80 79 82 86 83 83 87 89 88 90 87 86 84 86 91 93 91 89

GFSCGP_sfc_rhum_057.txt.gz
RH
42 42 41 31 30 27 27 28 28 27 24 23 27 25 22 25 65 68 69 73 77 74 67 69 75 76 80 81 81 89 97 95 95 95 96 96 96 90 78 65 69 73 62 64
40 48 36 29 31 29 28 31 30 26 25 25 22 25 24 32 39 51 58 69 69 68 74 77 77 78 82 80 80 83 96 96 93 91 90 90 88 94 82 70 69 68 66 61
41 36 32 31 33 34 32 33 34 28 28 26 32 30 25 26 44 49 57 57 59 64 75 84 81 79 79 81 83 83 90 91 90 89 94 95 94 93 90 80 73 68 74 71
38 31 33 33 33 32 38 32 30 30 29 29 30 36 30 22 26 37 42 56 55 61 64 78 83 82 77 77 76 79 80 88 88 88 87 92 82 84 74 80 71 72 76 77
41 43 37 35 30 31 30 32 32 31 33 37 33 35 29 32 28 24 27 41 52 53 62 70 82 77 70 71 72 76 79 84 82 82 78 84 82 85 75 78 78 67 68 75
31 34 32 29 32 30 32 31 36 42 40 49 37 34 31 26 24 22 24 29 44 54 58 62 69 74 69 69 74 79 78 76 76 79 77 81 84 83 86 86 83 80 79 82
39 37 31 31 34 34 32 38 42 48 56 48 40 39 32 25 24 26 24 23 36 52 57 65 72 77 81 85 84 80 76 77 72 73 71 76 75 79 83 78 76 76 78 75
43 47 37 33 35 38 39 34 46 58 56 39 51 45 28 27 27 30 28 29 33 48 56 61 65 70 75 83 82 82 76 74 74 72 70 70 69 69 66 68 63 66 66 61
43 37 29 31 33 29 41 44 34 51 69 60 46 39 28 22 24 23 26 27 30 40 53 56 62 66 69 72 76 77 72 71 74 73 69 70 69 68 67 66 68 65 65 67
40 44 33 30 29 31 32 33 45 52 50 55 48 47 31 26 23 24 29 26 31 38 49 56 60 66 65 67 67 76 70 67 68 72 72 69 69 66 66 67 70 70 67 67
39 43 40 37 35 34 36 38 44 40 53 51 50 41 38 32 28 28 29 29 27 30 43 50 56 60 62 64 68 72 71 70 70 71 71 71 71 70 71 70 70 69 70 68
52 46 53 37 30 29 30 37 39 54 50 63 62 38 28 33 32 34 30 30 27 26 36 43 49 58 62 63 64 66 67 67 68 71 72 74 74 72 74 74 72 73 73 71
63 65 60 48 37 41 43 37 37 51 57 56 67 42 28 32 32 29 32 28 29 30 26 43 45 54 59 60 62 62 66 64 65 65 70 76 77 76 76 76 74 74 74 76
68 67 66 62 63 67 72 58 52 44 58 46 52 39 29 28 30 28 30 28 29 32 28 30 45 45 49 58 60 60 64 65 64 62 66 71 74 73 73 71 72 73 71 75
69 69 65 70 68 69 58 55 52 50 43 50 42 42 31 31 29 25 27 30 28 28 29 31 34 40 44 53 60 58 60 63 63 62 62 66 69 68 67 70 72 72 73 75
57 86 78 71 58 63 58 49 42 45 42 42 39 39 32 35 30 30 30 30 28 27 28 28 30 37 45 49 54 58 61 66 66 65 63 59 62 65 69 68 70 72 73 74
66 85 78 59 71 63 60 57 46 50 46 45 47 33 29 48 47 40 32 29 33 32 30 30 30 30 38 44 54 56 59 62 69 68 66 64 64 65 68 67 67 70 74 75
67 79 83 82 78 60 38 46 43 47 42 36 32 30 49 53 50 45 38 31 32 34 34 34 33 32 31 32 42 51 52 59 67 66 66 67 69 68 66 67 69 72 76 80
72 77 96 87 78 59 36 38 58 50 34 44 54 58 55 54 52 40 41 46 51 48 40 32 30 33 33 34 39 49 57 54 61 64 66 67 71 71 72 76 78 82 97 99
88 84 88 93 84 79 46 35 47 40 43 48 55 55 55 56 65 50 45 54 57 48 46 41 38 37 37 38 50 56 56 60 62 66 65 70 73 77 88 96 98 99 99 99
96 89 94 91 88 75 53 48 49 53 44 45 55 55 55 59 53 48 57 56 52 55 61 70 69 63 71 69 71 69 75 77 88 92 93 95 94 97 98 98 97 96 96 96
83 87 93 83 94 84 52 61 61 66 61 54 53 52 55 56 59 58 55 54 58 61 70 76 82 87 87 84 84 85 94 91 90 91 94 95 96 94 91 94 95 93 94 96
80 70 73 70 67 57 65 72 72 75 80 72 67 52 56 64 64 62 59 60 65 67 71 74 78 83 84 83 85 91 94 89 88 90 92 93 92 91 91 93 94 95 93 96
69 68 73 70 54 62 75 77 73 75 76 66 66 65 64 68 65 67 71 74 74 74 76 72 76 85 91 89 89 90 88 86 88 91 90 89 90 90 90 90 92 93 95 95
58 66 71 72 63 65 79 83 79 71 70 69 64 66 64 64 65 70 69 74 72 70 70 71 77 81 84 84 84 81 82 80 82 83 84 86 87 88 93 95 94 95 95 93
77 80 80 73 77 83 75 79 74 75 75 71 72 71 69 70 72 68 73 74 76 80 78 74 76 79 82 80 79 80 78 76 79 80 80 85 84 83 83 88 92 93 91 89

GFSCGP_sfc_rhum_060.txt.gz
RH
31 30 29 22 20 15 13 16 14 10 13 19 18 15 12 12 19 26 30 34 37 40 38 41 49 53 58 66 73 92 97 94 91 94 92 94 91 84 92 86 75 63 46 51
36 39 25 21 18 19 16 18 16 12 16 18 13 12 13 12 15 18 24 31 35 38 41 45 49 53 59 61 69 82 94 93 93 82 82 84 80 85 84 81 74 63 56 50
33 28 26 27 22 23 20 19 18 16 16 16 17 17 15 13 17 19 25 24 29 35 40 45 50 52 58 63 71 63 74 91 91 84 81 84 90 94 92 85 65 62 55 54
24 18 28 28 25 19 22 16 18 20 21 16 18 20 15 15 14 13 14 27 29 33 36 40 47 50 55 56 63 58 65 77 84 85 85 88 85 77 76 71 70 55 61 60
28 26 23 28 25 18 22 17 22 21 22 20 16 19 15 15 17 14 13 14 28 30 34 40 46 45 46 53 60 64 63 71 86 85 85 85 85 78 67 72 69 63 73 67
27 24 22 19 19 21 20 23 24 24 22 31 20 20 16 14 15 12 11 12 18 27 32 36 42 46 45 49 55 65 66 69 86 87 84 87 82 81 81 86 84 78 70 71
26 27 25 24 20 22 22 26 31 33 37 34 20 24 21 16 15 14 14 13 19 28 31 36 42 47 46 50 55 58 68 70 74 86 83 80 71 70 85 86 76 70 67 68
29 38 28 26 25 26 29 26 28 44 39 26 27 29 20 15 16 17 16 16 18 25 31 35 38 46 46 50 52 54 60 67 75 79 78 76 69 63 72 75 71 70 65 58
31 28 24 26 25 22 30 33 22 30 41 39 28 25 20 15 14 14 13 14 16 16 28 32 36 44 47 50 54 56 53 54 64 70 72 73 69 65 61 60 68 66 63 62
28 33 22 27 25 25 28 23 38 33 43 45 28 29 22 19 16 14 16 17 17 20 25 32 34 42 44 48 48 56 50 48 52 59 63 62 63 58 56 57 59 57 54 55
27 36 36 28 32 30 32 33 30 27 30 38 37 28 20 19 20 20 18 18 18 19 26 31 32 37 41 44 47 51 50 48 50 54 56 58 57 57 57 56 55 56 57 54
27 38 36 29 26 22 22 27 29 38 38 36 40 28 19 22 20 21 20 17 18 18 21 26 32 37 41 44 46 47 49 46 47 51 55 59 60 57 59 60 58 61 59 58
50 33 37 27 23 28 29 26 27 28 31 40 54 32 18 20 19 17 17 18 18 19 18 25 29 34 39 41 44 45 49 46 45 46 52 60 63 62 61 62 61 59 60 59
63 55 35 37 29 34 44 34 36 32 42 37 33 29 22 20 19 19 19 19 17 18 19 19 25 29 34 38 41 44 47 48 47 45 50 54 60 62 61 60 61 62 58 59
56 68 52 48 46 45 43 40 36 37 36 40 30 28 23 22 27 28 24 21 20 19 17 19 20 21 26 33 38 40 43 46 48 48 48 52 57 58 57 58 58 58 61 59
47 51 52 47 40 43 42 34 32 31 34 33 30 30 24 19 20 29 30 26 26 24 21 18 17 18 20 24 31 38 41 45 48 50 50 48 51 54 57 55 58 59 59 58
50 57 50 43 42 44 45 35 29 34 33 34 39 29 21 19 24 31 32 30 31 31 30 26 21 21 21 23 26 32 37 41 47 50 49 48 49 52 54 54 54 56 60 61
50 66 64 51 67 58 30 32 30 36 32 30 25 24 29 32 33 31 32 38 39 40 38 36 34 31 23 22 23 29 28 36 44 47 47 48 49 51 51 54 56 58 60 63
46 58 74 66 52 31 26 29 36 41 29 30 30 31 31 31 36 30 34 39 40 40 38 38 35 34 32 28 25 24 27 30 36 42 45 45 50 51 52 55 58 59 62 64
46 53 68 79 62 63 31 34 34 30 30 29 30 30 33 33 48 32 38 40 40 38 40 46 49 46 44 38 34 30 29 32 36 40 40 44 48 53 54 57 62 65 67 75
76 72 77 74 68 49 35 32 34 40 51 43 39 37 39 40 39 40 42 42 40 42 47 54 55 59 63 62 61 46 35 38 42 47 46 48 51 56 58 70 84 91 97 97
64 63 74 62 72 71 42 40 44 63 52 58 55 53 52 43 46 47 43 46 48 48 49 53 60 68 76 73 72 65 80 82 78 84 89 91 90 90 90 94 95 94 94 96
64 45 54 47 47 55 53 57 58 60 64 61 61 55 55 53 51 49 52 53 53 50 50 54 63 76 80 80 84 90 91 87 89 90 93 92 91 91 91 93 94 95 92 95
42 44 54 53 35 42 55 58 58 57 61 56 54 54 53 56 54 52 52 57 58 64 57 57 64 77 82 77 80 86 88 87 90 92 92 90 92 91 88 86 88 92 94 95
40 46 41 40 34 49 62 64 61 57 58 56 54 55 57 57 56 56 56 59 59 67 68 69 76 82 85 81 83 79 82 81 87 88 90 90 89 89 89 92 92 94 96 91
39 39 54 49 65 64 62 68 62 60 59 56 56 57 54 59 64 70 74 71 72 75 72 70 74 82 89 84 89 88 83 78 83 85 85 89 87 85 82 84 88 93 94 94

GFSCGP_sfc_rhum_063.txt.gz
RH
16 24 29 23 23 21 16 14 14 12 9 12 13 12 12 10 11 15 17 18 21 27 27 30 35 41 47 54 68 85 90 90 89 92 88 93 95 96 95 91 71 59 53 50
31 25 18 19 20 20 19 17 15 12 10 14 12 10 10 9 9 11 13 16 20 24 27 32 36 41 47 49 67 86 93 91 90 84 82 76 85 93 89 92 87 62 55 49
44 23 22 20 21 22 20 21 17 16 12 13 15 12 10 9 10 10 12 12 14 20 27 32 37 41 47 48 59 66 88 91 92 87 85 85 91 91 93 95 93 77 69 47
37 24 27 27 27 24 24 16 16 15 16 19 13 17 12 10 10 11 12 13 14 16 22 28 35 39 44 47 54 58 68 86 84 83 81 84 73 82 71 78 87 82 78 58
42 23 21 28 26 23 24 17 16 16 18 20 19 16 13 10 12 11 11 11 13 16 21 26 32 34 36 44 54 54 66 71 78 80 80 79 74 70 70 69 76 72 69 67
30 22 23 21 17 20 17 19 20 20 22 33 24 20 15 12 12 12 9 10 10 16 19 23 28 32 33 40 49 54 61 66 76 84 84 80 77 71 81 79 79 68 64 66
41 33 24 22 22 21 18 24 33 34 36 36 19 20 19 12 12 12 12 10 12 14 19 24 29 33 33 40 48 52 55 65 74 85 83 80 77 74 74 74 75 75 66 67
38 46 31 23 26 22 22 23 32 45 42 26 18 24 16 12 11 11 11 11 11 17 20 23 27 33 34 38 44 47 53 56 71 84 84 82 76 72 65 70 68 72 68 63
30 22 17 18 25 25 23 27 21 29 37 39 23 20 16 14 12 12 12 11 12 12 17 22 25 32 35 37 42 47 47 50 59 75 81 82 79 77 72 66 70 72 65 58
26 31 18 22 22 26 26 19 30 28 46 48 28 31 21 17 15 13 13 15 15 14 12 20 24 30 34 35 35 45 42 44 51 59 72 77 77 72 72 68 71 68 64 60
25 31 28 22 28 30 32 30 31 25 28 41 42 28 18 18 18 17 16 15 15 16 18 20 23 27 33 34 36 41 42 41 45 53 60 69 72 67 73 67 64 64 62 60
31 31 35 47 21 20 25 30 29 41 52 34 43 31 17 24 20 17 16 15 15 16 16 20 23 26 32 35 37 38 41 39 40 46 52 60 64 65 69 65 62 62 60 57
48 33 44 40 41 23 26 27 31 31 36 56 62 35 18 18 19 18 17 16 16 16 17 20 23 26 29 33 36 38 40 40 38 39 46 56 59 59 62 61 59 57 58 57
56 56 37 33 30 21 31 26 26 28 45 41 43 34 24 20 19 19 22 21 18 17 15 15 20 23 26 30 33 36 39 42 40 38 42 49 56 57 57 56 57 58 55 56
43 85 72 35 34 32 21 25 25 31 34 42 36 29 22 19 21 24 23 23 20 19 19 18 17 16 19 25 30 32 35 38 42 40 40 46 52 54 54 56 56 57 59 55
37 66 89 57 38 36 37 32 26 27 26 28 26 26 19 20 16 18 25 26 26 28 27 26 25 19 17 17 21 27 32 36 39 43 43 41 46 49 54 55 58 60 61 58
44 44 75 86 43 40 53 37 31 29 24 26 32 27 26 20 18 22 26 33 36 34 33 32 30 28 28 24 21 21 23 31 36 41 43 42 45 47 52 54 52 56 60 61
50 46 44 64 58 81 30 23 24 26 26 24 24 22 22 22 22 19 29 37 38 36 38 37 37 37 35 32 28 26 20 23 33 37 41 41 45 47 48 52 54 57 59 61
41 52 60 64 51 31 23 20 30 34 32 26 24 23 22 22 23 26 33 36 38 38 38 41 44 44 45 44 42 38 28 22 22 31 36 38 42 44 45 50 55 56 58 61
37 46 59 58 58 56 30 25 26 27 40 27 27 28 28 26 33 40 35 34 36 34 37 42 44 49 61 65 59 54 46 33 25 26 26 32 36 40 44 50 56 58 58 61
59 60 66 63 58 37 22 23 27 41 51 40 38 38 37 35 32 34 38 37 36 35 38 43 47 61 72 71 70 61 57 59 58 57 48 38 37 42 46 51 53 60 76 92
52 58 67 56 57 59 30 27 44 51 47 46 46 51 54 49 44 42 39 40 40 40 40 42 50 63 73 73 76 83 86 80 78 77 80 81 81 80 80 83 88 91 95 97
56 41 46 40 39 45 44 51 48 47 51 52 54 48 49 48 48 46 45 45 44 43 44 49 54 65 72 75 80 86 88 87 88 87 89 89 87 86 87 93 95 97 96 97
54 31 49 41 50 45 52 46 45 45 51 48 47 48 48 52 48 48 48 48 48 46 48 52 58 69 76 77 82 88 87 85 88 91 92 90 91 91 91 90 92 95 97 96
51 36 40 42 45 50 50 49 50 47 47 46 45 47 50 51 51 54 56 60 61 60 59 58 63 69 78 78 85 89 91 84 89 90 90 91 91 91 93 94 94 95 97 94
33 39 46 52 57 54 66 54 50 49 50 49 49 49 47 50 55 58 66 70 71 74 71 71 68 71 79 82 87 93 97 96 91 89 90 93 90 89 82 82 87 94 94 94

GFSCGP_sfc_rhum_066.txt.gz
RH
30 37 26 32 29 24 21 24 23 17 10 12 14 13 11 11 11 17 17 18 18 25 26 32 38 45 50 64 68 85 89 90 92 92 94 97 98 98 96 90 84 79 67 66
45 60 33 21 24 23 24 33 31 20 12 13 13 13 11 10 11 11 13 17 19 20 27 33 39 45 53 67 80 88 92 90 88 86 83 84 90 93 90 91 81 77 70 63
56 42 31 34 24 27 27 30 27 21 14 12 13 16 14 11 9 9 10 12 14 20 27 35 40 46 55 62 73 81 90 89 86 87 91 91 93 93 93 93 92 70 67 62
68 59 41 52 42 21 28 20 20 20 21 23 14 23 16 13 11 10 11 15 15 14 22 33 39 44 52 56 77 78 87 89 83 86 86 90 90 90 78 83 84 73 72 62
82 58 56 64 56 27 30 26 28 24 22 24 19 21 18 12 12 11 12 14 16 16 20 31 38 40 43 52 66 76 82 88 83 84 81 83 82 81 75 77 83 84 83 74
47 35 57 57 40 37 31 40 37 28 28 36 24 23 23 18 14 11 11 12 13 16 19 24 34 38 40 50 63 67 79 84 83 85 80 81 76 78 78 78 84 84 75 73
40 43 39 27 37 30 28 51 52 50 47 46 23 25 26 17 12 12 13 11 14 19 21 24 32 37 40 52 64 65 72 78 81 87 83 80 76 76 77 74 77 77 74 69
65 63 43 31 35 45 33 45 51 77 63 37 22 27 21 14 12 11 10 13 14 17 24 23 29 37 39 49 57 59 61 69 78 85 85 79 74 72 71 75 69 73 72 66
46 52 26 32 32 36 40 57 33 38 44 51 36 20 15 15 13 12 12 13 15 18 21 24 26 36 40 45 55 60 58 62 72 81 84 82 79 74 73 74 74 72 68 66
32 44 29 21 30 32 34 27 49 39 70 69 36 28 27 19 18 13 14 16 18 17 18 23 26 37 38 41 46 58 54 55 70 76 81 81 81 77 75 72 73 73 72 68
36 38 37 29 27 38 38 39 43 44 41 56 60 44 29 25 20 21 20 18 21 21 22 22 25 32 38 41 42 52 51 53 59 74 78 79 82 79 77 76 72 71 73 71
48 40 44 35 26 35 30 43 38 62 54 43 52 44 26 26 24 22 19 20 21 21 20 22 27 32 38 40 40 46 49 48 53 61 73 78 77 79 81 79 74 73 74 71
47 49 50 39 42 36 44 32 39 46 69 91 75 42 24 22 22 23 26 24 21 21 20 23 28 29 35 39 42 41 47 46 46 52 61 72 78 77 78 78 76 73 73 73
56 60 61 51 40 60 46 35 40 45 75 72 71 46 44 31 29 26 29 27 22 22 23 25 27 30 32 36 40 42 47 49 47 44 53 64 71 75 74 72 75 74 70 71
61 84 67 64 55 34 31 36 36 77 66 73 58 50 37 41 30 25 27 29 28 29 30 31 31 31 29 36 40 37 42 46 48 47 45 52 63 67 69 72 72 72 70 67
48 85 60 69 48 42 36 38 31 41 33 29 33 42 36 28 24 26 30 36 38 36 36 35 36 36 36 34 35 33 39 44 47 50 50 47 52 58 63 64 68 69 70 67
59 54 68 82 78 66 58 40 45 44 48 34 69 60 55 35 21 24 40 40 41 41 41 44 47 48 50 54 53 52 41 33 44 46 49 49 50 52 59 62 63 65 68 69
55 58 77 85 93 84 34 25 27 29 30 26 37 36 29 26 22 34 38 42 41 41 44 45 48 56 60 63 65 65 57 51 42 37 44 47 51 51 52 58 61 65 68 71
42 52 86 95 82 63 39 27 28 34 43 60 61 24 23 22 31 47 37 38 41 43 45 46 54 62 68 71 70 66 63 61 50 63 56 42 48 50 52 56 60 64 67 70
39 49 69 75 88 72 34 23 19 25 58 36 34 32 30 27 62 64 40 41 42 40 43 46 54 62 70 71 70 71 72 74 79 79 73 69 77 48 51 57 62 65 66 68
59 64 74 77 83 56 25 25 25 51 65 43 44 49 56 59 54 46 45 44 42 42 46 49 56 68 70 70 71 75 79 84 80 77 76 76 79 78 87 76 82 76 94 96
55 68 77 64 66 69 29 31 45 62 51 47 50 53 57 51 49 47 46 46 45 46 48 51 58 66 68 70 76 80 88 81 80 81 82 82 83 82 85 92 95 95 97 98
70 47 57 48 48 52 47 55 49 50 56 54 54 50 51 51 50 47 49 51 51 52 53 54 59 67 70 72 78 91 87 81 82 84 87 87 83 84 87 94 96 96 94 96
46 37 46 45 29 47 54 47 46 47 51 47 47 49 51 54 53 55 58 62 63 63 64 61 65 72 78 75 80 87 88 78 80 86 90 90 90 89 88 86 89 93 95 96
90 50 59 50 72 68 60 52 49 48 46 46 45 48 52 52 56 58 65 66 67 67 66 67 72 76 80 79 83 85 87 83 84 86 87 91 92 93 90 92 92 92 96 96
62 75 69 95 87 89 65 54 48 52 53 51 52 51 51 54 59 62 69 70 71 74 71 72 75 78 85 87 88 91 91 92 91 92 92 95 95 95 94 90 89 95 95 97

GFSCGP_sfc_rhum_069.txt.gz
RH
40 45 45 34 32 34 34 34 29 25 24 28 25 18 15 13 18 25 25 24 28 42 44 45 50 63 72 91 94 90 94 94 95 97 98 98 97 98 97 94 92 92 84 77
57 58 44 35 39 37 35 35 32 25 24 25 21 17 16 14 16 19 24 26 25 37 46 46 53 62 73 93 95 90 95 96 94 90 91 90 94 96 93 93 93 87 84 72
53 55 42 46 55 50 42 34 30 31 26 23 22 20 19 15 15 14 18 20 22 36 48 48 55 61 83 87 97 93 92 92 92 90 92 94 96 98 97 95 93 86 83 66
72 58 52 47 48 42 59 35 27 27 30 43 26 35 23 17 15 15 13 20 24 34 44 46 52 61 82 90 95 95 89 88 87 90 90 93 92 95 89 88 84 74 79 75
68 71 72 72 50 42 61 44 41 45 52 51 38 35 27 21 21 17 14 17 21 25 44 47 50 57 61 83 92 96 92 88 84 88 87 88 82 81 80 82 77 77 82 78
63 60 68 56 48 50 47 54 52 51 58 74 41 35 33 24 19 20 15 14 19 22 42 45 47 55 61 86 93 97 92 89 85 87 87 86 83 84 87 91 86 87 89 86
53 53 51 60 71 51 48 76 86 76 70 72 31 34 28 23 18 18 19 16 17 22 43 47 51 53 60 88 93 96 96 89 88 87 86 85 88 85 82 85 89 88 86 80
56 72 45 46 53 47 52 74 84 91 92 61 34 40 28 19 16 16 15 17 26 31 42 46 48 50 57 74 79 89 93 93 85 88 84 80 75 83 80 77 81 80 79 76
49 52 39 43 35 38 74 68 50 89 67 86 60 36 21 19 17 16 15 15 22 33 37 45 46 48 56 70 73 74 88 90 89 88 84 82 76 76 79 76 71 73 72 71
42 51 32 38 39 40 66 50 89 99 96 95 56 50 36 36 21 18 21 22 22 28 33 41 45 48 52 64 69 70 76 80 86 89 84 82 78 75 74 75 72 69 70 68
51 56 47 36 44 45 56 85 91 84 72 78 88 69 44 33 31 29 28 29 31 29 32 36 43 46 50 58 66 67 69 72 82 86 80 80 81 78 75 74 77 73 71 71
52 68 70 46 47 48 50 51 76 98 89 66 69 68 35 30 31 31 32 26 27 31 33 38 46 48 51 55 62 65 65 66 75 79 84 76 81 81 81 77 74 76 75 74
54 66 82 56 47 49 53 48 50 70 77 96 95 61 38 35 32 30 31 31 35 36 36 38 40 50 52 50 58 61 62 60 68 80 81 83 82 83 81 81 80 73 74 73
62 67 75 85 78 63 69 61 53 70 99 91 89 71 61 53 61 34 36 35 39 40 42 45 51 60 63 63 64 60 59 58 61 70 82 86 83 82 81 77 76 78 74 74
78 94 74 73 56 54 59 71 53 70 84 96 70 68 55 65 65 46 46 43 44 46 50 53 56 64 70 76 78 74 66 66 62 60 68 78 84 80 79 80 77 80 79 76
67 88 81 73 66 65 64 56 41 42 63 84 70 69 67 59 61 54 46 46 50 52 50 53 64 62 64 69 72 70 70 75 70 70 60 65 72 80 83 81 81 80 83 79
80 76 88 92 83 82 80 58 46 51 66 64 81 67 57 59 60 51 52 49 54 55 58 67 68 71 73 76 73 76 71 69 69 80 78 70 71 74 78 79 80 80 80 83
76 77 82 97 89 95 55 43 39 46 52 57 62 64 66 68 58 48 50 54 57 56 64 69 71 73 74 72 72 73 72 73 75 77 77 76 83 83 72 74 76 78 80 82
58 72 94 97 93 73 52 38 38 63 79 56 59 50 64 55 55 55 49 50 56 58 63 70 71 71 71 71 70 70 75 75 76 77 78 77 81 85 85 84 72 71 74 76
50 66 82 98 89 96 55 37 33 54 88 63 54 62 68 58 86 68 53 51 56 56 60 70 69 69 70 71 70 74 77 76 79 77 77 76 78 82 87 92 97 81 77 78
70 77 81 83 90 84 50 41 35 76 94 66 60 61 60 67 62 55 54 55 54 56 59 64 69 75 72 72 74 80 81 82 76 74 75 77 79 80 84 89 92 96 98 98
93 80 88 83 90 85 44 45 74 76 65 64 65 64 64 59 59 63 62 65 65 64 64 64 70 72 72 74 80 88 91 77 76 78 78 79 81 79 80 88 91 92 95 96
99 73 87 72 70 70 68 71 70 67 68 65 66 61 61 64 67 67 69 69 68 67 69 65 69 73 75 77 82 92 90 78 79 82 83 82 79 81 81 89 91 92 91 94
86 71 80 64 47 68 73 58 54 54 57 56 56 59 61 67 67 69 70 70 70 67 69 68 71 77 83 80 83 87 85 79 83 87 88 86 84 85 83 82 85 89 94 94
94 92 71 73 86 85 78 60 59 57 54 55 56 59 63 67 70 72 74 73 71 70 70 71 76 81 85 81 86 87 88 80 83 84 86 89 88 88 87 91 92 91 96 95
98 98 96 100 95 95 93 69 55 59 60 60 61 65 64 68 74 74 78 74 75 81 77 77 80 84 89 87 90 92 92 90 90 92 90 91 89 89 90 88 90 95 95 97

GFSCGP_sfc_rhum_072.txt.gz
RH
44 50 52 42 38 42 43 45 46 39 29 32 32 29 24 21 18 16 25 28 36 46 46 61 75 81 93 94 94 93 96 96 97 98 97 99 98 99 99 97 94 94 90 78
62 62 46 40 42 47 47 49 48 35 26 29 34 32 25 20 18 16 24 30 36 50 57 61 78 83 93 95 93 95 95 96 96 89 90 91 94 98 94 96 96 93 88 81
68 59 47 46 49 50 47 49 50 48 31 29 33 36 30 24 17 17 22 25 29 50 57 58 73 82 96 96 96 95 96 94 94 94 95 98 97 99 99 98 98 98 94 83
72 68 57 57 59 53 56 40 48 51 45 52 40 65 35 26 21 18 18 25 30 44 51 52 63 82 96 96 96 96 96 94 91 93 90 95 90 95 90 92 93 94 94 89
69 78 80 73 59 48 58 46 62 56 65 67 47 55 38 26 24 22 20 20 32 43 50 53 57 75 86 93 95 96 95 95 94 91 89 92 92 87 92 91 91 91 94 90
67 67 71 64 58 51 48 68 66 58 64 83 49 48 44 30 22 20 20 19 26 44 48 49 54 71 89 97 91 96 96 95 94 90 90 88 90 88 91 92 93 91 86 89
68 74 64 60 67 61 65 90 87 80 83 77 40 43 38 28 23 23 23 20 21 41 49 53 62 73 95 98 92 89 94 95 96 93 91 86 82 82 86 88 86 86 89 85
58 66 66 59 59 73 66 90 95 91 93 80 47 49 34 23 18 18 18 19 27 45 50 55 61 64 90 95 91 86 86 84 90 90 90 85 81 80 85 91 87 82 81 78
53 58 49 51 45 49 69 92 67 94 88 91 65 50 30 28 24 21 20 23 38 48 54 55 57 60 84 94 95 93 88 85 87 90 88 87 85 87 87 84 89 86 78 74
49 58 39 49 47 50 60 58 90 99 96 94 61 54 56 40 35 29 36 40 42 48 54 54 53 58 72 84 90 94 94 90 88 85 86 85 83 79 82 84 82 86 84 81
64 60 55 48 64 60 84 95 94 82 81 97 92 90 52 54 39 38 42 44 47 50 45 55 53 55 65 75 82 94 93 94 88 79 82 81 82 78 80 82 82 78 79 80
61 72 91 60 45 43 59 78 93 99 89 81 94 88 72 72 55 41 44 45 50 55 53 55 59 62 72 77 76 83 88 91 92 89 88 87 82 79 78 80 79 78 74 73
57 81 94 64 62 54 60 54 75 82 88 98 99 85 75 80 61 51 48 55 58 62 67 73 77 74 73 73 75 77 82 84 89 90 91 88 86 84 82 80 77 77 77 73
62 71 80 89 80 73 97 66 67 87 99 85 90 76 86 80 77 68 54 58 58 65 73 74 79 84 84 84 82 80 78 74 81 85 90 89 86 85 84 82 79 78 77 78
73 81 86 78 69 60 64 67 75 91 78 92 71 78 67 82 87 81 56 56 61 69 68 72 79 82 81 83 81 79 77 76 79 82 87 90 88 85 85 85 82 82 83 76
75 86 88 85 67 66 66 61 67 82 78 87 77 75 74 86 79 82 59 61 70 71 68 68 72 75 76 74 78 77 76 78 76 79 83 83 87 87 87 87 86 85 83 82
79 83 93 95 81 78 88 69 59 73 62 72 93 76 84 83 75 65 70 66 72 71 71 72 75 76 75 74 74 78 76 75 77 79 78 80 81 83 84 85 86 87 87 86
82 81 90 95 92 94 56 40 41 50 60 75 77 76 77 80 69 59 58 69 75 74 74 74 74 75 75 74 75 74 71 72 75 75 75 76 80 84 82 84 86 86 87 90
68 80 94 92 95 63 39 48 59 66 86 78 78 75 83 74 67 66 61 65 75 74 74 74 73 74 76 78 72 73 75 74 74 76 75 75 78 80 83 89 92 92 92 88
63 72 84 96 91 90 66 45 47 56 98 82 73 85 84 70 90 81 64 63 68 71 71 74 73 74 77 78 75 78 78 78 80 78 75 73 76 78 84 89 92 92 92 94
88 88 85 87 92 75 52 45 44 82 96 74 68 71 66 74 70 66 65 66 66 68 70 69 71 76 77 77 76 84 80 82 77 75 75 76 76 77 81 85 87 90 92 92
86 95 94 90 94 87 44 55 63 90 83 77 76 74 78 72 69 69 68 70 70 70 68 66 72 78 78 80 82 87 86 76 78 78 80 81 80 76 76 84 87 87 88 91
97 93 94 76 70 83 79 81 72 72 80 83 71 67 69 75 74 72 73 71 71 71 69 68 73 78 80 81 85 89 84 80 81 82 82 81 80 80 80 87 88 89 88 91
83 78 99 82 63 78 76 66 66 62 70 70 64 66 66 72 72 74 73 71 72 71 73 72 77 83 88 85 87 92 82 77 80 83 84 83 82 83 83 81 84 89 91 91
98 94 96 91 91 88 82 78 66 66 61 64 65 66 71 72 75 74 76 75 74 76 78 77 82 86 90 86 89 88 87 80 84 86 84 86 86 86 87 92 92 91 96 94
99 99 99 99 100 96 97 80 62 66 64 64 69 74 70 72 77 77 81 78 80 83 82 84 84 85 89 90 91 92 91 88 89 91 90 91 91 90 90 88 91 90 88 89

GFSCGP_sfc_rhum_075.txt.gz
RH
47 48 52 45 42 47 48 52 55 49 37 40 40 36 31 29 30 28 24 20 29 45 38 68 85 93 97 98 97 97 98 98 98 99 98 97 99 99 99 99 96 96 94 87
59 64 46 40 40 47 51 55 55 46 37 38 39 39 31 27 29 25 22 20 22 50 69 84 92 96 97 96 96 96 97 97 95 90 92 93 95 98 98 98 98 97 94 90
62 55 54 50 53 56 57 56 56 53 46 39 46 44 34 27 27 25 19 18 27 49 64 83 89 96 96 97 96 94 96 98 92 87 95 97 98 99 99 99 99 96 92 90
67 59 60 61 62 59 71 46 46 60 65 67 44 68 44 36 31 26 22 27 34 52 56 69 82 97 94 93 92 90 90 97 97 94 90 92 89 96 89 94 98 98 93 90
69 76 81 78 64 56 66 54 68 66 74 69 64 68 48 35 33 27 23 21 28 45 56 62 76 87 94 87 87 86 86 85 91 97 90 92 90 90 94 94 97 98 98 95
69 72 71 71 62 58 49 75 79 70 68 98 65 58 59 41 30 24 22 24 23 36 52 54 64 82 93 83 85 88 89 89 93 96 96 94 89 90 98 95 96 96 99 98
72 80 71 65 73 70 64 87 90 94 96 87 50 55 45 34 28 26 24 21 23 36 50 58 72 91 90 88 87 89 92 91 90 97 97 96 94 90 90 95 94 95 95 95
68 52 79 67 67 78 77 82 92 92 93 75 47 58 41 27 23 28 28 24 23 27 46 57 68 86 93 87 85 87 92 90 87 90 91 96 94 86 85 87 89 91 89 86
56 54 59 64 56 63 90 96 69 99 92 95 72 53 37 37 36 37 47 35 30 43 48 58 67 83 93 88 86 86 86 93 86 84 87 95 92 89 86 92 90 86 86 82
46 58 45 56 56 62 74 64 96 99 96 96 71 56 72 73 68 52 53 59 58 62 62 62 66 81 88 91 85 83 81 91 81 81 79 85 93 91 93 95 96 91 88 83
60 56 55 64 78 82 86 92 94 86 87 98 95 95 74 94 85 64 61 68 76 62 64 62 66 80 93 95 86 84 83 88 82 83 81 84 95 91 85 89 92 94 94 93
61 78 90 70 52 54 74 80 94 99 94 89 99 86 74 85 83 63 68 74 81 79 71 70 76 84 88 93 94 91 90 86 82 92 82 79 94 86 85 85 88 88 90 92
55 77 85 68 69 62 77 72 80 86 93 99 98 85 76 76 78 71 68 78 77 80 84 84 85 88 88 90 92 96 95 93 86 85 84 86 95 93 88 83 83 83 84 84
62 73 76 81 84 75 90 74 75 87 100 97 95 88 90 83 83 80 68 73 79 80 81 83 86 86 88 90 89 88 90 92 95 94 87 87 96 94 92 88 85 83 82 81
68 69 89 82 77 71 70 69 66 92 96 99 74 72 68 84 84 83 81 70 71 75 81 83 85 85 84 88 86 83 84 80 81 92 97 96 96 95 94 94 91 87 86 83
76 84 89 85 70 71 65 57 58 59 74 86 90 83 70 80 85 90 86 79 74 76 77 78 78 77 78 78 79 77 77 78 78 81 79 78 80 83 91 92 92 92 91 86
75 82 89 89 79 78 78 72 51 56 68 70 85 74 82 90 89 90 90 80 79 78 75 76 79 79 78 78 75 76 73 71 74 76 76 78 80 83 81 80 84 91 91 88
84 83 92 95 86 86 49 27 53 58 58 63 66 71 77 86 86 88 88 87 83 76 78 77 78 79 79 76 75 74 71 73 74 74 75 75 78 78 80 82 86 87 90 94
74 81 94 90 92 56 39 55 70 78 83 78 74 86 81 80 79 92 84 79 82 82 80 79 76 76 78 77 77 75 76 74 74 76 75 75 76 78 82 87 88 89 92 94
77 76 82 94 91 87 60 44 49 53 90 74 80 88 83 75 94 99 85 76 73 72 71 74 75 77 79 79 76 78 79 78 80 79 77 73 73 77 83 87 89 89 89 89
89 91 90 94 91 78 52 41 51 78 98 81 82 81 86 86 88 94 80 75 69 70 70 71 75 83 83 78 77 81 83 87 80 78 78 78 75 76 80 82 84 86 88 88
83 93 98 91 92 88 72 78 70 75 92 86 83 79 87 87 79 72 71 71 70 71 71 72 80 84 82 83 78 84 86 84 78 77 79 80 81 77 78 84 85 86 87 90
90 86 91 81 77 87 82 83 79 85 91 89 92 91 84 84 84 85 75 75 73 72 74 74 80 83 84 83 86 87 82 82 82 82 81 82 81 80 79 85 87 88 86 89
87 84 97 97 90 91 87 77 73 73 89 88 90 89 88 85 78 75 74 74 76 77 79 76 78 84 89 87 87 88 81 81 83 85 86 83 84 85 83 79 81 85 87 88
98 92 88 85 94 85 90 88 94 94 72 71 69 70 71 74 76 76 77 78 79 80 79 78 83 86 90 86 88 90 81 76 82 83 82 86 87 88 88 91 92 90 95 91
99 99 94 98 99 94 96 95 95 99 92 72 73 75 72 74 79 78 83 81 81 84 81 82 81 81 90 89 91 93 93 87 89 89 89 94 93 93 93 90 92 82 81 81

GFSCGP_sfc_rhum_078.txt.gz
RH
46 48 54 47 47 42 52 58 62 60 42 47 43 44 39 35 35 34 32 32 30 26 28 54 88 97 98 98 98 94 96 98 94 96 97 99 99 99 99 99 95 95 91 92
56 62 47 40 40 43 46 55 61 50 43 45 52 51 40 36 35 31 28 28 28 28 53 80 94 97 97 94 91 96 97 95 94 94 96 92 96 99 99 99 98 97 96 95
59 46 51 48 53 56 61 65 63 58 50 52 54 50 42 33 32 30 29 26 24 24 55 87 96 96 97 90 90 93 94 92 97 93 96 99 98 99 100 99 99 98 97 95
63 50 51 64 64 61 76 56 55 56 75 75 60 80 51 43 37 33 29 28 25 32 47 77 90 96 94 87 86 95 97 90 86 88 90 97 96 98 96 99 99 98 97 96
69 76 80 76 65 60 69 61 72 74 84 88 76 85 62 44 42 36 31 28 25 38 56 75 84 89 91 87 94 97 98 92 88 88 86 97 96 94 96 99 99 99 98 94
66 72 70 68 65 63 58 73 78 82 83 94 69 79 68 47 37 30 27 24 25 30 59 67 83 93 85 83 95 95 89 88 88 91 85 96 93 94 99 99 99 99 99 98
68 78 74 67 74 74 77 82 94 96 95 86 57 75 59 36 31 31 35 38 33 27 51 69 89 97 87 90 85 82 85 86 84 93 90 91 95 94 96 96 97 98 98 98
73 49 80 70 67 79 90 84 91 96 97 92 52 66 48 48 54 46 51 57 57 35 40 64 79 93 90 85 82 87 89 86 90 88 93 96 96 97 97 96 95 94 95 96
60 52 69 71 64 64 80 98 84 99 88 96 73 58 54 69 73 62 68 75 82 78 44 58 69 90 91 84 85 85 88 84 88 88 88 95 98 96 88 91 93 93 92 91
46 56 52 62 62 71 75 69 99 99 97 95 74 76 85 82 80 73 82 90 90 77 66 65 79 91 87 84 82 85 85 84 82 83 84 89 90 94 92 97 94 90 91 90
53 53 58 69 81 87 87 91 93 94 98 95 97 90 78 88 86 76 79 77 85 81 71 78 95 96 82 82 83 86 84 90 83 84 86 90 93 92 95 94 96 96 90 89
63 74 78 69 57 65 68 86 91 99 99 96 97 88 84 86 72 77 80 82 84 87 88 91 91 86 83 85 88 91 88 83 80 86 87 90 92 92 96 90 90 95 96 90
62 84 76 72 70 69 90 88 85 89 98 96 98 86 81 86 74 74 80 78 83 83 84 85 89 91 92 90 91 91 90 86 84 88 89 83 92 92 96 95 92 90 93 95
60 75 66 69 68 80 87 68 64 91 99 96 94 81 80 88 85 78 86 80 80 82 83 84 86 90 90 90 90 90 90 92 90 85 81 87 92 90 96 95 95 95 92 90
63 71 87 84 76 79 78 77 72 76 82 98 75 77 67 79 83 89 85 74 79 80 81 82 85 86 85 88 86 86 86 86 86 92 88 90 91 95 93 94 94 94 93 92
76 91 86 76 71 65 60 45 52 58 64 79 82 80 63 77 84 89 90 74 77 77 78 81 80 80 81 80 81 78 78 80 78 80 80 80 81 83 85 88 94 94 92 90
76 83 83 82 71 68 55 64 47 55 54 62 77 69 70 81 86 88 91 88 82 80 79 80 82 83 80 77 74 79 78 74 74 76 77 78 78 80 82 81 83 87 92 92
86 82 87 93 77 77 39 33 43 77 73 66 66 74 84 93 94 92 83 86 88 88 82 82 82 82 79 75 72 71 72 73 74 75 76 75 78 81 81 82 85 87 90 92
75 84 98 88 92 60 50 62 71 69 62 67 73 91 92 87 83 95 86 87 90 91 92 86 80 80 79 77 72 72 74 75 78 79 76 74 77 81 84 88 88 88 87 88
82 78 80 92 91 84 52 46 52 58 86 82 82 87 89 82 96 99 93 85 87 82 82 84 86 84 82 79 74 78 81 82 84 82 79 74 75 79 84 86 87 87 85 86
91 94 94 96 91 77 60 75 70 86 83 91 85 80 84 96 94 100 97 81 72 74 77 78 81 87 87 77 77 83 83 85 80 78 78 79 77 80 81 83 84 86 88 87
83 93 98 91 96 92 85 86 90 93 91 90 92 89 96 97 97 100 97 85 74 78 78 78 84 87 84 82 77 83 88 80 78 79 80 82 82 79 78 84 85 84 86 88
89 87 96 86 81 94 81 82 83 84 92 90 94 99 96 97 98 98 96 90 80 79 79 76 80 84 85 84 82 86 85 83 81 79 82 82 80 81 82 86 87 88 87 89
91 84 93 95 92 92 90 84 82 81 89 92 89 96 100 98 97 95 85 80 82 80 82 76 79 85 89 86 86 87 80 79 79 80 84 82 82 84 82 80 83 87 90 91
99 91 92 84 95 96 96 95 90 88 87 92 93 95 95 86 82 80 81 81 82 83 82 80 83 84 89 86 89 89 83 77 81 82 82 89 87 87 88 91 91 89 95 91
98 99 95 98 100 99 99 98 98 95 96 95 89 91 86 79 81 79 85 83 82 86 83 84 81 83 89 89 91 93 92 87 90 94 93 95 94 94 92 89 92 84 82 83

GFSCGP_sfc_rhum_081.txt.gz
RH
35 36 40 34 37 29 32 37 38 39 34 36 33 31 28 28 29 29 26 24 23 22 19 19 37 66 73 77 86 86 90 91 94 97 95 97 95 92 92 94 88 91 90 90
48 48 37 35 35 38 38 40 40 38 36 37 37 37 32 31 30 27 26 24 22 21 20 23 48 72 75 79 85 88 89 92 95 88 82 85 86 92 90 88 91 92 93 94
55 40 45 40 41 44 45 51 52 51 43 41 44 40 29 26 26 25 26 24 22 22 22 24 57 71 74 78 85 86 87 91 91 87 83 90 93 96 99 98 96 97 96 95
53 40 45 52 52 51 64 49 50 55 59 62 47 60 39 32 29 28 26 27 25 23 22 22 50 67 74 75 80 83 86 86 88 82 76 91 86 90 91 98 93 97 94 96
50 66 67 55 49 51 58 52 57 59 63 68 56 64 43 37 35 30 28 27 25 25 25 27 50 58 68 74 79 84 85 87 86 75 73 87 87 85 93 98 98 97 98 95
46 61 62 56 57 54 52 59 61 65 66 82 53 56 47 39 34 30 25 25 29 31 28 40 52 63 71 73 82 87 88 86 85 78 79 86 76 84 95 97 98 99 98 94
60 66 63 59 60 63 62 69 69 74 85 61 47 60 48 43 61 54 55 55 54 55 34 55 66 69 74 79 88 86 86 88 88 88 85 84 76 83 88 88 91 97 98 98
57 46 68 62 53 55 72 65 67 80 76 69 54 60 49 62 57 60 64 68 67 66 62 47 61 72 72 77 85 82 79 79 88 88 84 83 76 73 77 79 82 83 86 90
55 43 62 65 57 52 77 82 66 92 75 88 54 45 58 56 60 60 66 68 75 75 61 54 54 71 73 77 80 76 78 80 86 86 85 88 81 77 76 81 81 86 90 90
41 46 49 63 56 61 70 66 98 98 86 79 57 60 67 78 74 70 75 78 82 82 71 58 60 78 76 74 75 84 80 82 83 84 86 86 85 80 78 84 87 90 89 86
42 46 61 62 66 68 79 95 87 93 92 77 74 62 76 82 83 88 81 82 86 88 85 82 76 73 79 77 84 86 84 85 83 78 83 86 87 87 84 82 78 80 87 87
54 60 60 64 54 55 65 76 72 89 86 91 86 70 76 84 83 84 78 79 82 85 88 90 83 80 86 87 87 88 87 84 80 75 77 84 87 87 87 79 81 85 80 78
76 74 74 67 70 76 80 82 86 83 90 85 88 61 71 72 76 81 82 80 81 83 86 86 89 92 92 91 90 88 84 79 77 77 81 86 87 88 88 81 78 84 84 76
82 77 64 57 62 62 74 62 56 82 93 97 81 62 56 68 74 84 86 80 81 82 84 85 87 89 90 91 91 92 94 90 86 83 83 83 84 86 85 82 81 78 76 79
84 93 78 66 63 68 68 57 50 54 60 73 46 53 48 56 69 88 84 81 80 83 85 86 88 86 85 87 87 86 86 86 87 85 85 88 87 90 88 85 82 81 82 79
87 93 85 70 60 49 44 35 37 43 47 50 52 59 48 54 64 86 83 83 85 86 86 85 84 82 81 81 82 80 80 80 80 82 82 79 81 82 85 85 90 92 91 89
79 80 69 55 56 49 40 43 37 46 54 60 70 56 48 73 81 88 86 81 89 92 88 88 88 86 78 76 76 84 80 74 76 77 77 81 80 82 82 81 84 89 91 89
83 68 72 63 60 47 32 33 38 45 52 40 51 68 73 92 94 89 84 89 92 92 87 86 87 83 80 69 69 75 76 82 84 80 78 76 79 81 81 82 85 85 86 88
70 72 75 70 66 42 45 48 51 50 37 79 82 88 87 87 85 95 88 88 95 95 99 89 81 79 73 69 69 69 70 72 76 80 79 76 77 80 82 86 85 82 82 85
73 66 66 82 66 56 40 58 66 61 58 82 84 86 90 86 98 99 98 91 92 94 96 93 96 80 77 73 68 71 74 77 81 79 76 73 76 78 82 84 86 83 82 83
80 80 78 78 74 61 80 74 70 45 82 87 90 84 81 95 97 100 100 98 96 87 81 79 82 91 92 76 70 78 78 83 77 74 75 77 74 77 78 79 78 80 82 83
68 82 87 79 84 78 79 68 81 92 88 88 93 91 94 98 98 98 98 94 79 80 78 76 81 84 81 74 77 81 84 76 73 75 77 78 79 75 74 78 79 79 80 83
86 84 84 69 64 89 83 84 82 86 91 92 94 94 98 97 98 98 97 94 90 79 78 78 80 82 84 82 73 81 81 74 75 76 77 76 74 74 74 78 80 80 79 83
86 85 98 82 81 93 88 83 83 86 94 94 96 98 97 97 98 97 93 86 79 76 79 76 77 81 86 82 81 78 74 70 72 76 77 75 76 75 71 69 72 76 81 82
96 84 86 78 84 92 95 96 97 95 93 91 94 96 97 94 93 86 81 79 77 76 75 73 76 79 84 79 83 82 73 69 73 75 77 80 78 79 83 85 81 82 91 82
96 99 89 92 96 98 97 91 93 95 96 96 92 93 95 88 90 82 80 78 76 77 72 72 73 76 82 83 86 87 84 82 85 87 82 82 81 82 80 80 86 84 84 82

GFSCGP_sfc_rhum_084.txt.gz
RH
22 24 25 21 24 20 19 20 21 20 17 24 25 21 18 16 15 18 19 18 16 16 13 11 13 21 33 40 50 59 76 72 78 79 80 84 80 84 89 82 85 86 90 91
31 28 17 17 21 26 24 25 24 21 22 29 27 26 21 19 18 18 18 19 18 17 14 12 13 23 39 44 53 63 73 76 72 62 66 70 75 80 70 68 67 71 78 81
32 26 28 27 30 32 30 30 28 31 32 31 33 28 21 20 18 17 17 17 16 17 16 14 13 20 39 44 55 66 72 70 70 60 70 65 73 81 84 76 74 82 89 90
34 26 36 33 32 30 32 30 38 40 42 38 32 37 22 22 21 20 20 19 17 16 15 14 14 16 35 43 53 65 70 64 70 66 69 67 61 73 63 83 84 82 83 94
33 38 38 37 32 35 38 40 42 43 44 44 38 40 21 23 26 24 20 20 19 17 16 15 14 14 28 41 56 67 72 67 69 74 60 61 63 64 61 90 88 92 94 94
29 36 47 38 38 30 38 46 43 43 46 65 37 35 22 27 41 39 35 32 30 28 29 24 19 18 28 42 58 76 78 73 73 75 59 64 66 66 68 92 97 94 94 93
28 35 30 45 44 44 43 46 42 57 72 42 34 39 30 40 44 46 47 44 41 40 39 36 29 31 38 51 71 81 80 80 80 66 59 67 65 66 72 91 96 97 97 98
37 43 40 41 40 34 42 36 43 52 45 35 36 42 36 42 41 41 42 45 46 49 48 39 33 40 45 54 79 82 80 82 80 62 64 72 60 64 70 78 78 84 91 93
40 36 43 49 42 35 52 62 43 66 52 58 31 30 42 39 43 47 48 51 55 59 59 52 35 46 52 58 81 84 79 77 80 66 71 77 64 67 73 77 70 68 71 80
41 42 40 50 47 47 50 43 80 70 73 57 31 35 42 55 61 56 52 55 62 68 73 70 47 53 51 63 76 80 66 74 76 73 75 77 69 62 65 66 72 72 72 81
41 37 49 52 56 47 66 75 75 77 77 63 46 41 54 67 69 58 51 63 71 77 81 83 61 56 60 66 74 76 67 73 75 71 74 73 73 69 70 69 68 68 72 77
54 49 42 45 46 38 42 53 57 69 75 72 81 49 52 60 56 52 71 64 72 76 80 83 87 73 75 78 80 81 74 76 77 71 71 70 70 73 77 74 65 66 67 70
92 56 52 54 53 50 55 64 76 76 71 69 80 54 45 48 49 63 67 64 74 79 80 82 85 92 90 88 87 86 83 81 78 75 76 77 75 78 79 76 70 72 72 70
94 85 52 45 48 49 61 51 50 59 81 68 56 41 32 28 33 58 70 66 72 81 83 83 85 88 90 90 92 93 89 83 80 76 76 79 80 79 80 79 75 78 78 78
98 88 68 46 41 40 41 41 38 42 46 50 33 26 28 34 43 52 70 71 76 81 84 86 87 87 87 89 89 88 90 89 86 86 84 88 88 87 85 82 80 73 72 69
98 96 95 80 44 34 33 24 23 25 26 30 36 38 32 37 42 76 73 75 80 84 86 86 84 82 83 85 87 85 86 85 82 82 82 81 82 82 86 88 90 90 91 89
99 68 73 80 42 33 35 31 32 37 38 41 49 43 38 51 82 83 85 81 85 88 88 90 86 88 82 83 85 88 84 80 80 78 80 81 81 82 85 83 85 88 90 88
97 78 44 49 45 43 31 32 28 28 40 59 58 66 80 84 91 90 90 95 94 93 91 91 91 89 87 83 82 83 79 81 83 81 80 78 81 83 80 81 82 85 87 88
64 68 55 54 45 29 31 40 46 44 47 61 58 62 77 82 88 98 98 99 99 100 100 98 97 91 81 81 83 87 86 84 76 87 90 84 82 83 82 83 82 80 82 86
52 59 60 58 46 36 51 41 45 47 51 56 63 71 77 83 98 97 100 98 97 99 100 100 98 91 80 73 69 76 79 79 89 93 85 78 87 86 82 81 81 80 78 81
61 58 62 55 56 43 57 48 42 58 77 72 78 82 80 90 94 99 99 99 100 100 97 97 99 98 92 69 69 74 76 80 73 76 76 72 73 76 74 74 73 75 77 78
52 56 62 51 59 62 62 49 64 81 80 84 83 84 92 95 97 98 99 98 95 88 72 67 72 75 68 72 75 74 75 70 73 73 72 74 72 68 68 71 72 71 72 77
81 82 73 51 74 82 77 78 75 82 94 91 84 88 94 98 98 98 96 96 91 86 74 66 68 70 70 65 61 73 87 79 74 70 70 72 68 64 63 68 70 70 69 75
70 64 98 70 94 93 91 81 78 82 93 89 89 87 97 97 96 96 95 92 86 75 67 65 67 70 76 71 68 66 64 62 65 68 72 73 72 67 64 65 67 70 76 78
76 69 73 65 92 92 83 83 78 81 84 90 96 99 97 96 94 92 85 74 69 65 64 63 69 71 76 72 74 69 61 59 64 67 69 74 74 76 80 85 80 79 89 84
86 96 83 92 92 90 89 81 80 91 93 90 89 94 96 90 91 87 87 86 82 73 65 64 64 69 75 77 80 82 79 78 84 85 77 76 75 77 75 76 82 81 81 79

GFSCGP_sfc_rhum_087.txt.gz
RH
19 18 19 18 19 17 16 16 14 11 9 13 16 15 14 12 12 12 12 12 14 14 11 11 11 10 13 20 28 37 57 61 60 68 72 64 78 69 78 79 85 87 85 85
19 25 18 13 15 18 21 21 18 14 12 15 18 20 16 15 15 13 13 13 13 14 13 12 12 11 19 26 33 40 54 58 66 63 57 57 61 60 63 68 77 82 91 92
24 19 19 16 16 20 21 23 21 19 16 18 21 20 17 15 14 14 13 13 13 13 14 13 13 12 21 29 36 40 49 53 63 58 51 54 57 62 69 76 70 70 75 77
22 19 22 25 23 20 25 16 19 23 31 29 18 30 19 15 14 16 16 17 16 14 13 13 14 13 18 30 36 39 46 51 58 54 52 57 58 61 59 58 55 62 67 70
25 25 27 28 26 21 24 20 31 31 32 34 28 26 19 15 20 24 24 24 22 16 14 14 14 13 11 25 35 43 49 51 55 54 54 56 55 48 50 57 73 72 77 78
22 17 24 26 24 24 22 30 34 33 32 43 29 26 17 20 34 37 34 32 32 28 25 19 17 16 12 18 36 50 55 52 60 56 56 57 55 51 56 70 81 82 83 84
21 21 18 23 34 31 28 40 48 46 56 48 22 27 22 31 34 38 39 37 37 41 41 37 27 20 17 23 40 54 62 62 61 59 55 55 53 56 56 67 75 90 91 93
26 29 19 18 30 33 36 37 46 44 40 41 29 34 27 31 39 35 33 35 38 42 47 48 43 28 23 25 40 65 73 72 69 60 53 54 53 52 53 65 80 85 85 88
44 31 25 28 26 29 32 40 27 39 35 43 31 18 31 31 41 36 33 36 42 46 54 59 58 30 32 35 73 77 77 73 70 56 52 58 57 59 57 67 75 82 79 81
49 47 29 30 34 31 29 33 60 58 60 51 26 23 39 57 44 35 35 42 46 48 58 69 64 60 39 62 71 82 78 72 67 52 57 60 59 60 58 63 67 75 78 81
52 54 39 31 43 40 42 57 56 51 49 54 49 49 51 49 40 39 39 44 49 54 62 78 76 81 69 67 73 83 80 75 72 57 62 64 66 67 65 71 72 66 68 67
72 91 55 42 30 31 46 43 46 66 49 44 57 50 44 39 39 41 43 45 51 56 65 80 81 83 79 76 80 82 81 73 72 61 67 69 68 70 70 71 66 65 63 66
72 74 68 39 47 35 40 47 48 53 58 65 67 57 52 27 22 33 44 48 51 59 66 78 82 85 88 89 81 83 81 75 74 71 70 76 78 78 73 70 74 76 75 70
96 80 62 54 48 49 43 38 46 54 74 55 50 36 28 22 28 30 50 52 54 62 70 78 83 85 87 89 91 93 90 84 80 75 72 75 77 76 76 74 78 72 69 78
100 90 67 51 52 53 53 49 45 50 46 53 33 25 21 29 32 48 55 57 60 66 72 81 85 86 85 88 88 89 91 92 86 86 88 91 90 82 80 86 88 78 81 79
80 90 93 69 33 32 34 29 26 24 21 20 20 28 47 57 48 65 67 67 69 72 80 81 81 83 86 88 89 88 89 89 86 86 86 84 86 87 88 88 88 89 88 89
91 93 97 77 53 34 39 27 21 26 28 38 61 58 57 80 89 92 88 84 88 90 87 88 87 90 89 91 91 93 89 86 84 84 84 84 84 85 85 84 86 89 90 89
81 94 95 69 48 62 42 23 23 24 44 42 43 46 74 85 91 94 96 95 96 100 99 98 94 91 93 94 92 92 88 90 88 87 86 84 85 84 82 83 85 88 89 91
66 94 77 62 82 33 30 34 38 41 64 57 54 52 66 75 74 95 96 96 99 100 100 100 100 98 98 91 99 95 98 95 92 95 93 89 86 87 87 87 86 84 86 87
54 55 72 47 42 49 65 36 33 34 57 60 59 66 64 72 98 98 98 94 96 99 100 100 100 99 100 99 97 96 96 97 98 100 99 95 92 86 92 97 90 86 84 84
57 53 58 56 47 42 49 39 35 53 88 76 66 73 83 93 96 98 100 100 100 100 100 99 100 99 98 98 96 94 92 93 99 99 97 90 88 93 96 95 87 85 82 81
44 50 54 45 48 59 58 43 66 77 74 81 75 78 88 93 95 96 100 100 96 94 94 92 92 95 100 100 97 94 91 93 85 86 80 82 82 79 80 81 80 78 80 81
77 70 78 77 94 76 68 75 69 74 93 88 81 81 83 93 100 100 100 99 93 90 86 73 72 76 79 81 89 96 97 78 76 75 74 74 76 74 73 78 79 77 74 79
57 50 71 69 84 81 73 63 68 75 86 82 81 80 87 97 99 99 98 93 90 87 84 80 80 80 78 70 68 72 76 82 87 86 79 74 76 74 69 72 78 84 87 86
72 55 64 91 88 73 66 69 74 78 82 86 87 97 97 97 95 92 90 86 83 67 60 61 66 70 74 72 76 72 59 58 66 68 70 78 80 80 83 87 82 80 91 89
83 96 86 94 80 76 82 74 76 91 97 80 81 94 96 89 92 89 90 92 89 88 82 72 67 70 75 77 80 81 80 76 83 83 76 77 74 75 74 76 83 78 78 77

GFSCGP_sfc_rhum_090.txt.gz
RH
21 22 21 18 16 16 17 19 20 16 14 15 15 12 10 10 10 12 13 13 12 13 13 14 17 20 18 17 22 62 69 72 71 70 75 75 78 77 88 85 88 86 84 88
25 28 18 15 16 17 18 21 21 18 16 16 15 14 12 12 14 14 14 14 14 14 13 15 17 23 27 25 35 60 67 69 71 68 72 70 73 75 80 84 84 88 89 91
25 21 16 17 19 18 18 20 19 19 16 16 18 19 18 13 12 13 14 15 15 15 16 16 18 23 30 35 47 52 63 66 68 71 69 70 73 76 82 82 82 86 86 91
18 16 18 19 23 20 25 17 18 19 20 27 19 33 24 15 13 14 17 21 21 18 15 15 17 22 26 40 51 47 60 63 70 71 66 72 73 75 75 76 75 80 85 91
24 20 21 22 22 21 24 19 20 23 30 34 32 33 21 16 15 14 26 28 36 39 29 19 18 21 22 35 50 49 57 59 72 69 67 69 70 70 69 72 76 82 85 81
19 14 17 20 20 19 19 24 24 27 34 53 34 28 24 19 41 36 37 38 39 40 41 42 39 25 18 32 45 54 58 58 69 66 68 71 73 68 68 76 86 90 91 91
22 19 15 17 26 24 28 36 44 48 55 52 31 40 25 38 37 41 41 38 42 42 47 50 49 52 55 31 47 55 56 61 65 67 68 70 70 70 74 77 85 90 91 94
27 30 18 18 23 28 29 33 44 62 55 42 44 70 31 39 37 33 33 36 40 45 52 56 56 58 71 46 52 56 59 60 68 68 67 67 66 68 67 74 78 87 86 93
54 38 29 23 18 19 30 65 32 55 51 56 34 62 56 50 38 32 38 41 46 49 56 64 62 68 77 58 57 66 67 66 70 65 66 68 69 68 71 79 83 84 84 82
45 60 28 26 43 22 27 26 61 60 82 56 32 28 31 90 44 35 43 49 50 52 61 70 69 78 77 73 78 83 74 71 74 68 72 69 69 71 75 80 86 86 84 84
44 62 45 33 69 45 32 41 50 61 59 67 70 68 81 79 73 42 44 49 55 59 66 75 75 78 82 80 76 79 82 80 78 72 72 72 70 71 75 79 78 82 88 85
66 71 67 44 30 49 62 33 44 86 64 49 62 63 84 85 42 39 44 49 56 59 66 74 78 80 82 86 90 80 86 86 82 85 75 76 78 76 74 79 79 80 82 83
55 59 71 42 30 58 66 59 57 54 69 90 98 69 54 42 29 42 51 52 57 62 67 74 80 85 84 87 89 91 93 86 85 86 82 85 85 85 82 82 80 78 80 82
80 66 58 72 54 54 92 68 50 66 100 75 84 69 80 56 55 55 58 57 60 66 69 74 82 86 86 86 89 90 93 92 89 88 88 87 86 88 86 86 87 86 84 84
95 91 58 48 44 49 57 86 46 56 62 92 61 53 78 84 81 72 63 61 65 72 74 77 85 88 88 89 88 89 91 92 91 92 92 95 95 92 91 91 91 90 88 86
59 81 83 69 44 45 81 62 71 76 76 64 39 66 63 72 80 84 78 76 82 84 85 83 84 87 91 91 92 90 90 91 89 91 92 89 90 90 91 91 91 90 89 88
68 74 76 74 53 71 97 43 43 32 46 48 64 72 56 74 91 94 92 86 89 91 94 93 90 93 94 96 94 96 93 88 90 90 88 88 86 88 89 87 89 92 92 90
63 78 85 82 85 93 38 22 24 58 57 51 50 55 67 83 92 91 85 87 91 93 92 97 98 96 95 94 93 91 90 92 92 93 89 86 86 87 86 87 89 90 91 92
52 72 94 96 91 51 44 34 36 45 93 59 59 59 60 74 83 96 89 92 96 98 99 97 99 100 99 96 96 92 95 94 94 98 98 90 87 90 89 90 91 88 89 91
44 78 95 96 68 72 98 44 32 31 95 72 64 71 73 73 98 99 97 97 97 100 99 98 99 99 96 99 98 95 96 96 96 99 100 98 94 92 96 98 96 92 89 91
64 80 92 91 60 96 68 49 38 54 99 78 71 75 81 92 95 98 100 99 100 100 100 99 99 98 99 99 100 96 97 98 100 100 100 100 98 97 98 98 97 96 92 92
59 62 62 59 56 93 65 55 76 87 89 79 74 75 84 93 97 98 99 99 96 97 96 93 93 96 99 99 97 97 97 100 99 100 99 99 98 97 98 99 99 99 98 98
91 79 98 95 98 84 64 74 70 79 89 84 81 81 84 89 96 96 97 95 93 94 92 85 86 91 96 98 99 97 99 97 95 94 95 98 97 97 96 95 98 98 95 93
74 53 78 86 94 76 71 71 71 76 86 83 82 89 86 91 93 96 95 92 87 88 89 88 90 91 92 91 95 96 98 99 96 96 95 95 94 94 94 92 92 93 95 94
83 65 68 87 81 80 74 76 76 79 78 82 88 97 97 88 93 93 92 89 90 89 89 89 89 89 88 82 86 89 76 74 86 90 92 93 90 90 90 91 90 89 94 92
88 98 90 96 91 89 92 77 78 85 90 81 82 93 97 88 92 90 93 94 93 92 92 91 92 90 90 85 88 88 88 83 84 87 88 86 82 84 83 83 86 76 78 78

GFSCGP_sfc_rhum_096.txt.gz
RH
32 31 34 29 30 30 31 32 32 26 22 25 26 24 19 20 22 21 18 17 16 14 12 16 17 19 21 22 29 78 87 90 94 94 97 96 95 97 98 98 97 97 96 95
48 40 28 24 26 28 29 30 30 24 21 25 25 23 17 17 21 18 18 17 16 14 13 12 16 17 23 22 24 64 83 90 89 90 84 92 88 95 95 97 96 94 94 94
47 34 29 29 31 33 30 31 30 32 27 27 26 25 23 19 18 17 17 17 18 20 16 13 13 18 19 28 26 62 79 85 85 84 91 97 98 99 99 98 93 90 92 95
31 22 26 28 32 31 38 27 27 30 38 42 28 44 30 24 26 24 22 31 67 68 65 59 59 66 77 68 36 48 76 82 80 84 90 94 90 95 96 94 96 92 94 96
42 34 33 34 32 27 31 30 33 36 44 44 37 52 30 29 28 26 30 65 70 71 68 70 68 67 67 73 77 71 78 81 81 85 87 90 91 94 94 97 96 96 96 96
37 30 29 30 24 26 26 35 39 42 44 55 38 49 40 36 51 80 72 74 73 77 77 76 71 76 81 84 90 89 81 82 84 80 84 85 91 96 97 95 96 97 98 98
37 33 32 30 37 30 33 49 70 74 80 55 34 46 40 42 78 79 83 71 75 77 83 83 83 84 81 84 91 94 90 88 86 84 86 86 87 90 94 94 96 97 94 97
76 68 44 37 44 47 38 38 59 84 80 67 47 69 64 75 69 72 74 79 72 80 78 80 76 78 79 80 86 97 92 88 90 90 90 89 86 84 86 89 94 96 91 91
80 69 38 34 38 46 52 55 46 64 62 80 66 50 65 71 74 78 79 83 82 77 79 78 74 77 79 87 90 96 94 94 91 90 91 92 86 85 89 94 94 97 97 95
65 72 45 41 32 34 48 49 74 89 88 79 67 57 83 86 86 84 87 86 77 74 77 76 75 79 81 87 89 92 95 97 97 96 91 88 89 86 88 93 96 95 96 95
68 76 61 48 49 58 44 70 80 80 75 78 79 81 89 85 86 88 82 73 76 77 78 77 77 77 78 84 88 90 91 97 91 94 96 92 91 89 89 92 95 95 95 91
71 75 88 57 40 36 42 56 91 99 92 86 91 85 82 90 87 85 78 73 73 76 78 82 79 80 80 83 85 88 89 92 96 91 97 96 94 91 91 94 96 96 94 90
69 78 76 46 41 48 58 54 79 96 97 92 96 89 87 87 92 94 83 79 77 77 79 81 84 85 85 86 86 87 88 92 92 96 95 96 94 94 96 96 96 93 93 92
68 81 67 68 57 64 74 63 61 80 96 91 82 88 95 96 93 86 77 75 76 77 80 81 85 87 87 87 88 89 90 90 92 96 95 96 97 97 98 96 94 95 96 97
81 94 84 74 65 61 61 58 56 59 64 98 96 100 100 97 91 80 73 73 77 82 83 85 88 89 89 90 90 89 90 92 91 93 96 98 98 96 94 94 92 92 91 90
90 94 90 70 55 50 62 56 55 56 80 87 95 99 90 83 76 82 82 80 83 84 85 85 87 87 91 92 92 91 92 94 92 94 95 95 94 94 95 94 94 93 93 93
93 93 88 79 64 64 78 61 49 91 99 96 99 99 86 89 90 93 88 86 90 93 90 94 94 92 96 96 94 96 93 92 92 93 94 93 92 93 94 92 93 95 96 94
75 87 91 83 78 88 89 70 69 92 99 98 94 87 84 90 90 89 87 89 92 96 95 96 96 94 96 98 96 93 90 94 95 97 94 91 91 91 92 94 97 96 95 96
56 77 91 91 87 76 92 100 100 98 97 88 80 81 85 85 78 92 88 90 96 98 98 98 97 97 94 97 98 98 95 95 94 97 98 99 90 92 93 96 97 94 94 94
54 58 81 97 96 96 98 90 71 87 95 79 76 83 83 88 95 96 94 93 95 97 98 97 95 93 94 97 97 94 97 96 97 97 98 98 94 96 96 96 96 95 93 94
81 84 91 90 95 94 90 80 66 82 98 83 80 81 84 88 93 98 98 98 97 98 96 90 93 97 97 95 95 96 96 97 98 98 97 96 97 98 98 98 97 95 95 93
82 95 96 96 96 94 85 75 89 97 89 82 81 82 91 96 97 98 97 97 95 94 92 90 92 96 96 93 93 96 96 98 97 96 96 96 96 97 97 97 98 98 96 95
98 99 97 97 96 97 94 97 96 86 87 92 87 90 91 95 98 97 97 96 95 94 93 87 89 90 93 95 94 94 98 96 96 95 96 96 96 96 97 97 97 96 96 95
94 81 96 84 97 93 91 91 91 87 91 94 90 88 93 96 97 97 97 95 94 94 93 86 87 91 94 94 94 97 97 96 95 95 95 95 94 95 96 94 95 94 96 96
89 81 86 93 94 91 89 93 90 91 90 91 94 97 97 93 97 96 94 92 93 91 89 87 89 90 94 91 93 94 92 94 88 80 84 91 90 93 93 94 94 92 96 95
95 98 95 96 93 90 95 94 96 95 95 92 89 95 97 93 96 94 95 96 94 94 90 90 89 87 93 91 93 93 89 90 91 92 87 84 80 83 84 86 90 83 87 87

GFSCGP_sfc_rhum_099.txt.gz
RH
36 34 35 30 33 35 39 39 40 34 26 30 26 24 21 19 24 24 24 22 20 19 16 15 15 16 21 25 29 60 83 92 93 94 96 97 98 97 98 97 96 96 96 96
52 43 31 28 29 31 33 35 35 29 25 28 28 28 22 22 21 21 19 20 20 19 17 17 19 19 21 19 29 50 79 91 93 91 88 92 91 96 95 97 98 96 97 96
53 44 37 34 36 37 37 38 37 35 29 31 32 32 28 25 24 22 21 23 28 62 76 75 72 70 74 52 37 49 75 91 92 89 90 99 99 99 99 99 98 98 96 96
38 29 30 31 37 38 47 36 36 36 41 48 33 48 32 29 31 25 27 42 87 86 78 76 76 80 86 85 83 61 70 89 88 88 89 93 89 94 92 90 91 98 95 95
40 39 38 38 34 30 34 32 36 37 49 49 39 56 38 27 30 40 86 84 89 83 84 83 82 80 81 80 81 91 62 79 82 88 88 91 90 86 94 93 98 96 96 95
36 34 34 33 30 30 29 32 40 47 50 60 38 48 38 33 56 89 83 82 81 82 83 81 75 75 78 71 84 90 91 80 82 86 88 89 88 96 98 97 98 97 97 98
52 39 36 38 45 42 44 50 62 72 78 56 48 59 45 87 85 85 88 87 83 78 84 84 82 79 78 80 80 88 92 90 87 90 91 92 92 94 95 96 95 96 98 99
77 55 51 37 54 55 58 47 64 72 82 71 54 72 56 81 82 72 72 78 78 82 75 79 77 74 77 82 86 86 94 96 94 91 93 94 95 95 94 94 93 93 93 93
77 72 43 41 39 37 52 70 60 71 68 76 62 60 86 77 81 79 80 79 83 86 77 78 77 73 78 84 89 92 95 96 96 92 96 96 95 96 94 95 94 93 93 89
68 63 53 46 32 35 52 53 87 86 94 77 64 67 67 90 84 78 86 86 85 81 76 78 75 76 80 84 89 92 92 96 97 97 95 95 94 94 95 95 96 98 98 97
64 70 62 44 49 52 50 51 67 86 87 94 80 76 82 95 91 86 88 84 84 81 77 77 76 77 79 83 87 90 91 94 97 97 97 97 98 97 96 96 97 97 97 97
73 74 83 63 45 43 50 81 88 98 85 88 92 90 82 90 90 93 94 94 74 72 74 76 78 80 81 83 85 89 89 92 93 94 97 95 98 98 97 96 96 96 95 95
69 77 73 44 43 50 60 56 68 86 89 92 95 95 82 83 90 96 98 79 74 74 74 78 80 85 86 85 87 88 90 92 90 91 98 99 99 97 98 96 95 95 96 97
64 75 65 62 56 76 80 64 56 75 98 88 83 74 88 96 98 91 95 74 76 76 77 81 84 86 88 88 88 89 91 90 89 89 97 99 99 99 99 97 97 96 96 96
78 88 81 74 73 72 69 64 62 68 66 88 69 84 100 100 96 94 78 78 80 82 83 89 89 91 89 93 90 88 91 91 88 90 93 97 98 98 98 97 96 95 95 95
92 92 93 87 60 56 65 56 56 60 66 68 57 82 98 98 95 83 84 83 85 86 86 88 88 90 91 95 93 90 92 92 89 91 93 93 94 96 96 96 96 96 95 94
96 96 91 81 55 60 67 69 62 53 93 79 97 99 93 94 88 91 88 85 87 89 89 90 92 94 94 95 94 94 91 89 92 94 93 92 95 93 94 93 94 96 97 95
75 88 88 86 82 80 75 93 72 84 98 100 99 99 93 89 90 90 89 88 90 93 90 92 94 94 96 94 96 89 87 92 94 99 97 97 94 95 91 92 94 95 95 96
60 72 92 92 94 70 73 100 100 97 97 97 89 88 85 84 79 92 90 92 96 98 97 97 97 97 95 95 97 91 93 89 91 95 96 99 100 99 96 95 96 96 95 95
61 66 83 99 95 96 98 96 99 98 94 87 77 84 89 88 95 96 94 93 94 96 96 97 97 93 93 96 92 92 94 92 95 96 97 94 98 97 97 97 97 96 94 96
79 87 85 82 94 90 95 99 99 97 98 86 81 88 93 94 95 98 97 97 97 96 96 93 96 97 97 93 90 93 93 96 97 96 96 96 96 97 98 97 97 96 96 95
93 94 96 95 96 93 92 96 95 96 94 87 80 91 92 96 97 97 97 97 95 95 93 93 95 96 97 91 91 94 95 96 94 94 95 96 96 96 97 97 97 97 97 96
96 99 97 95 96 98 94 96 98 90 87 92 87 94 92 95 97 97 97 97 96 95 94 91 92 92 92 93 90 95 98 94 92 92 93 95 94 96 97 96 97 95 96 96
97 96 96 84 96 91 92 88 90 89 90 89 86 91 92 97 97 97 96 96 94 95 95 93 89 90 92 93 93 95 92 87 89 92 93 94 94 94 94 91 93 94 96 96
92 92 84 93 94 89 88 90 90 92 88 90 93 96 96 94 97 96 96 94 95 94 93 89 89 90 93 90 92 94 92 85 79 76 80 87 86 90 90 93 93 93 97 95
97 98 94 98 95 90 95 96 91 94 93 90 92 97 96 93 96 95 96 96 95 94 91 92 90 88 92 90 92 92 90 88 91 90 84 83 83 86 88 88 92 86 87 80

GFSCGP_sfc_rhum_102.txt.gz
RH
36 40 42 38 36 36 43 46 47 41 29 35 30 27 26 25 26 26 24 24 23 22 20 29 58 69 44 26 27 29 37 81 95 93 95 94 93 93 97 95 96 97 96 97
54 47 35 28 30 31 33 37 39 33 28 32 32 31 27 27 26 24 22 24 27 55 82 72 71 74 83 89 83 50 48 70 94 88 80 90 89 93 92 94 96 96 96 96
54 46 41 36 41 39 40 42 42 42 38 38 37 36 34 28 28 27 37 52 89 92 88 82 77 80 86 91 90 84 89 73 92 89 89 99 97 99 99 97 96 95 96 96
40 32 37 42 41 41 51 39 38 43 51 58 40 52 36 33 33 34 84 94 93 86 82 82 81 80 82 83 81 84 86 96 88 92 91 86 89 92 89 88 89 94 96 96
37 40 38 40 36 35 41 36 39 41 52 59 48 53 44 31 33 90 94 87 89 83 82 83 81 76 74 77 73 79 84 85 85 94 90 88 93 86 87 90 94 97 98 97
37 37 36 37 35 35 34 41 41 51 53 65 46 48 41 40 79 92 92 90 88 84 80 77 73 73 74 75 82 80 81 83 86 92 92 91 89 89 96 94 95 98 97 98
51 43 41 41 47 41 42 49 61 65 76 61 53 55 40 83 92 89 90 93 89 84 82 80 77 76 73 76 79 84 87 89 90 90 92 90 90 92 93 92 92 97 98 98
52 47 47 38 44 38 46 51 64 71 76 72 53 62 56 90 86 80 83 85 83 85 81 78 75 72 71 77 82 85 89 91 91 93 88 89 90 96 95 92 93 94 95 96
73 66 44 37 37 35 44 72 62 78 74 78 65 59 86 87 85 85 86 84 86 88 77 76 78 76 75 80 85 89 90 89 92 92 86 95 96 96 97 95 95 94 94 97
67 52 55 46 33 37 41 41 76 88 95 82 64 70 72 90 86 73 86 88 85 77 79 77 75 75 78 82 85 88 90 93 93 96 96 95 95 95 97 96 97 96 97 96
58 59 64 40 48 47 51 51 61 86 94 97 87 82 88 93 92 91 88 93 95 82 76 78 74 74 78 82 85 86 90 93 95 94 96 97 97 97 97 97 98 96 97 96
73 76 78 54 45 49 54 82 87 94 84 94 97 82 84 88 88 89 92 91 76 71 71 75 76 78 80 85 85 86 89 91 91 91 95 98 98 98 99 98 98 98 98 98
65 76 70 46 53 58 66 61 72 91 90 88 98 82 85 88 95 98 99 96 85 73 75 79 80 84 85 88 88 87 89 91 90 89 95 98 99 98 99 98 98 98 97 95
63 70 61 56 58 74 79 68 70 81 98 76 74 71 58 81 95 88 90 96 94 75 78 80 83 86 85 88 89 88 90 88 90 88 90 95 97 99 97 98 98 98 95 96
76 86 81 73 75 76 74 76 72 70 65 84 66 69 72 96 96 94 91 92 84 79 80 82 86 87 85 86 88 87 88 88 87 88 90 93 92 93 98 99 99 99 98 98
90 84 90 80 74 79 71 54 57 61 66 65 61 71 83 92 90 88 88 92 83 83 82 82 82 84 86 88 88 87 89 89 88 91 91 90 89 90 94 97 98 97 97 96
92 94 89 92 55 54 65 62 68 62 78 63 82 75 91 94 90 89 86 84 87 88 89 90 91 93 92 94 96 95 90 88 87 90 91 91 91 93 96 93 95 96 97 95
93 88 86 90 78 83 65 83 92 95 94 96 96 99 97 93 94 90 86 87 91 92 90 92 94 92 96 96 95 95 93 87 90 92 93 96 94 97 96 97 96 95 95 96
64 78 93 92 96 68 70 93 98 98 96 95 98 95 93 85 80 95 88 91 97 97 97 97 97 97 93 94 96 96 93 90 89 95 95 96 96 96 96 96 97 97 94 94
67 64 84 99 96 97 98 88 92 99 96 96 94 96 88 87 90 97 95 94 97 96 96 97 98 92 92 95 95 93 93 91 94 96 97 97 96 96 96 97 97 97 95 96
89 94 88 84 90 87 94 96 99 98 97 94 90 93 96 87 93 98 97 97 97 97 96 96 96 96 97 95 93 93 92 95 97 97 96 94 96 96 97 97 97 97 96 94
90 88 95 95 96 92 95 94 95 97 95 91 91 94 92 96 96 97 97 97 95 94 93 93 94 96 96 96 92 94 95 97 93 92 93 94 96 96 97 96 97 97 96 96
97 99 97 96 96 98 97 98 98 94 93 95 91 92 89 94 96 96 97 96 96 96 96 94 94 92 93 94 94 94 93 91 91 91 93 93 92 93 93 94 94 92 92 93
96 97 96 95 97 95 94 91 92 92 94 93 92 89 91 96 96 97 96 96 95 96 96 91 89 92 93 92 92 95 94 84 85 90 92 92 91 92 90 88 89 91 93 94
96 94 94 95 96 89 88 90 93 94 93 92 93 95 96 94 96 94 94 94 93 94 92 87 89 90 92 89 91 92 90 87 74 74 82 89 89 92 90 93 94 91 95 92
94 96 93 98 96 90 93 93 91 92 94 92 90 95 96 94 97 94 97 96 94 94 90 89 88 87 91 90 92 91 87 87 90 84 78 85 87 90 91 90 91 85 89 82

GFSCGP_sfc_rhum_105.txt.gz
RH
29 32 36 30 30 26 29 32 28 26 23 27 28 24 21 19 20 21 20 20 20 30 54 56 60 60 63 65 68 67 67 47 49 69 85 89 90 82 89 86 87 87 88 88
35 38 31 30 30 29 28 29 32 29 26 28 27 27 23 22 22 21 20 33 67 65 59 58 58 60 64 66 68 69 68 68 56 53 64 69 74 81 83 87 86 84 85 89
44 38 34 29 31 32 34 38 38 36 29 29 31 25 25 22 22 44 68 70 64 64 63 61 62 63 62 64 67 65 66 71 72 69 65 74 83 89 94 94 92 87 85 90
36 30 38 39 38 37 43 32 31 32 38 34 28 33 25 23 23 60 72 68 67 64 59 60 62 62 62 62 65 65 68 71 69 72 70 73 74 78 77 76 80 89 85 87
30 33 35 34 31 30 33 33 36 36 37 41 34 34 27 27 25 56 75 73 69 65 64 62 61 60 58 60 63 67 70 72 72 73 75 74 73 68 66 72 80 89 92 87
29 29 30 30 30 30 30 34 36 41 40 47 33 32 22 25 34 65 76 76 71 68 66 63 61 60 59 58 64 69 74 74 75 76 80 82 75 74 73 76 82 88 90 91
38 34 34 38 39 34 36 40 39 44 55 40 37 39 27 42 75 74 78 73 71 68 66 66 63 64 65 67 70 74 77 82 78 83 82 76 84 77 76 77 79 87 94 98
33 48 41 33 29 30 36 42 43 52 51 47 46 48 33 77 70 72 72 70 66 66 63 62 61 62 68 76 78 77 82 85 82 86 90 79 82 88 79 78 76 80 85 89
60 55 39 31 30 29 40 55 45 57 63 56 38 40 72 67 63 71 74 75 79 72 64 66 63 64 70 82 84 86 86 84 86 91 92 83 86 88 89 83 80 84 86 89
55 51 49 40 31 28 35 28 48 76 61 43 26 41 44 72 71 75 78 88 78 68 63 65 66 69 72 82 86 87 87 88 87 90 91 94 91 91 89 90 85 85 89 89
47 42 49 36 34 34 32 35 47 58 74 55 36 37 72 79 82 81 82 80 81 73 66 65 66 70 73 81 85 86 87 89 90 91 92 97 96 94 94 95 93 93 92 94
60 57 51 40 46 43 42 56 61 58 53 67 66 46 81 77 89 88 85 78 72 71 66 65 67 73 74 79 83 85 87 88 88 87 91 97 98 97 97 96 96 95 93 92
57 58 49 55 49 44 52 49 64 76 68 73 68 50 73 71 84 82 81 75 72 75 73 68 69 75 78 79 82 84 86 90 87 86 91 94 96 98 96 97 98 96 96 93
57 54 41 34 44 50 64 57 50 63 79 54 53 53 48 44 80 80 80 83 83 85 82 72 73 78 80 80 82 85 87 86 89 86 89 93 94 94 96 95 96 97 95 95
68 64 62 50 49 61 57 54 56 60 60 71 60 62 60 51 82 88 83 81 82 82 78 76 81 83 80 83 84 83 87 86 86 90 90 92 91 90 91 94 97 98 96 98
78 76 76 66 52 51 54 45 49 49 53 52 46 62 44 80 82 82 86 88 90 86 83 80 79 80 83 85 88 86 90 88 86 88 93 92 89 88 90 92 94 96 97 97
76 77 69 70 50 45 47 46 51 55 69 62 83 65 79 88 83 84 88 90 85 85 85 88 88 90 89 91 95 94 95 88 87 90 89 90 92 95 93 92 95 98 98 96
74 77 66 66 64 58 52 77 84 91 92 86 87 97 82 84 91 90 91 91 87 88 90 91 90 88 92 94 92 90 93 94 90 92 91 91 92 95 97 96 97 96 97 99
56 61 79 73 72 54 71 91 97 95 91 95 96 95 89 88 88 94 90 88 92 94 95 94 94 95 94 94 95 88 89 93 91 94 94 95 94 95 95 98 97 97 97 96
63 57 68 86 81 85 91 84 80 97 90 94 93 92 92 93 92 93 92 88 92 93 94 95 94 94 91 96 89 91 92 91 95 96 97 97 96 96 96 96 97 98 96 97
88 88 84 79 84 72 89 94 98 97 95 94 93 95 95 91 86 94 94 94 94 95 92 92 94 96 97 95 89 91 92 95 97 95 92 94 95 96 97 97 98 97 98 96
76 81 86 83 88 85 89 81 89 96 96 92 91 93 90 93 95 95 94 94 92 91 88 88 88 93 93 93 90 92 94 95 93 92 93 93 94 95 95 95 97 97 97 97
93 96 90 91 91 96 96 96 97 95 92 92 88 91 90 92 94 95 95 94 92 91 89 82 77 78 84 88 86 91 90 87 89 90 93 92 91 92 92 93 94 93 94 94
94 96 88 92 96 93 94 93 94 87 91 91 90 90 92 94 95 95 94 92 90 89 85 73 73 77 82 77 81 83 80 76 83 88 90 91 89 89 89 80 84 89 91 91
89 90 87 93 94 88 90 92 91 90 90 90 92 93 94 92 93 90 89 86 86 82 76 71 72 72 76 67 72 75 70 58 51 62 72 79 79 83 84 91 87 85 92 88
88 94 89 89 93 84 90 91 88 88 92 91 89 93 94 87 90 87 91 91 88 84 76 74 73 73 77 75 79 80 76 70 69 66 66 75 72 76 77 77 84 85 82 80

GFSCGP_sfc_rhum_108.txt.gz
RH
21 23 24 21 21 18 17 20 19 16 14 16 19 17 15 13 13 14 14 13 15 24 33 37 43 44 45 45 48 50 54 55 49 30 36 46 68 64 52 53 60 61 67 79
19 26 15 15 17 20 21 23 22 18 18 22 20 18 15 14 14 14 14 16 32 36 37 40 40 43 48 48 50 51 49 52 53 46 32 37 44 50 52 54 62 69 72 80
27 21 22 22 24 28 27 26 24 24 19 18 20 19 13 14 14 17 27 36 39 43 42 40 41 42 44 46 50 49 49 50 54 58 51 44 44 48 51 57 65 73 76 83
30 22 28 27 26 24 27 19 23 23 22 21 20 18 15 14 17 25 37 41 45 45 42 41 43 44 46 46 49 49 51 52 52 56 58 57 46 46 46 51 53 72 77 76
33 23 23 30 24 23 24 18 22 23 24 25 21 22 11 15 19 28 41 51 49 47 46 46 44 43 42 46 50 53 55 55 55 59 66 68 61 49 44 47 59 77 82 80
25 19 23 22 20 21 20 25 25 25 25 33 21 18 10 16 16 34 52 53 53 50 47 45 43 42 41 45 53 57 60 58 60 66 70 76 77 66 54 49 61 76 83 88
25 24 24 28 28 25 25 30 35 36 38 28 20 18 14 27 41 47 60 53 50 48 48 46 44 44 46 51 56 59 64 69 67 73 76 76 78 75 68 59 57 70 83 91
33 42 29 25 27 26 28 27 31 33 26 21 29 30 26 49 57 61 58 55 54 51 47 44 44 46 48 54 58 64 75 78 75 79 80 81 83 77 64 69 69 61 69 81
40 37 30 27 25 26 30 39 31 46 36 40 20 21 52 58 69 61 57 54 54 52 46 46 46 48 54 57 65 79 85 82 81 84 86 87 87 84 69 64 74 75 71 77
56 54 41 35 26 23 30 24 47 49 47 29 14 17 21 58 60 58 66 60 54 49 47 47 46 50 58 63 70 83 88 89 86 86 87 88 90 85 69 66 78 79 73 76
47 47 44 36 34 30 26 26 28 36 35 36 26 19 56 75 72 69 54 54 54 51 50 47 47 49 54 60 70 77 87 91 90 89 88 92 92 87 69 77 80 81 80 81
46 36 34 31 32 31 26 28 25 47 34 35 38 31 56 64 59 58 55 57 52 52 51 49 48 52 56 59 66 81 89 96 89 86 87 91 94 96 96 92 82 88 91 89
41 36 35 31 37 37 35 36 39 56 49 47 51 37 52 62 60 61 59 56 56 58 54 50 51 57 65 69 76 81 85 88 88 85 86 89 92 95 97 96 96 95 93 94
39 33 27 20 32 33 47 37 36 49 66 40 32 33 30 34 34 43 58 62 62 62 58 56 57 61 69 74 80 83 85 88 87 88 88 91 93 93 95 95 96 97 97 97
44 47 35 30 26 33 29 30 34 36 39 57 47 53 45 34 35 65 64 62 61 66 67 66 62 65 70 77 87 87 86 86 83 88 91 95 90 87 95 94 93 94 96 99
57 63 54 43 34 32 34 27 27 31 36 36 31 49 28 35 65 67 71 69 71 76 81 73 66 68 75 77 86 92 93 93 84 86 94 100 94 90 90 92 91 93 94 95
55 58 54 52 32 33 41 34 30 27 36 40 71 56 43 68 67 69 71 72 78 84 86 85 82 82 83 86 89 92 94 94 92 89 85 88 94 98 96 90 91 96 98 96
48 60 47 47 61 55 72 50 56 60 64 75 73 68 68 80 78 75 80 84 88 92 87 92 90 84 91 94 87 87 92 94 95 95 94 89 90 92 93 96 96 96 96 98
41 43 60 63 51 40 56 92 96 96 84 89 87 90 79 78 74 90 88 91 95 99 99 97 96 95 96 93 96 92 89 90 91 96 95 96 94 92 93 94 97 97 96 96
48 44 58 65 71 64 97 78 67 93 86 90 88 81 89 92 91 92 94 90 96 97 98 96 97 97 90 95 95 90 92 92 96 99 100 100 98 95 96 96 97 97 96 96
78 73 78 69 77 62 79 93 89 95 96 88 90 92 94 90 90 96 98 98 98 97 96 93 95 92 93 94 92 89 90 96 98 98 98 98 100 100 100 100 100 99 98 97
67 74 79 81 89 82 84 76 91 94 92 91 91 95 91 94 95 96 96 96 94 92 89 79 74 84 89 89 87 87 92 93 95 93 94 96 97 100 100 100 100 100 99 96
95 95 91 91 90 96 93 96 96 93 89 91 86 92 91 93 95 95 95 95 93 89 69 54 54 58 66 71 74 82 80 85 90 91 91 93 94 97 97 96 96 91 95 95
94 82 86 83 93 91 92 90 88 86 89 90 90 90 92 94 94 95 94 91 86 69 60 49 50 54 58 56 61 61 55 68 80 83 86 88 87 90 90 79 82 86 89 88
75 77 77 88 88 82 81 87 89 92 90 91 93 94 94 92 93 90 87 82 71 61 56 51 52 53 55 51 56 54 47 40 40 45 52 62 64 72 77 86 84 82 90 85
72 89 84 90 87 77 87 88 88 90 93 90 87 92 95 87 88 83 87 82 73 70 61 57 53 53 58 60 67 66 63 60 64 62 58 61 59 62 62 63 71 74 74 72

GFSCGP_sfc_rhum_111.txt.gz
RH
23 24 25 21 20 19 19 19 19 14 12 15 17 14 12 10 10 11 11 11 12 12 16 26 32 35 38 40 41 43 47 48 46 43 36 29 40 40 42 44 51 53 54 56
23 26 20 17 17 18 18 21 20 15 12 14 15 15 12 11 11 11 11 12 12 17 24 30 32 34 39 39 42 43 42 44 45 44 43 42 37 35 36 43 46 50 56 63
26 18 14 18 20 18 17 20 20 18 15 14 17 17 13 10 10 9 10 13 22 28 30 32 34 36 38 39 43 41 41 42 45 49 44 44 44 43 44 41 42 46 55 62
31 22 20 22 24 19 25 17 19 20 20 22 12 17 12 12 12 13 18 25 30 34 33 33 34 36 38 38 43 43 45 45 44 48 49 55 54 51 34 38 37 44 53 62
36 31 30 30 29 24 24 19 19 19 21 20 17 17 15 11 12 18 26 34 37 38 38 37 35 35 33 37 42 47 48 48 48 52 56 57 60 54 50 44 48 48 53 63
25 22 25 20 17 17 18 20 20 20 20 29 20 18 15 11 11 18 40 39 41 39 37 36 34 34 34 37 44 49 52 50 53 58 63 69 72 69 63 60 52 48 48 60
28 28 24 20 28 25 21 28 37 35 36 34 16 16 16 20 31 30 41 39 40 38 38 38 36 36 38 43 47 49 52 58 59 63 65 69 73 76 75 68 61 59 57 68
56 71 28 24 25 30 27 28 42 71 50 37 18 24 27 41 42 41 38 39 36 37 37 36 37 38 39 45 47 52 58 64 64 67 70 72 76 76 74 70 62 58 57 58
52 46 32 24 21 22 25 37 24 43 42 40 30 26 43 50 47 49 46 39 38 36 36 38 38 39 42 45 51 61 66 67 70 74 76 83 82 81 82 80 73 63 61 62
42 70 33 27 23 22 23 26 51 39 47 40 23 23 24 65 67 54 49 43 39 36 36 38 38 42 43 47 50 63 70 73 74 78 84 84 85 85 84 85 84 74 63 63
34 40 42 33 31 29 30 31 31 31 40 52 47 33 52 72 58 52 42 40 38 37 37 39 40 41 43 49 54 61 71 75 82 88 87 88 86 87 90 92 87 77 72 66
42 48 60 42 25 26 25 30 29 53 43 30 28 23 46 50 43 43 41 40 36 38 40 40 41 44 47 53 57 65 73 83 91 92 93 88 86 87 90 94 92 77 69 69
50 54 53 36 29 28 30 28 28 32 34 42 53 35 45 40 40 45 36 37 38 42 43 43 43 48 54 58 63 67 72 85 91 98 90 90 89 90 92 94 97 94 78 68
43 37 35 31 26 29 39 25 25 36 66 41 29 24 31 34 28 24 33 43 42 47 51 49 49 52 58 60 67 71 76 83 86 89 88 92 96 94 93 92 94 96 95 96
38 46 32 26 21 20 25 27 28 29 36 50 36 42 30 25 26 37 48 44 45 54 55 58 60 63 62 68 73 74 84 88 89 85 89 96 96 96 93 92 92 91 94 93
42 58 48 39 25 24 29 22 20 21 26 26 21 32 22 23 37 48 55 54 59 63 64 64 67 78 82 83 79 82 87 95 96 93 92 94 94 98 97 94 93 91 91 93
49 49 49 55 26 28 35 27 22 20 20 24 54 36 41 50 76 59 61 62 68 72 76 79 88 91 91 91 93 93 95 92 95 95 95 90 93 94 97 94 96 98 94 91
44 47 45 46 47 51 44 38 43 44 37 36 49 53 63 76 70 70 72 75 78 87 88 92 93 92 95 96 93 95 95 95 95 97 97 96 97 96 91 94 96 96 96 96
34 38 54 57 45 33 48 88 89 90 65 70 72 70 72 69 68 82 74 82 95 99 98 97 97 96 97 96 99 95 95 94 91 98 100 100 98 97 93 95 96 97 95 95
35 36 50 54 62 63 98 63 53 69 80 71 65 67 76 82 91 92 92 92 96 98 99 96 97 97 92 97 90 93 93 93 97 99 100 100 100 100 99 100 98 98 97 98
64 58 60 59 71 82 68 82 70 96 95 78 74 88 80 88 90 98 98 98 99 98 98 94 91 89 90 91 87 92 92 97 98 96 97 98 99 100 100 100 100 100 100 98
60 64 74 73 92 86 73 69 86 96 88 84 94 98 88 94 97 96 97 96 95 94 85 59 59 77 86 86 82 81 88 93 92 91 91 92 93 93 94 97 100 100 100 98
92 92 94 85 89 88 78 93 92 93 88 90 88 93 90 94 95 96 95 95 94 82 51 40 42 47 51 54 54 76 85 84 86 86 87 89 88 91 90 90 91 88 86 88
77 62 81 77 85 86 82 78 89 87 89 90 90 90 93 94 95 95 95 93 80 53 44 38 40 45 51 48 49 51 49 57 68 71 75 77 79 84 83 75 78 83 87 87
68 60 64 78 78 79 73 80 84 90 90 90 94 95 94 92 94 92 92 86 58 49 44 41 44 47 51 48 51 49 48 45 45 48 51 54 57 60 70 80 78 76 85 80
71 88 83 92 77 77 85 82 85 89 93 89 87 94 96 88 92 89 89 73 64 58 48 44 43 44 50 56 60 62 58 58 62 60 60 64 61 61 60 61 76 74 72 71

GFSCGP_sfc_rhum_114.txt.gz
RH
23 32 35 27 25 22 22 24 24 19 15 17 17 15 13 12 12 13 13 13 12 13 20 30 37 40 42 46 47 49 55 60 59 59 61 59 59 52 62 58 66 68 66 68
24 34 27 23 22 22 22 24 23 18 15 17 17 15 12 12 12 12 12 12 13 13 25 32 35 40 46 46 51 50 48 52 54 52 57 60 61 62 58 58 59 60 67 69
34 26 19 19 19 20 20 22 24 21 15 15 17 18 15 14 13 12 11 11 16 20 33 34 34 40 45 48 54 48 49 51 54 57 53 54 58 60 59 53 48 60 66 72
30 21 21 22 23 20 25 20 22 21 23 33 19 29 19 14 11 11 12 24 33 34 33 33 35 38 42 48 53 50 52 52 50 58 61 67 66 66 62 61 58 57 59 56
37 29 27 32 31 25 29 23 30 30 39 40 27 29 22 15 13 13 23 38 39 38 37 37 36 36 36 45 52 56 54 52 54 60 66 69 72 70 68 68 70 67 64 59
30 24 26 30 32 28 20 22 28 33 34 52 32 28 24 18 18 16 40 39 39 39 38 36 35 36 38 44 53 57 56 55 58 63 67 72 72 70 74 75 75 72 68 65
31 28 22 28 34 25 25 32 46 74 59 50 24 26 23 56 40 48 47 40 40 38 39 37 37 38 42 48 52 54 58 62 63 66 67 69 70 73 75 77 77 76 74 75
36 49 26 24 32 34 30 35 73 73 63 49 60 54 50 50 54 48 39 37 36 36 36 37 38 42 44 48 52 56 60 66 66 67 71 71 72 74 76 77 77 77 75 71
44 43 29 26 26 27 37 44 37 65 65 60 44 50 67 48 48 46 42 39 38 34 34 36 36 42 46 50 56 64 66 67 71 75 76 78 77 76 78 78 78 79 78 73
31 47 48 34 23 22 25 21 49 83 90 59 34 30 69 67 58 50 48 43 38 34 34 38 40 46 48 52 54 64 70 72 75 78 80 79 81 81 81 82 84 83 81 81
28 48 61 44 38 35 31 31 32 37 44 76 54 45 65 75 70 66 44 40 37 38 39 40 42 46 49 53 57 64 70 75 80 83 84 86 85 85 86 88 89 88 88 86
54 56 67 51 29 23 26 32 34 56 48 44 45 43 51 61 50 42 39 38 37 38 40 42 45 49 52 56 60 69 74 82 86 85 85 88 88 86 89 89 89 90 92 91
54 80 65 49 45 29 32 29 28 39 44 51 62 47 43 39 36 40 40 38 39 42 45 48 51 54 58 63 69 72 78 85 86 87 87 90 91 91 93 91 90 89 92 92
52 54 63 72 48 32 42 31 25 37 62 49 43 36 29 46 35 30 41 44 41 50 50 55 58 62 68 71 72 79 88 88 87 86 88 90 91 94 96 95 92 92 90 92
44 54 44 36 28 26 23 23 26 28 32 49 48 48 36 27 36 42 43 43 46 54 59 62 66 68 70 75 81 84 91 96 95 95 93 94 91 90 90 94 94 95 96 95
44 64 52 50 31 25 27 20 20 22 24 26 24 34 23 24 44 51 54 52 62 66 70 67 71 76 80 85 93 93 97 97 97 96 98 99 95 90 92 93 94 94 93 90
52 56 53 54 31 27 36 30 23 23 22 24 48 38 55 63 78 72 68 68 73 78 76 82 86 93 91 95 96 95 98 97 97 98 97 98 98 97 96 91 91 94 96 94
47 51 49 52 47 54 30 37 42 48 42 44 51 60 66 72 77 76 76 80 82 82 85 90 94 94 96 96 96 98 98 97 97 97 97 98 98 98 97 94 95 95 95 96
35 44 56 60 49 36 39 79 78 78 55 55 66 62 67 69 71 90 78 78 88 93 96 97 98 97 97 96 98 98 97 95 93 97 97 97 98 96 97 96 96 97 96 96
26 36 58 52 60 65 87 65 49 59 80 67 65 71 78 73 92 96 89 86 94 97 98 98 98 93 91 96 96 95 93 91 96 97 98 97 97 96 97 97 98 98 97 97
53 50 56 57 67 79 70 70 60 94 88 73 70 70 99 90 87 94 94 96 97 99 99 96 88 90 91 84 78 85 89 92 90 85 85 89 88 92 95 96 97 97 97 94
58 64 69 66 80 84 70 71 80 91 82 78 97 97 88 93 95 96 97 97 96 96 84 58 62 76 81 88 86 83 85 87 84 84 84 79 84 86 85 87 89 87 89 93
84 87 96 86 91 77 74 80 82 77 83 92 92 96 90 93 95 96 97 97 96 88 53 42 47 52 56 58 60 79 90 76 77 76 78 87 82 80 82 85 88 87 88 85
70 60 77 78 81 74 75 73 78 75 89 92 93 94 93 96 97 97 96 96 94 61 47 41 46 52 59 56 56 59 60 61 68 71 72 71 79 89 84 74 79 84 88 90
67 52 63 79 75 69 72 77 79 84 85 91 94 94 96 95 96 95 95 94 74 49 45 42 49 55 60 57 63 60 57 57 59 63 67 69 69 71 89 86 81 80 82 79
72 87 82 94 73 76 82 80 81 88 92 91 88 95 96 90 96 93 96 87 64 58 49 46 48 52 61 64 68 69 70 69 72 73 73 76 74 75 73 77 90 72 70 66

GFSCGP_sfc_rhum_120.txt.gz
RH
43 51 58 43 44 41 45 45 45 38 31 30 29 27 23 21 23 23 22 25 40 57 55 56 58 62 60 62 62 63 65 69 68 69 72 77 77 74 78 79 81 81 89 91
48 53 42 37 37 39 40 46 46 36 29 28 30 33 30 26 26 25 20 18 49 58 57 56 62 64 66 66 65 64 64 68 69 69 72 82 76 86 75 80 74 79 76 81
46 39 32 37 40 42 41 42 41 39 33 39 42 42 40 29 27 24 24 23 45 54 55 58 62 67 67 69 67 66 66 67 71 70 70 70 72 74 78 73 72 72 73 77
52 37 39 42 44 39 47 33 34 41 43 54 45 62 43 32 30 36 55 56 55 52 54 57 60 65 67 74 69 68 68 69 64 71 74 82 86 86 80 79 73 73 72 73
58 50 50 51 47 42 49 40 47 46 54 57 45 62 44 34 32 62 65 60 63 61 60 67 70 68 66 68 72 68 68 69 71 72 76 81 83 80 77 76 77 75 75 75
52 41 45 44 39 39 36 39 42 46 52 77 45 58 54 91 86 70 62 56 58 55 56 60 59 59 64 64 70 71 69 72 73 76 77 81 84 82 81 80 82 80 78 77
53 48 39 37 46 47 53 70 93 82 76 69 50 59 93 89 85 79 77 71 55 54 62 65 65 62 63 67 77 65 74 75 74 77 77 80 82 82 81 77 78 77 79 80
62 66 41 45 48 55 64 65 93 89 82 72 50 63 92 86 84 81 81 80 77 69 68 75 71 70 63 68 74 77 78 78 76 80 82 82 82 84 81 77 76 78 78 78
60 53 40 34 39 46 56 66 55 73 81 88 71 89 93 85 91 93 94 88 89 91 84 74 69 67 67 71 74 80 85 84 82 84 82 81 81 78 78 77 77 79 77 74
44 53 56 52 36 38 47 47 74 91 94 92 69 68 97 94 90 88 92 90 86 80 77 78 77 76 75 73 78 81 84 88 85 79 79 77 78 76 77 77 79 81 80 80
53 54 64 57 55 49 44 49 52 74 82 93 93 68 76 86 86 85 77 63 62 65 67 69 71 69 72 75 77 81 85 82 82 80 77 78 78 80 83 85 85 85 85 84
61 73 85 70 50 41 46 50 51 86 80 77 79 62 79 88 82 63 59 63 68 68 72 73 73 75 77 77 81 85 80 81 87 84 79 79 80 83 84 86 86 86 87 85
60 79 83 69 64 59 66 49 46 60 66 70 85 68 68 69 72 62 64 61 64 68 76 80 80 81 76 75 82 80 77 80 84 86 88 87 90 92 88 87 87 85 86 85
66 77 70 63 67 65 67 59 46 56 87 85 69 58 47 75 72 68 70 70 73 75 73 76 76 74 75 82 81 79 84 82 87 89 91 91 95 96 96 93 91 89 86 87
66 76 76 62 52 55 86 77 58 56 54 61 54 66 81 74 74 74 71 70 74 76 76 76 76 80 79 83 82 81 88 90 92 92 93 96 98 97 97 97 97 97 91 89
62 81 68 66 48 43 56 54 43 37 38 41 33 96 77 75 76 78 76 76 81 80 80 78 78 85 88 88 91 90 93 95 96 95 97 97 95 96 96 96 97 96 95 96
71 77 79 86 52 45 54 50 38 34 70 65 78 85 83 89 84 86 91 85 81 82 84 86 87 94 94 96 96 96 96 95 93 96 95 95 95 95 97 96 96 96 97 96
76 76 81 83 63 78 74 61 60 79 83 84 89 88 87 83 87 86 85 85 85 84 88 92 95 97 97 96 95 93 88 87 89 93 94 94 95 96 96 96 96 96 97 97
65 77 85 83 86 68 71 83 88 79 89 85 85 95 92 89 85 95 86 87 96 97 98 98 99 98 95 92 92 93 94 93 86 90 92 91 86 91 94 96 96 96 96 96
58 63 79 89 82 89 77 82 70 70 90 83 84 88 92 94 100 99 93 92 98 98 99 98 98 96 91 93 89 93 91 93 94 91 87 85 84 85 90 91 92 90 93 96
74 78 76 92 89 83 84 86 74 88 83 82 87 93 92 95 97 95 97 98 96 98 97 97 91 91 90 89 89 90 89 92 96 91 87 87 87 86 87 87 87 90 89 87
64 75 90 90 92 85 84 87 92 93 95 94 98 94 95 96 98 98 98 98 98 98 97 88 82 88 89 88 89 91 90 89 90 94 92 90 89 88 88 88 87 86 87 88
89 82 92 88 89 94 92 97 92 89 89 97 97 98 94 96 96 95 97 97 98 97 96 77 80 82 84 80 82 91 91 89 90 88 92 97 90 90 87 88 88 87 86 86
89 82 94 90 96 92 89 88 88 94 98 97 92 92 92 95 96 97 97 97 97 96 95 81 79 81 79 75 75 81 81 83 86 86 85 84 92 91 91 80 79 87 90 90
90 82 90 91 90 84 81 84 90 98 97 96 94 93 95 93 97 95 97 97 96 94 85 77 80 82 88 86 87 84 75 78 71 74 77 80 79 86 92 90 76 78 85 82
98 93 95 95 87 87 91 87 92 95 97 93 93 98 98 92 96 95 97 97 94 74 75 75 77 81 85 86 89 88 85 77 83 78 80 86 84 86 85 90 84 69 66 70

GFSCGP_sfc_rhum_123.txt.gz
RH
45 58 60 49 48 48 52 56 57 50 37 41 39 35 30 28 29 33 33 29 72 71 66 67 67 69 68 68 69 72 73 74 73 77 85 89 86 84 82 89 82 88 84 83
54 64 48 42 43 46 48 51 52 46 39 40 40 39 38 36 33 34 33 36 71 68 68 65 68 70 72 71 70 71 72 73 72 76 83 84 87 90 83 80 79 84 80 83
58 47 39 42 45 47 48 53 51 49 40 41 45 45 40 33 33 39 57 48 63 68 70 65 66 71 74 75 74 72 70 69 72 74 74 76 81 79 82 76 76 75 75 80
52 37 38 42 46 44 54 41 42 50 59 68 46 66 42 39 61 69 69 73 76 75 72 72 76 76 74 74 67 68 68 69 66 72 78 86 90 89 85 82 77 75 74 78
62 56 60 57 49 47 56 48 50 51 63 61 54 71 53 73 81 75 70 68 71 75 75 77 79 75 73 72 71 69 71 70 71 74 77 82 87 85 82 80 81 80 79 78
56 49 49 50 42 45 44 53 57 60 55 86 57 56 69 85 79 72 70 64 62 64 64 65 62 64 73 73 72 67 72 71 72 77 79 84 89 89 88 85 85 82 79 79
63 60 53 46 58 52 55 64 88 94 82 76 54 61 78 87 83 82 86 86 79 77 74 72 72 72 68 72 74 67 75 80 77 81 84 84 86 88 87 84 84 84 80 77
64 66 46 43 50 57 67 68 93 90 83 74 58 67 83 82 78 79 78 83 85 90 90 90 89 88 85 79 74 76 79 84 82 79 79 76 74 77 78 77 77 79 81 79
67 60 45 42 46 47 60 80 70 81 79 88 73 84 86 86 87 88 90 86 88 91 90 89 88 88 90 85 86 90 86 82 79 79 76 74 74 73 76 76 76 78 77 76
51 62 56 52 38 41 51 52 74 92 96 93 76 73 90 95 87 82 88 88 87 85 82 81 77 76 76 78 77 80 82 82 80 80 74 72 73 72 76 78 79 80 79 79
49 57 66 59 57 54 48 56 62 79 88 94 90 73 79 82 79 82 82 84 84 74 74 73 72 72 71 73 82 78 77 80 81 84 83 74 78 76 78 79 83 83 83 82
61 72 86 65 56 46 47 52 59 82 77 84 84 66 57 80 81 72 79 72 77 79 82 83 80 78 74 80 76 78 79 85 87 80 85 84 83 83 82 84 84 85 85 83
70 86 93 73 66 63 66 58 53 66 76 71 84 75 81 84 81 69 76 75 78 81 85 86 81 76 79 79 80 80 83 86 83 82 83 86 84 87 89 87 86 85 86 84
68 77 68 66 62 65 72 62 52 64 94 80 76 71 63 84 77 72 75 81 83 82 77 73 76 80 77 82 81 81 84 85 84 82 85 86 88 89 90 87 88 88 87 86
73 79 78 69 58 64 76 71 69 70 78 93 72 70 90 86 80 84 79 74 78 79 76 76 78 81 82 83 84 85 90 91 87 90 91 94 92 90 90 92 93 92 91 90
66 84 67 64 52 49 68 75 72 68 67 61 61 88 84 81 79 79 78 80 84 79 78 79 81 87 90 87 84 87 90 89 92 92 95 94 94 94 95 96 96 93 90 92
72 87 93 94 59 47 59 62 63 56 67 68 74 74 86 90 88 89 89 80 80 83 82 87 91 94 96 92 97 97 94 90 90 91 91 91 93 94 94 94 92 94 95 93
79 84 97 92 60 82 72 68 73 77 86 91 93 93 90 88 90 90 91 86 86 87 87 91 95 96 96 97 98 97 97 89 88 91 91 90 89 89 88 91 94 94 96 96
72 91 96 89 83 66 75 80 85 81 75 86 96 95 83 86 84 94 86 85 96 97 98 98 98 99 97 96 94 92 93 89 88 91 92 92 87 88 88 90 92 91 93 94
69 66 82 87 84 92 75 82 72 70 86 86 90 95 91 90 98 99 94 94 98 98 98 98 97 95 93 94 89 92 94 93 94 92 92 90 88 90 92 91 90 90 91 92
94 81 82 88 86 78 74 83 76 86 79 87 86 89 90 95 96 94 95 98 96 97 97 97 97 97 96 92 89 93 94 97 97 91 89 89 89 89 91 91 90 90 90 90
76 80 94 89 88 82 82 86 84 88 98 93 98 98 93 96 98 97 94 96 97 97 97 95 94 95 95 94 93 95 95 94 93 96 90 91 92 91 89 90 90 90 87 89
74 79 83 77 82 95 94 94 95 92 94 92 96 98 91 95 96 96 97 97 97 97 96 93 88 90 88 88 88 96 96 90 90 88 93 97 92 93 85 88 93 89 88 87
92 80 94 87 95 96 96 94 93 93 95 99 96 96 91 95 96 97 97 97 96 96 96 94 89 85 86 83 80 82 82 81 83 85 87 87 86 90 87 78 82 87 89 89
91 82 86 93 92 89 92 86 89 95 90 92 96 94 95 93 96 95 96 96 96 95 93 78 80 81 84 80 82 83 78 77 69 74 76 79 81 83 85 85 78 81 83 78
96 94 92 94 86 86 90 92 93 93 94 94 95 98 96 91 95 94 96 96 95 92 78 79 80 83 85 82 85 85 82 77 82 77 80 86 83 87 87 83 83 69 68 66